     2              OBSERVATION DATA    GPS                 RINEX VERSION / TYPE
teqc 2000Feb29 Duncan Agnew 20000517 23:40:37UTC            PGM / RUN BY / DATE
                                                            COMMENT
L2: 1 -> 1; 5 -> 5; 60 -> 9                                 COMMENT
L2: 1 -> 1; 5 -> 5; 60 -> 9                                 COMMENT
L2: 1 -> 1; 5 -> 5; 60 -> 9                                 COMMENT
L2: 1 -> 1; 5 -> 5; 60 -> 9                                 COMMENT
L2: 1 -> 1; 5 -> 5; 60 -> 9                                 COMMENT
Original Marker Name: HAVA                                  COMMENT
Campaign Name: Post Hector                                  COMMENT
4-Character Station Name: HAVA                              COMMENT
6-Character Antenna Code: TRMSST                            COMMENT
Vertical Measurement Point: BPA                             COMMENT
Vertical Offset to Rinex Ref. Point: 0.0000                 COMMENT
Radial Measurement Point: RRP                               COMMENT
Radial Offset to Rinex Ref. Point: 0.0000                   COMMENT
Antenna Height from Field Measurement: 2.0000 m             COMMENT
Additional Antenna Identification Info.:                    COMMENT
Model 14532.00                                              COMMENT
Original XYZ: -2168900.5572 -4789860.5530 3598446.4019      COMMENT
New XYZ position is based on association with SCEC monument COMMENT
E1F3E9T0+0011. Position of that monument is believed to be  COMMENT
valid to within 1 m horizontally; vertical accuracy         COMMENT
should be no worse than 3-times this value.                 COMMENT
                                                            COMMENT
Revised Rinex header created by UCSD GPS archive for        COMMENT
GSAC on 12-Sep-2000 (2000:256) 23:00:50 GMT                 COMMENT
For assistance contact dagnew@ucsd.edu                      COMMENT
or anderson@python.ucsd.edu                                 COMMENT
                                                            COMMENT
HAVASU 1992                                                 MARKER NAME
HAVA                                                        MARKER NUMBER
-Unknown- NATIONAL GEODETIC SURVEY                          OBSERVER / AGENCY
6693 TRIMBLE 4000 SSE NP 7.29; SP 3.07                      REC # / TYPE / VERS
13 TR 4000SST L1/L2 GEO                                     ANT # / TYPE
 -2168901.3332 -4789858.4482  3598443.5629                  APPROX POSITION XYZ
        2.0000        0.0000        0.0000                  ANTENNA: DELTA H/E/N
     1     1     0                                          WAVELENGTH FACT L1/2
     7    C1    L1    L2    P1    P2    S1    S2            # / TYPES OF OBSERV
     0                                                      INTERVAL
  2000     5     5    14    55   30.000000                  TIME OF FIRST OBS
  2000     5     5    20    30   15.000000                  TIME OF LAST OBS
                                                            END OF HEADER
 00  5  5 14 55 30.0000000  0  7G 2G 4G 7G 8G 9G26G27
  21312500.2274     757488.05057    590249.14457                  21312505.6524
        25.0004         33.2504
  22584095.7974   -1879105.02156  -1452985.79955                  22584101.8444
        14.7504          9.7504
  20586628.6094     709186.36257    550142.70057                  20586633.0044
        25.7504         35.2504
  22913615.3524    2790519.27356   2159401.39055                  22913621.6684
        14.0004          9.2504
  23398568.4224   -1677171.94455  -1272371.66555                  23398574.4224
        11.7504          6.2504
  23279005.4614    1517406.32755   1182392.51855                  23279010.8754
        11.7504          6.7504
  24026685.4844    3007886.26554   2327443.84153                  24026695.5784
         6.7504          2.7504
 00  5  5 14 55 45.0000000  0  7G 2G 4G 7G 8G 9G26G27
  21316049.2274     776137.92147    604781.48047                  21316054.6644
        25.0004         33.2504
  22576704.9694   -1917942.87546  -1483249.02945                  22576711.0164
        15.0004         10.5004
  20590160.1884     727745.16647    564604.09347                  20590164.4774
        25.7504         35.0004
  22925646.8984    2853746.02546   2208668.90545                  22925653.5904
        13.7504          9.0004
  23392052.6254   -1711412.62745  -1299052.68045                  23392058.4844
        11.7504          6.5004
  23285914.3674    1553712.65146   1210683.10045                  23285920.3444
        12.2504          7.2504
  24039539.2194    3075430.20244   2380075.37043                  24039549.4304
         7.2504          3.2504
 00  5  5 14 56  0.0000000  0  7G 2G 4G 7G 8G 9G26G27
  21319611.6024     794857.11947    619367.84047                  21319616.9804
        25.0004         34.7504
  22569327.6414   -1956710.40546  -1513457.45745                  22569333.5824
        14.7504         10.0004
  20593712.0084     746409.87547    579148.00147                  20593716.4844
        25.7504         36.5004
  22937693.5084    2917049.94146   2257996.54845                  22937699.5784
        14.0004          9.0004
  23385551.1024   -1745575.97445  -1325673.45845                  23385556.3524
        11.5004          6.5004
  23292844.4454    1590129.20946   1239059.60045                  23292849.8244
        12.5004          7.7504
  24052403.7344    3143033.05144   2432752.79943                  24052412.0824
         6.7504          2.7504
 00  5  5 14 56 15.0000000  0  7G 2G 4G 7G 8G 9G26G27
  21323185.6094     813639.20047    634003.23247                  21323190.9414
        25.0004         32.0004
  22561962.7664   -1995413.82446  -1543615.92845                  22561969.2344
        15.0004         10.0004
  20597282.7424     765173.85147    593769.24247                  20597287.3714
        25.7504         33.0004
  22949753.2894    2980424.23346   2307379.02945                  22949760.3714
        13.2504          8.5004
  23379064.3834   -1779668.13046  -1352238.76445                  23379070.3014
        12.2504          7.5004
  23299794.1954    1626649.38046   1267516.81745                  23299799.7854
        13.0004          8.0004
  24065277.9304    3210687.98244   2485470.81543                  24065288.2114
         7.0004          2.5004
 00  5  5 14 56 30.0000000  0  7G 2G 4G 7G 8G 9G26G27
  21326772.0164     832485.43147    648688.54847                  21326777.3364
        25.2504         34.2504
  22554610.2034   -2034051.58646  -1573723.24745                  22554616.4384
        15.0004         10.2504
  20600872.4454     784038.15947    608468.71747                  20600877.1334
        25.7504         36.0004
  22961826.5944    3043869.80246   2356817.02445                  22961833.4884
        13.2504          8.2504
  23372590.5164   -1813687.61646  -1378747.43345                  23372596.2114
        12.2504          7.0004
  23306763.6254    1663273.82746   1296055.28345                  23306769.2624
        13.2504          7.7504
  24078162.6254    3278395.87244   2538230.10043                  24078171.6644
         7.2504          2.7504
 00  5  5 14 56 45.0000000  0  7G 2G 4G 7G 8G 9G26G27
  21330370.3364     851395.56047    663423.68647                  21330375.5274
        25.2504         33.0004
  22547270.3284   -2072623.52246  -1603779.27245                  22547276.3284
        15.0004         10.2504
  20604481.2114     803002.30547    623245.96347                  20604485.6994
        25.2504         34.5004
  22973913.3134    3107386.03246   2406310.12045                  22973919.8634
        13.2504          8.5004
  23366129.9224   -1847634.49545  -1405199.51845                  23366135.8524
        11.7504          7.2504
  23313752.8674    1700002.00146   1324674.59045                  23313758.7624
        13.2504          8.5004
  24091057.2114    3346156.14844   2591030.20343                  24091067.8094
         7.2504          3.0004
 00  5  5 14 57  0.0000000  0  7G 2G 4G 7G 8G 9G26G27
  21333980.9694     870368.14747    678207.49147                  21333986.3594
        25.0004         32.2504
  22539942.6564   -2111130.89946  -1633784.98045                  22539948.7154
        15.5004         10.5004
  20608108.5474     822064.45647    638099.56847                  20608113.2464
        25.2504         34.7504
  22986013.2734    3170971.22546   2455856.91945                  22986020.1454
        13.7504          8.5004
  23359684.0394   -1881509.98945  -1431595.98945                  23359690.1214
        11.7504          6.7504
  23320761.1724    1736832.08546   1353373.29445                  23320766.8554
        13.0004          8.0004
  24103960.8914    3413967.02844   2643869.75243                  24103970.9024
         7.0004          2.7504
 00  5  5 14 57 15.0000000  0  7G 2G 4G 7G 8G 9G26G27
  21337602.4614     889399.87647    693037.38647                  21337607.9454
        24.5004         32.7504
  22532626.5634   -2149576.73746  -1663742.74445                  22532632.3874
        15.5004         10.2504
  20611753.9694     841221.03447    653026.75747                  20611758.6914
        25.5004         34.7504
  22998125.5784    3234621.64746   2505454.56945                  22998132.1764
        13.0004          8.0004
  23353250.8524   -1915317.32145  -1457939.34745                  23353256.7464
        11.7504          7.2504
  23327788.5234    1773760.14846   1382148.36245                  23327794.3484
        12.7504          8.5004
  24116874.4224    3481824.66145   2696745.75143                  24116884.5864
         7.5004          2.7504
 00  5  5 14 57 30.0000000  0  7G 2G 4G 7G 8G 9G26G27
  21341235.7664     908493.24547    707915.31247                  21341241.3674
        24.5004         32.2504
  22525322.6094   -2187958.22946  -1693650.37645                  22525328.9494
        15.0004         10.5004
  20615417.8204     860474.30647    668029.29747                  20615422.5204
        25.5004         34.7504
  23010250.6334    3298339.28446   2555104.58745                  23010257.3834
        13.2504          7.7504
  23346830.8594   -1949053.64345  -1484227.35945                  23346836.9884
        11.5004          7.0004
  23334834.8364    1810788.48846   1411001.55345                  23334840.1334
        12.5004          8.0004
  24129796.2584    3549731.29344   2749659.86843                  24129804.9924
         6.2504          2.5004
 00  5  5 14 57 45.0000000  0  7G 2G 4G 7G 8G 9G26G27
  21344881.4304     927651.18247    722843.54747                  21344887.1024
        24.5004         32.5004
  22518031.5634   -2226272.15546  -1723505.34545                  22518037.5164
        15.5004         10.0004
  20619100.5784     879826.95847    683109.27247                  20619105.1954
        25.7504         34.5004
  23022389.4614    3362126.85746   2604809.09745                  23022396.2814
        13.2504          7.7504
  23340425.4224   -1982715.82046  -1510457.60845                  23340431.1884
        12.0004          7.7504
  23341900.3444    1847919.51045   1439934.77345                  23341905.9104
        11.7504          7.7504
  24142729.3594    3617689.46745   2802614.16743                  24142739.6644
         7.5004          2.7504
 00  5  5 14 58  0.0000000  0  7G 2G 4G 7G 8G 9G26G27
  21348538.1094     946867.59547    737817.34547                  21348543.6644
        24.5004         32.5004
  22510752.4774   -2264524.18546  -1753312.09945                  22510758.5474
        15.0004         10.0004
  20622800.7814     899272.55547    698261.66947                  20622805.3754
        25.7504         35.0004
  23034539.7584    3425977.89146   2654563.05745                  23034546.2734
        13.2504          8.0004
  23334032.5394   -2016309.72445  -1536634.66845                  23334038.3634
        11.7504          7.2504
  23348984.6174    1885146.75245   1468942.97145                  23348990.5124
        11.5004          7.0004
  24155669.7734    3685692.64444   2855603.58243                  24155680.8404
         7.0004          3.0004
 00  5  5 14 58 15.0000000  0  7G 2G 4G 7G 8G 9G26G27
  21352206.6254     966144.64747    752838.39847                  21352212.2854
        24.7504         32.7504
  22503485.8444   -2302712.04846  -1783068.85045                  22503492.1134
        15.5004         10.2504
  20626519.3054     918813.00747    713487.98347                  20626523.8284
        25.5004         35.2504
  23046702.3984    3489894.21146   2704367.90445                  23046708.7734
        12.5004          8.0004
  23327653.4534   -2049833.05246  -1562756.71645                  23327659.3134
        12.0004          7.5004
  23356087.0164    1922471.94145   1498027.48445                  23356092.8984
        11.0004          6.7504
  24168619.4304    3753742.59245   2908629.40943                  24168628.7854
         7.5004          3.0004
 00  5  5 14 58 30.0000000  0  7G 2G 4G 7G 8G 9G26G27
  21355886.1334     985480.13947    767904.98847                  21355891.8164
        24.5004         32.2504
  22496230.5784   -2340837.67546  -1812777.10945                  22496236.4734
        15.2504         10.2504
  20630255.4304     938445.75447    728786.21147                  20630259.9774
        25.2504         35.0004
  23058877.6954    3553873.09546   2754221.47345                  23058883.8484
        13.5004          8.0004
  23321286.5004   -2083287.90645  -1588825.43345                  23321292.5124
        11.7504          7.2504
  23363208.1644    1959892.33745   1527186.18345                  23363213.7194
        11.2504          7.2504
  24181577.0944    3821836.69244   2961689.61643                  24181587.3524
         7.2504          3.2504
 00  5  5 14 58 45.0000000  0  7G 2G 4G 7G 8G 9G26G27
  21359576.2664    1004872.03747    783015.52647                  21359582.0204
        24.5004         33.0004
  22488987.0704   -2378902.64246  -1842438.09245                  22488993.2704
        15.7504         10.7504
  20634008.4924     958168.52347    744154.58647                  20634013.0274
        25.7504         34.7504
  23071063.8284    3617912.20846   2804122.01745                  23071070.9924
        12.7504          7.7504
  23314933.6414   -2116676.10246  -1614842.15745                  23314940.1914
        12.2504          7.5004
  23370346.8284    1997405.65445   1556417.28745                  23370352.1954
        11.7504          7.0004
  24194542.8984    3889972.54945   3014782.36444                  24194552.9694
         7.7504          3.7504
 00  5  5 14 59  0.0000000  0  7G 2G 4G 7G 8G 9G26G27
  21363277.3134    1024321.36247    798170.81747                  21363283.0204
        24.5004         32.5004
  22481755.6724   -2416905.79646  -1872050.91445                  22481761.8134
        15.7504         10.7504
  20637779.0234     977982.08447    759593.70947                  20637783.5234
        25.7504         35.0004
  23083261.7114    3682012.33946   2854070.06645                  23083268.8524
        13.0004          7.7504
  23308593.0234   -2149996.36546  -1640806.01245                  23308598.5904
        12.2504          7.5004
  23377503.3444    2035012.34746   1585721.15545                  23377509.2384
        12.2504          7.2504
  24207517.2664    3958150.70945   3067908.16744                  24207526.2464
         8.0004          3.7504
 00  5  5 14 59 15.0000000  0  7G 2G 4G 7G 8G 9G26G27
  21366989.5784    1043829.21847    813371.71247                  21366995.3324
        24.5004         32.7504
  22474535.6644   -2454845.76546  -1901614.50045                  22474541.7464
        15.7504         11.0004
  20641566.7814     997887.23247    775104.19447                  20641571.2464
        25.7504         35.0004
  23095471.1174    3746174.07746   2904066.12745                  23095477.5984
        12.5004          7.5004
  23302265.1644   -2183247.31446  -1666715.83245                  23302270.5204
        12.5004          7.7504
  23384677.3914    2072713.16146   1615098.34145                  23384682.9694
        12.7504          7.2504
  24220498.9774    4026371.88445   3121067.38443                  24220508.8014
         7.5004          3.2504
 00  5  5 14 59 30.0000000  0  7G 2G 4G 7G 8G 9G26G27
  21370712.7894    1063394.66647    828617.48747                  21370718.4964
        24.5004         32.5004
  22467327.7734   -2492722.99146  -1931129.19545                  22467334.0084
        16.2504         11.0004
  20645371.9614    1017882.76247    790685.11147                  20645376.4264
        25.5004         34.7504
  23107692.5234    3810396.17646   2954109.24745                  23107698.7464
        13.0004          7.7504
  23295950.8444   -2216429.79146  -1692572.28245                  23295956.1644
        12.2504          7.5004
  23391869.6884    2110506.79846   1644547.87845                  23391875.1604
        12.5004          7.2504
  24233488.6414    4094634.80845   3174259.21644                  24233498.2074
         7.7504          3.7504
 00  5  5 14 59 45.0000000  0  7G 2G 4G 7G 8G 9G26G27
  21374446.3204    1083014.22347    843905.42747                  21374451.9694
        24.5004         32.7504
  22460131.0554   -2530540.84846  -1960597.63245                  22460137.2304
        16.2504         11.0004
  20649193.3594    1037965.00347    806333.59547                  20649197.8954
        25.7504         35.0004
  23119924.2034    3874674.89946   3004196.47245                  23119931.0744
        12.5004          8.0004
  23289648.9844   -2249547.02146  -1718377.89645                  23289654.9734
        12.2504          7.7504
  23399078.6884    2148389.32346   1674066.66145                  23399084.7934
        12.2504          7.0004
  24246486.1804    4162935.53645   3227480.44643                  24246495.5594
         7.5004          3.2504
 00  5  5 15  0  0.0000000  0  7G 2G 4G 7G 8G 9G26G27
  21378190.1254    1102687.75847    859235.42547                  21378195.8204
        25.0004         33.2504
  22452946.1414   -2568299.08646  -1990019.62145                  22452952.2234
        16.5004         11.7504
  20653031.3444    1058133.54147    822049.32247                  20653035.8444
        25.7504         35.0004
  23132167.1644    3939009.67246   3054327.34845                  23132174.3634
        13.0004          7.5004
  23283359.2194   -2282598.89146  -1744132.59845                  23283365.2774
        12.2504          7.7504
  23406304.1334    2186360.24346   1703654.33245                  23406310.4494
        12.0004          7.2504
  24259490.2034    4231273.59044   3280730.75144                  24259499.7934
         7.0004          3.5004
 00  5  5 15  0 15.0000000  0  7G 2G 4G 7G 8G 9G26G27
  21381944.0784    1122414.36747    874606.78247                  21381949.4924
        25.0004         33.7504
  22445772.2584   -2605998.35246  -2019395.64045                  22445778.3874
        16.5004         11.7504
  20656885.4534    1078387.04647    837831.25847                  20656890.0234
        25.2504         34.2504
  23144419.9224    4003399.23146   3104500.96645                  23144426.3914
        13.0004          8.0004
  23277081.8914   -2315586.14646  -1769836.92345                  23277087.8094
        12.2504          7.5004
  23413546.0474    2224418.05345   1733309.70845                  23413552.0004
        11.2504          6.7504
  24272501.0474    4299647.65744   3334009.17143                  24272511.7734
         6.2504          3.0004
 00  5  5 15  0 30.0000000  0  7G 2G 4G 7G 8G 9G26G27
  21385707.7814    1142193.56747    890019.11647                  21385713.4184
        25.0004         33.2504
  22438609.6174   -2643638.71846  -2048725.77745                  22438615.3954
        17.2504         11.5004
  20660755.5864    1098724.88247    853678.90247                  20660760.1454
        25.2504         34.2504
  23156683.1884    4067842.67846   3154716.53345                  23156689.6804
        12.7504          7.2504
  23270817.4224   -2348508.96746  -1795491.06145                  23270822.7304
        12.5004          8.2504
  23420804.6414    2262562.10045   1763032.28445                  23420810.4654
        11.0004          7.0004
  24285519.2034    4368056.86843   3387314.96643                  24285528.2074
         6.0004          3.2504
 00  5  5 15  0 45.0000000  0  7G 2G 4G 7G 8G 9G26G27
  21389482.6094    1162028.86447    905475.16347                  21389488.2464
        25.0004         33.7504
  22431458.7504   -2681216.39046  -2078007.05546                  22431464.8094
        17.2504         12.2504
  20664642.4304    1119150.34047    869594.83047                  20664647.1294
        25.2504         34.5004
  23168957.4534    4132343.35646   3204976.70345                  23168963.7814
        12.7504          7.7504
  23264565.0234   -2381363.68046  -1821092.12845                  23264570.9414
        12.2504          7.5004
  23428080.1954    2300795.31445   1792824.34445                  23428086.4774
        11.2504          7.0004
  24298544.5394    4436504.44643   3440650.62243                  24298557.3874
         5.2504          2.7504
 00  5  5 15  1  0.0000000  0  7G 2G 4G 7G 8G 9G26G27
  21393267.2114    1181917.29147    920972.61047                  21393272.9304
        25.0004         34.0004
  22424319.2734   -2718734.15246  -2107241.64846                  22424325.4144
        17.0004         12.0004
  20668545.3054    1139660.10647    885576.45047                  20668549.9574
        25.2504         34.2504
  23181241.9144    4196897.70146   3255278.69245                  23181249.0664
        12.7504          7.2504
  23258325.3284   -2414153.11745  -1846642.33145                  23258331.0824
        11.7504          7.5004
  23435372.1884    2339114.37045   1822683.29645                  23435377.3204
        11.0004          7.0004
  24311576.5004    4504987.00744   3494013.56843                  24311586.5354
         6.5004          2.7504
 00  5  5 15  1 15.0000000  0  7G 2G 4G 7G 8G 9G26G27
  21397062.0394    1201860.19547    936512.50947                  21397067.6994
        25.2504         33.7504
  22417191.5864   -2756190.28646  -2136428.22346                  22417197.3754
        17.2504         12.2504
  20672464.5084    1160255.15847    901624.52947                  20672469.3014
        25.0004         34.5004
  23193536.7584    4261506.83046   3305623.37745                  23193543.6884
        12.7504          6.5004
  23252098.4304   -2446875.60645  -1872140.35545                  23252104.4064
        11.7504          7.5004
  23442680.9064    2377520.11945   1852609.80545                  23442686.9654
        11.2504          6.5004
  24324615.2344    4573505.39944   3547404.46843                  24324624.7664
         6.2504          2.7504
 00  5  5 15  1 30.0000000  0  7G 2G 4G 7G 8G 9G26G27
  21400866.7584    1221852.86747    952091.18247                  21400872.3364
        25.2504         33.7504
  22410074.5474   -2793589.27246  -2165570.26346                  22410080.7234
        17.0004         12.5004
  20676399.0084    1180930.79547    917735.39547                  20676403.6954
        25.2504         34.2504
  23205840.9614    4326165.69746   3356006.84145                  23205848.6054
        12.2504          7.5004
  23245883.5084   -2479535.68046  -1897589.75845                  23245889.4964
        12.2504          7.5004
  23450004.4304    2416007.57945   1882599.98245                  23450010.6884
        11.0004          6.5004
  24337659.5704    4642054.62943   3600819.30443                  24337671.3054
         6.0004          2.5004
 00  5  5 15  1 45.0000000  0  7G 2G 4G 7G 8G 9G26G27
  21404681.3284    1241898.62647    967711.22847                  21404686.9654
        25.2504         33.7504
  22402969.6254   -2830927.51446  -2194664.96746                  22402975.7664
        17.0004         12.5004
  20680349.2504    1201689.75247    933911.19147                  20680354.1024
        25.2504         34.0004
  23218155.2974    4390876.99146   3406431.11145                  23218163.1294
        12.5004          7.2504
  23239681.1254   -2512129.93246  -1922987.86145                  23239687.0084
        12.2504          7.7504
  23457344.7814    2454579.47545   1912655.94245                  23457350.3364
        11.5004          6.7504
  24350710.4774    4710637.51743   3654260.48742                  24350722.4694
         5.2504          2.2504
 00  5  5 15  2  0.0000000  0  7G 2G 4G 7G 8G 9G26G27
  21408505.8984    1261996.62547    983371.97247                  21408511.5354
        25.2504         33.2504
  22395875.4694   -2868205.71046  -2223712.89946                  22395881.8204
        16.5004         12.5004
  20684315.2814    1222530.79247    950150.94147                  20684320.0394
        25.2504         34.5004
  23230479.1884    4455639.52146   3456895.33245                  23230487.0784
        12.0004          6.7504
  23233491.2894   -2544658.97146  -1948335.15845                  23233496.8324
        12.2504          7.7504
  23464700.5554    2493234.50445   1942776.68145                  23464706.2854
        11.7504          7.5004
  24363767.2584    4779252.74943   3707726.80442                  24363777.2934
         5.5004          2.2504
 00  5  5 15  2 15.0000000  0  7G 2G 4G 7G 8G 9G26G27
  21412340.8834    1282149.97847    999075.85747                  21412346.4844
        25.5004         33.7504
  22388794.0164   -2905420.32846  -2252711.25446                  22388800.3094
        16.5004         12.5004
  20688297.3444    1243456.92347    966457.00247                  20688302.0434
        25.0004         34.5004
  23242813.3984    4520456.18746   3507401.74445                  23242820.4224
        12.2504          6.7504
  23227313.9304   -2577119.43546  -1973629.01145                  23227319.5904
        12.0004          7.7504
  23472072.9064    2531975.38746   1972964.32045                  23472078.6954
        12.0004          6.7504
  24376831.4774    4847903.12643   3761220.50242                  24376840.0944
         5.5004          2.2504
 00  5  5 15  2 30.0000000  0  7G 2G 4G 7G 8G 9G26G27
  21416186.6954    1302359.35847   1014823.39647                  21416192.2504
        25.5004         33.5004
  22381724.2274   -2942570.21746  -2281659.20346                  22381730.4614
        16.2504         12.5004
  20692295.6724    1264468.66547    982829.77147                  20692300.3484
        25.5004         34.2504
  23255157.9224    4585327.28845   3557950.57245                  23255165.3204
        11.5004          6.5004
  23221149.9844   -2609510.42345  -1998868.74445                  23221155.0704
        11.7504          7.7504
  23479461.8364    2570802.44046   2003219.10145                  23479467.3204
        12.2504          7.0004
  24389902.5704    4916588.99143   3814741.86042                  24389910.4144
         6.0004          2.2504
 00  5  5 15  2 45.0000000  0  7G 2G 4G 7G 8G 9G26G27
  21420041.9384    1322618.33347   1030609.57747                  21420047.6684
        25.5004         33.7504
  22374665.8284   -2979661.76646  -2310561.68246                  22374671.8754
        16.5004         12.2504
  20696309.2114    1285559.16147    999263.90147                  20696313.8164
        25.2504         34.2504
  23267511.7274    4650246.00746   3608536.48845                  23267518.8914
        12.2504          6.7504
  23214998.1564   -2641838.12345  -2024059.15545                  23215004.0044
        11.5004          7.5004
  23486865.3754    2609708.80846   2033535.69745                  23486871.0824
        12.0004          6.5004
  24402977.5394    4985303.50543   3868285.53443                  24402988.5824
         6.0004          2.7504
 00  5  5 15  3  0.0000000  0  7G 2G 4G 7G 8G 9G26G27
  21423906.6564    1342927.45347   1046434.83747                  21423912.3634
        25.2504         33.7504
  22367619.3594   -3016693.97446  -2339417.92646                  22367625.3834
        16.2504         12.2504
  20700337.6804    1306728.71147   1015759.63947                  20700342.1804
        25.0004         34.0004
  23279874.4454    4715212.45846   3659159.61145                  23279881.7274
        12.2504          7.0004
  23208858.6024   -2674101.91545  -2049199.74945                  23208863.8524
        11.5004          8.2504
  23494283.8754    2648694.58045   2063914.15545                  23494289.0784
        11.5004          6.2504
  24416059.8134    5054046.86444   3921851.68143                  24416066.6724
         6.5004          2.7504
 00  5  5 15  3 15.0000000  0  7G 2G 4G 7G 8G 9G26G27
  21427781.1024    1363288.52147   1062300.57647                  21427786.9384
        25.2504         33.7504
  22360583.9924   -3053664.93046  -2368226.43846                  22360590.3794
        16.7504         12.7504
  20704381.4384    1327978.79147   1032318.12247                  20704385.8554
        25.0004         34.0004
  23292246.6644    4780228.29145   3709821.18945                  23292254.0864
        11.7504          7.0004
  23202731.6414   -2706299.78645  -2074289.00345                  23202737.2424
        11.2504          8.0004
  23501717.6024    2687761.05445   2094355.50845                  23501723.3794
        10.7504          6.2504
  24429147.9224    5122820.36244   3975441.29943                  24429158.1804
         6.5004          3.0004
 00  5  5 15  3 30.0000000  0  7G 2G 4G 7G 8G 9G26G27
  21431665.9924    1383703.18247   1078208.06947                  21431671.8524
        25.2504         33.5004
  22353560.7664   -3090572.57046  -2396985.61146                  22353566.6724
        16.7504         12.7504
  20708440.7894    1349310.77047   1048940.42247                  20708445.3014
        25.2504         34.0004
  23304628.2504    4845294.57646   3760522.10845                  23304635.5434
        12.0004          6.5004
  23196617.4614   -2738429.81245  -2099325.37545                  23196623.3914
        11.5004          7.7504
  23509167.5234    2726909.52745   2124860.74745                  23509174.0634
        10.2504          5.7504
  24442241.2584    5191625.25444   4029055.38643                  24442251.4694
         6.7504          2.7504
 00  5  5 15  3 45.0000000  0  7G 2G 4G 7G 8G 9G26G27
  21435561.1174    1404171.36347   1094157.27047                  21435566.9884
        25.5004         33.2504
  22346549.2114   -3127416.77746  -2425695.35846                  22346555.4924
        16.7504         12.7504
  20712515.5784    1370724.34647   1065626.30247                  20712520.1844
        24.7504         33.7504
  23317019.5634    4910410.83546   3811261.97745                  23317026.7854
        12.2504          7.2504
  23190516.7664   -2770491.86645  -2124308.77645                  23190522.2034
        11.5004          7.7504
  23516632.9144    2766139.42745   2155429.43645                  23516639.0434
        10.0004          5.7504
  24455339.7424    5260461.07444   4082693.61043                  24455349.7074
         7.2504          2.7504
 00  5  5 15  4  0.0000000  0  7G 2G 4G 7G 8G 9G26G27
  21439465.1414    1424687.94047   1110144.18547                  21439471.0594
        25.2504         33.2504
  22339549.3984   -3164202.31146  -2454359.38046                  22339555.5984
        17.0004         13.0004
  20716605.0474    1392214.08347   1082371.53547                  20716609.7814
        24.5004         34.0004
  23329419.5704    4975571.66546   3862036.53145                  23329426.9694
        12.5004          7.5004
  23184426.9534   -2802490.81145  -2149243.02345                  23184432.5904
        11.5004          8.0004
  23524112.4924    2805445.21645   2186057.25245                  23524118.4574
        10.2504          5.7504
  24468443.5634    5329322.33244   4136351.66843                  24468453.7854
         7.0004          3.0004
 00  5  5 15  4 15.0000000  0  7G 2G 4G 7G 8G 9G26G27
  21443378.8834    1445255.11947   1126170.52847                  21443384.6604
        25.5004         33.7504
  22332560.6564   -3200926.68446  -2482975.74646                  22332566.7034
        17.2504         13.2504
  20720709.1644    1413781.93247   1099177.62647                  20720713.9694
        24.7504         33.7504
  23341827.8674    5040778.92945   3912847.27945                  23341835.2664
        11.7504          7.0004
  23178350.1804   -2834424.23345  -2174126.19845                  23178356.0514
        11.5004          8.5004
  23531607.1334    2844828.74045   2216745.67145                  23531613.1914
        10.7504          6.0004
  24481552.7664    5398210.90644   4190031.01943                  24481561.3134
         6.7504          2.5004
 00  5  5 15  4 30.0000000  0  7G 2G 4G 7G 8G 9G26G27
  21447302.4064    1465873.47347   1142236.74547                  21447308.2544
        25.0004         33.2504
  22325584.4384   -3237588.99846  -2511543.75946                  22325590.4494
        17.5004         13.2504
  20724828.2974    1435428.26347   1116044.87447                  20724833.0434
        25.0004         34.0004
  23354245.1484    5106032.88546   3963694.42445                  23354252.7114
        12.0004          7.0004
  23172286.5864   -2866291.40546  -2198957.74445                  23172292.1994
        12.0004          8.7504
  23539116.4844    2884290.17445   2247494.76445                  23539122.1214
        11.0004          6.5004
  24494667.1414    5467126.91244   4243731.65943                  24494678.9104
         7.0004          3.0004
 00  5  5 15  4 45.0000000  0  7G 2G 4G 7G 8G 9G26G27
  21451235.9774    1486543.66647   1158343.35847                  21451241.9654
        25.0004         32.7504
  22318619.6174   -3274188.30246  -2540062.65946                  22318625.4654
        17.2504         13.2504
  20728962.7034    1457153.32647   1132973.47447                  20728967.7304
        24.5004         34.0004
  23366671.9924    5171333.76546   4014578.12945                  23366679.3554
        12.2504          7.2504
  23166234.8204   -2898091.42345  -2223736.97945                  23166240.2344
        11.7504          8.7504
  23546640.9454    2923829.70145   2278304.72645                  23546647.4384
        11.2504          6.2504
  24507786.2504    5536070.58144   4297453.90943                  24507796.8014
         6.7504          2.5004
 00  5  5 15  5  0.0000000  0  7G 2G 4G 7G 8G 9G26G27
  21455178.7814    1507262.79947   1174488.11047                  21455184.6764
        25.2504         32.5004
  22311666.5704   -3310727.21546  -2568534.51646                  22311672.8054
        17.2504         13.2504
  20733111.1174    1478953.93647   1149960.94247                  20733116.1214
        24.7504         34.2504
  23379106.6334    5236678.36645   4065495.89945                  23379114.5354
        11.5004          6.7504
  23160195.8364   -2929827.02445  -2248466.00745                  23160201.3914
        11.7504          8.7504
  23554179.7194    2963443.97045   2309172.93845                  23554185.6844
        11.7504          6.2504
  24520910.9614    5605038.67244   4351195.19543                  24520920.5394
         7.0004          3.2504
 00  5  5 15  5 15.0000000  0  7G 2G 4G 7G 8G 9G26G27
  21459131.4694    1528035.46547   1190674.56547                  21459137.3874
        25.2504         33.2504
  22304725.5634   -3347200.97046  -2596955.58346                  22304731.9144
        17.0004         13.7504
  20737274.9924    1500834.43447   1167010.65747                  20737279.7274
        25.0004         34.5004
  23391550.2114    5302070.75845   4116450.90045                  23391558.4064
        11.5004          7.0004
  23154170.0944   -2961493.45746  -2273141.15045                  23154175.8134
        12.5004          9.2504
  23561732.3984    3003137.08045   2340102.56745                  23561738.5164
        11.5004          7.0004
  24534039.1804    5674035.32544   4404958.69043                  24534049.1454
         6.2504          2.5004
 00  5  5 15  5 30.0000000  0  6G 2G 4G 7G 8G 9G26
  21463094.6564    1548861.02447   1206902.24447                  21463100.5984
        25.0004         32.5004
  22297797.1254   -3383609.86846  -2625326.12446                  22297803.2194
        17.0004         13.2504
  20741453.6724    1522793.83647   1184121.85747                  20741458.5704
        25.0004         34.5004
  23404003.5474    5367509.87345   4167442.31545                  23404011.9184
        11.5004          7.2504
  23148156.9224   -2993091.14646  -2297762.71345                  23148162.6054
        12.5004          9.2504
  23569300.8054    3042908.00845   2371092.85045                  23569306.2664
        11.5004          6.7504
 00  5  5 15  5 45.0000000  0  6G 2G 4G 7G 8G 9G26
  21467067.2274    1569737.65047   1223169.71447                  21467073.1914
        25.0004         32.5004
  22290880.9304   -3419955.41046  -2653647.29046                  22290887.1644
        16.7504         13.2504
  20745647.0164    1544830.10347   1201292.95547                  20745651.8324
        25.0004         34.5004
  23416464.7584    5432993.67845   4218468.55845                  23416473.1884
        11.2504          7.0004
  23142157.3674   -3024621.63546  -2322331.92245                  23142162.8874
        12.5004          9.0004
  23576883.3674    3082754.42645   2402141.92845                  23576888.9224
        11.2504          6.2504
 00  5  5 15  6  0.0000000  0  6G 2G 4G 7G 8G 9G26
  21471049.8054    1590665.40347   1239477.02247                  21471055.6884
        25.0004         32.7504
  22283976.8054   -3456237.23046  -2681918.80946                  22283982.8404
        17.0004         13.5004
  20749855.0944    1566942.93947   1218523.71447                  20749859.9574
        25.0004         34.5004
  23428934.1254    5498521.76545   4269529.31545                  23428943.3524
        10.5004          6.7504
  23136169.7664   -3056084.65546  -2346848.54445                  23136175.5554
        12.5004          9.2504
  23584480.3984    3122676.03345   2433249.61545                  23584486.5394
        11.0004          6.5004
 00  5  5 15  6 15.0000000  0  6G 2G 4G 7G 8G 9G26
  21475042.2974    1611645.22147   1255824.90047                  21475048.1914
        25.0004         33.0004
  22277085.0164   -3492454.12146  -2710139.73546                  22277090.9694
        17.2504         13.2504
  20754077.7734    1589133.11647   1235814.74047                  20754082.5784
        25.0004         34.0004
  23441412.3754    5564094.67345   4320624.96245                  23441421.6604
        11.0004          6.5004
  23130195.6644   -3087479.11346  -2371311.77145                  23130201.0784
        12.5004          9.2504
  23592091.3674    3162673.35545   2464416.29445                  23592097.5904
        10.5004          5.7504
 00  5  5 15  6 30.0000000  0  6G 2G 4G 7G 8G 9G26
  21479044.1024    1632675.45847   1272212.06647                  21479049.9144
        25.0004         32.7504
  22270205.1644   -3528607.42746  -2738311.09646                  22270211.0354
        17.5004         13.7504
  20758314.8674    1611398.62847   1253164.46547                  20758319.6604
        25.0004         34.5004
  23453898.9384    5629710.45345   4371754.07145                  23453907.6844
        11.0004          7.0004
  23124234.0234   -3118806.42046  -2395722.63745                  23124240.1994
        12.2504          8.7504
  23599716.4924    3202744.25445   2495640.30445                  23599722.1644
        10.2504          5.7504
 00  5  5 15  6 45.0000000  0  6G 2G 4G 7G 8G 9G26
  21483055.4924    1653755.32147   1288637.90347                  21483061.4924
        25.0004         32.7504
  22263337.3284   -3564697.70546  -2766433.37046                  22263343.4344
        17.7504         14.0004
  20762565.8134    1633738.39647   1270572.05447                  20762570.7234
        25.0004         34.2504
  23466393.1564    5695367.99845   4422915.70345                  23466401.7034
        10.5004          6.5004
  23118285.3984   -3150067.10346  -2420081.60545                  23118290.8484
        12.5004          9.0004
  23607355.7194    3242887.52745   2526920.71545                  23607361.6484
        10.0004          5.5004
 00  5  5 15  7  0.0000000  0  6G 2G 4G 7G 8G 9G26
  21487075.9454    1674883.04347   1305101.03447                  21487081.8524
        25.0004         32.7504
  22256481.4224   -3600726.47346  -2794507.69446                  22256487.1644
        18.0004         14.0004
  20766830.7114    1656150.36747   1288035.90547                  20766835.4224
        25.2504         34.5004
  23478894.8054    5761065.15745   4474108.17845                  23478903.6684
        10.5004          7.0004
  23112349.1334   -3181262.82145  -2444389.96345                  23112354.7344
        11.7504          8.2504
  23615008.0634    3283100.92745   2558255.75745                  23615014.4844
        10.2504          5.7504
 00  5  5 15  7 15.0000000  0  6G 2G 4G 7G 8G 9G26
  21491106.4844    1696062.34647   1321604.36247                  21491112.4614
        25.2504         33.2504
  22249637.6334   -3636689.62746  -2822530.88946                  22249643.5984
        17.7504         14.0004
  20771110.0944    1678637.93747   1305558.66647                  20771114.8634
        25.5004         35.2504
  23491404.8984    5826805.16045   4525334.07245                  23491413.3164
        10.5004          6.7504
  23106425.9224   -3212389.64645  -2468644.61845                  23106431.3484
        11.7504          8.2504
  23622674.5704    3323387.83745   2589648.09945                  23622680.9344
        10.5004          6.2504
 00  5  5 15  7 30.0000000  0  6G 2G 4G 7G 8G 9G26
  21495146.3204    1717292.34347   1338147.18347                  21495152.2854
        25.2504         32.5004
  22242806.1724   -3672587.82246  -2850503.48046                  22242812.2424
        17.7504         13.5004
  20775403.5704    1701200.01047   1323139.47947                  20775408.3874
        25.2504         35.2504
  23503922.9304    5892586.75445   4576592.36145                  23503930.6564
        11.0004          6.0004
  23100515.7814   -3243448.27345  -2492846.14345                  23100521.0554
        11.7504          8.2504
  23630354.7194    3363746.77245   2621096.55645                  23630360.5314
        10.5004          6.2504
 00  5  5 15  7 45.0000000  0  6G 2G 4G 7G 8G 9G26
  21499196.1484    1738574.63547   1354730.75147                  21499202.1844
        25.0004         32.5004
  22235987.9694   -3708419.26946  -2878424.05146                  22235994.0044
        17.5004         13.7504
  20779711.3054    1723837.78647   1340779.28647                  20779716.1454
        25.2504         35.0004
  23516448.7734    5958411.21345   4627884.06745                  23516457.4384
        11.2504          6.5004
  23094618.6484   -3274436.85745  -2516993.08145                  23094623.6994
        11.7504          8.2504
  23638048.3364    3404178.92245   2652602.07045                  23638054.6524
        10.7504          6.2504
 00  5  5 15  8  0.0000000  0  6G 2G 4G 7G 8G 9G26
  21503256.0234    1759908.84347   1371354.77647                  21503261.8594
        25.2504         32.5004
  22229181.8914   -3744183.98246  -2906292.62446                  22229187.9614
        17.7504         13.7504
  20784033.5474    1746550.70047   1358477.63147                  20784038.4454
        25.2504         34.7504
  23528982.8834    6024277.77045   4679208.54345                  23528990.6094
        11.5004          6.5004
  23088735.0634   -3305355.73745  -2541085.71145                  23088740.3954
        11.5004          7.7504
  23645756.6954    3444683.52845   2684164.03745                  23645762.8134
        11.0004          6.7504
 00  5  5 15  8 15.0000000  0  6G 2G 4G 7G 8G 9G26
  21507325.7424    1781294.79147   1388019.11647                  21507331.6724
        25.0004         32.7504
  22222388.8754   -3779881.68446  -2934108.98046                  22222394.9344
        17.7504         13.7504
  20788369.9534    1769338.33647   1376234.21047                  20788374.9694
        25.0004         34.7504
  23541524.9844    6090186.02745   4730565.52545                  23541532.8284
        11.5004          6.7504
  23082864.7194   -3336204.70245  -2565123.84645                  23082870.0864
        11.7504          7.7504
  23653478.0704    3485260.09145   2715782.05545                  23653483.9414
        10.7504          6.5004
 00  5  5 15  8 30.0000000  0  6G 2G 4G 7G 8G 9G26
  21511405.4384    1802732.88447   1404724.09447                  21511411.3094
        25.2504         32.7504
  22215608.7274   -3815511.83746  -2961872.70346                  22215614.7034
        17.7504         13.7504
  20792720.2894    1792200.81947   1394049.10947                  20792725.3404
        24.7504         35.0004
  23554075.1564    6156135.91545   4781954.96445                  23554083.6094
        11.2504          6.5004
  23077007.8054   -3366983.12745  -2589107.03945                  23077013.0904
        11.7504          8.2504
  23661213.2504    3525908.47945   2747456.07045                  23661219.0514
        11.0004          6.7504
 00  5  5 15  8 45.0000000  0  6G 2G 4G 7G 8G 9G26
  21515494.4614    1824222.13047   1421468.93347                  21515500.2974
        25.2504         33.0004
  22208841.2344   -3851075.12546  -2989584.31246                  22208847.3634
        17.7504         14.0004
  20797085.0474    1815136.74547   1411921.23747                  20797090.1334
        24.7504         34.2504
  23566632.4384    6222126.02945   4833375.71245                  23566640.7854
        11.0004          6.5004
  23071163.7664   -3397691.90345  -2613035.94845                  23071169.6374
        11.7504          7.5004
  23668961.9614    3566627.23345   2779184.89245                  23668967.9494
        11.0004          7.0004
 00  5  5 15  9  0.0000000  0  6G 2G 4G 7G 8G 9G26
  21519593.6334    1845762.06447   1438253.26847                  21519599.6454
        25.2504         33.0004
  22202086.5164   -3886571.67546  -3017243.93546                  22202092.6454
        17.7504         14.2504
  20801463.3834    1838145.43747   1429850.06547                  20801468.4344
        25.0004         34.0004
  23579197.4614    6288155.51045   4884827.15845                  23579206.2194
        11.0004          6.2504
  23065333.5634   -3428331.17446  -2636910.69045                  23065339.1524
        12.2504          8.2504
  23676723.4144    3607415.42845   2810967.84645                  23676729.2734
        10.7504          6.5004
 00  5  5 15  9 15.0000000  0  6G 2G 4G 7G 8G 9G26
  21523702.1564    1867352.95247   1455077.30647                  21523708.0744
        25.2504         33.2504
  22195344.6564   -3922000.98846  -3044851.15746                  22195350.5514
        17.7504         14.0004
  20805855.5474    1861226.95547   1447835.63847                  20805860.5514
        24.5004         34.2504
  23591770.0084    6354224.41545   4936309.33545                  23591777.4654
        10.7504          5.7504
  23059516.6484   -3458900.34046  -2660730.82545                  23059522.4264
        12.5004          8.2504
  23684498.8364    3648272.98845   2842804.85745                  23684505.0704
        10.5004          6.0004
 00  5  5 15  9 30.0000000  0  6G 2G 4G 7G 8G 9G26
  21527820.2194    1888993.88247   1471940.33647                  21527826.2304
        25.0004         33.2504
  22188615.2814   -3957363.68646  -3072406.47746                  22188621.3524
        17.5004         14.2504
  20810261.5394    1884379.94647   1465876.90747                  20810266.4494
        25.0004         34.2504
  23604349.9304    6420331.34345   4987821.11945                  23604357.9144
        10.7504          5.7504
  23053712.4064   -3489400.31946  -2684497.04345                  23053718.3714
        12.5004          8.5004
  23692286.2274    3689198.44145   2874694.74745                  23692291.8404
        10.2504          5.5004
 00  5  5 15  9 45.0000000  0  6G 2G 4G 7G 8G 9G26
  21531948.5634    1910688.07447   1488844.87147                  21531954.4344
        25.2504         33.5004
  22181899.2034   -3992656.28246  -3099907.16446                  22181905.1454
        17.7504         14.7504
  20814681.5164    1907607.37747   1483976.17647                  20814686.3794
        25.0004         34.5004
  23616936.9224    6486479.17245   5039364.78645                  23616945.1054
        10.0004          5.7504
  23047922.3284   -3519827.53846  -2708206.54745                  23047927.5434
        13.2504          9.0004
  23700087.7814    3730194.63045   2906639.75745                  23700093.8164
        10.5004          5.7504
 00  5  5 15 10  0.0000000  0  6G 2G 4G 7G 8G 9G26
  21536086.5234    1932432.38047   1505788.45047                  21536092.5354
        25.2504         33.2504
  22175196.1884   -4027881.67146  -3127355.47646                  22175202.0824
        18.5004         14.7504
  20819115.3054    1930905.85447   1502130.80847                  20819120.1914
        25.0004         35.0004
  23629531.9224    6552664.26445   5090937.49045                  23629540.7624
        10.0004          5.5004
  23042145.8364   -3550185.06046  -2731861.77045                  23042151.1094
        13.7504          9.5004
  23707902.3364    3771257.87345   2938637.02945                  23707908.0554
        10.5004          5.7504
 00  5  5 15 10 15.0000000  0  6G 2G 4G 7G 8G 9G26
  21540234.1254    1954228.82247   1522772.66047                  21540239.9844
        25.2504         33.2504
  22168506.1884   -4063037.44946  -3154749.56046                  22168512.1054
        18.5004         15.0004
  20823562.7344    1954277.05247   1520342.10747                  20823567.7034
        25.0004         35.0004
  23642134.3834    6618888.22745   5142540.47445                  23642143.1884
        10.0004          5.7504
  23036382.3984   -3580470.62246  -2755460.89745                  23036388.1884
        13.7504          9.5004
  23715729.0394    3812389.91645   2970687.89745                  23715734.9224
        10.7504          5.7504
 00  5  5 15 10 30.0000000  0  6G 2G 4G 7G 8G 9G26
  21544391.5784    1976076.26247   1539796.61047                  21544397.5084
        25.2504         33.2504
  22161829.2034   -4098124.54646  -3182090.11146                  22161835.4144
        18.5004         15.0004
  20828023.5004    1977719.59247   1538608.99647                  20828028.5394
        24.7504         34.5004
  23654743.0944    6685149.80045   5194172.76645                  23654751.7114
         9.7504          5.2504
  23030632.9304   -3610685.18746  -2779004.70845                  23030638.6374
        14.2504         10.0004
  23723569.3984    3853589.01345   3002791.03445                  23723575.5274
        11.5004          6.0004
 00  5  5 15 10 45.0000000  0  6G 2G 4G 7G 8G 9G26
  21548559.1334    1997977.32147   1556862.33647                  21548565.0864
        24.5004         33.0004
  22155166.0704   -4133140.05346  -3209374.90046                  22155172.0354
        18.2504         14.7504
  20832498.6724    2001235.82247   1556933.30347                  20832503.7814
        24.5004         34.5004
  23667359.9534    6751450.90645   5245835.87045                  23667368.5234
         9.7504          5.5004
  23024897.5864   -3640825.93246  -2802491.00245                  23024903.4924
        14.5004         10.7504
  23731422.5164    3894857.42345   3034948.14545                  23731428.3754
        11.7504          6.2504
 00  5  5 15 11  0.0000000  0  6G 2G 4G 7G 8G 9G26
  21552736.9224    2019931.95247   1573969.81347                  21552742.8634
        24.2504         32.7504
  22148516.4384   -4168083.81446  -3236603.76446                  22148522.5084
        18.7504         14.5004
  20836987.5314    2024825.29247   1575314.68647                  20836992.6644
        24.5004         34.5004
  23679983.9614    6817791.34745   5297529.62745                  23679992.4614
         9.2504          5.5004
  23019175.7894   -3670892.75446  -2825919.69045                  23019181.3554
        15.0004         11.0004
  23739289.0704    3936194.53845   3067158.81545                  23739295.0354
        11.5004          6.0004
 00  5  5 15 11 15.0000000  0  6G 2G 4G 7G 8G 9G26
  21556924.9614    2041939.39747   1591118.43547                  21556930.9024
        24.2504         32.2504
  22141880.5314   -4202956.37346  -3263777.15646                  22141886.5664
        18.7504         14.7504
  20841490.2034    2048486.94947   1593752.31547                  20841495.3014
        25.0004         34.7504
  23692615.4144    6884169.75645   5349252.94345                  23692623.7384
         9.0004          5.2504
  23013468.4224   -3700886.24846  -2849291.24245                  23013473.9184
        15.5004         11.7504
  23747167.9774    3977599.23945   3099422.15345                  23747173.2974
        11.2504          6.2504
 00  5  5 15 11 30.0000000  0  6G 2G 4G 7G 8G 9G26
  21561122.8754    2063999.02447   1608307.72347                  21561128.8984
        24.0004         32.0004
  22135257.9384   -4237757.80146  -3290895.12446                  22135263.9494
        18.7504         15.2504
  20846006.4924    2072220.02347   1612245.59547                  20846011.4494
        24.7504         34.2504
  23705254.0634    6950585.31445   5401005.24045                  23705262.2344
         9.5004          5.2504
  23007774.8914   -3730806.77446  -2872605.93345                  23007780.2814
        15.5004         11.7504
  23755059.4694    4019070.44845   3131737.29745                  23755065.4104
        11.0004          6.0004
 00  5  5 15 11 45.0000000  0  6G 2G 4G 7G 8G 9G26
  21565330.0944    2086108.22947   1625535.64047                  21565336.0704
        24.2504         31.7504
  22128648.5474   -4272490.61046  -3317959.61446                  22128654.5704
        19.0004         14.7504
  20850536.0784    2096021.54447   1630792.21147                  20850541.0594
        24.7504         34.5004
  23717899.3674    7017035.05145   5452784.15045                  23717907.8554
         9.5004          5.2504
  23002094.2194   -3760656.67246  -2895865.59146                  23002100.0784
        15.0004         12.5004
  23762963.5164    4060605.20345   3164102.00445                  23762969.6334
        11.0004          6.5004
 00  5  5 15 12  0.0000000  0  6G 2G 4G 7G 8G 9G26
  21569547.0234    2108269.22447   1642803.91947                  21569553.0004
        24.2504         31.2504
  22122052.4924   -4307152.20346  -3344968.62046                  22122058.4344
        19.0004         14.7504
  20855078.5314    2119893.45447   1649393.67647                  20855083.4414
        25.0004         34.2504
  23730551.4694    7083520.81145   5504591.11645                  23730560.3324
        10.2504          5.5004
  22996427.9774   -3790433.55846  -2919068.34946                  22996433.4964
        15.5004         12.0004
  23770879.9304    4102205.15145   3196517.47645                  23770886.0824
        11.0004          6.2504
 00  5  5 15 12 15.0000000  0  6G 2G 4G 7G 8G 9G26
  21573773.9064    2130480.97847   1660111.74547                  21573779.8484
        24.2504         31.7504
  22115470.0704   -4341743.54946  -3371922.88346                  22115476.0824
        19.0004         15.2504
  20859634.3754    2143834.41447   1668048.94147                  20859639.2034
        25.0004         34.7504
  23743210.1174    7150041.18945   5556425.07545                  23743218.5704
        10.2504          5.5004
  22990775.2194   -3820138.33646  -2942214.92246                  22990781.0204
        15.2504         12.2504
  23778807.7894    4143868.84545   3228982.63545                  23778814.0234
        10.2504          6.2504
 00  5  5 15 12 30.0000000  0  6G 2G 4G 7G 8G 9G26
  21578010.2814    2152743.00447   1677458.74147                  21578016.2464
        24.5004         32.2504
  22108900.7504   -4376264.62746  -3398822.39546                  22108906.7734
        19.5004         15.5004
  20864203.2814    2167843.66847   1686757.42547                  20864208.1454
        25.0004         34.5004
  23755874.4224    7216595.09045   5608285.17545                  23755882.5124
         9.7504          5.2504
  22985136.0634   -3849771.13746  -2965305.41746                  22985141.9694
        15.0004         12.0004
  23786748.2034    4185595.34645   3261496.73345                  23786754.4964
        10.0004          6.0004
 00  5  5 15 12 45.0000000  0  6G 2G 4G 7G 8G 9G26
  21582256.0234    2175054.98447   1694844.66847                  21582261.9774
        24.7504         32.2504
  22102345.0944   -4410715.42946  -3425667.14046                  22102351.1644
        19.5004         15.5004
  20868784.7734    2191920.62447   1705518.66147                  20868789.7424
        24.5004         34.7504
  23768546.1174    7283182.13745   5660171.06545                  23768553.7504
        10.0004          5.2504
  22979511.1254   -3879332.13346  -2988339.95045                  22979516.9384
        15.2504         11.7504
  23794700.5554    4227383.83345   3294059.12145                  23794706.8594
        10.2504          5.7504
 00  5  5 15 13  0.0000000  0  6G 2G 4G 7G 8G 9G26
  21586511.6644    2197417.96147   1712270.33547                  21586517.5474
        24.7504         32.5004
  22095802.8054   -4445094.93946  -3452456.34046                  22095808.7814
        19.7504         15.7504
  20873379.7274    2216065.94647   1724333.17247                  20873384.8244
        24.5004         34.5004
  23781223.2814    7349802.76945   5712083.13845                  23781231.5004
         9.7504          5.0004
  22973899.5944   -3908820.09046  -3011317.56745                  22973905.4884
        14.7504         11.5004
  23802664.6724    4269234.90545   3326670.27045                  23802670.5314
        10.2504          5.7504
 00  5  5 15 13 15.0000000  0  6G 2G 4G 7G 8G 9G26
  21590777.4224    2219833.83147   1729737.21347                  21590783.3984
        24.5004         32.5004
  22089274.6954   -4479400.80546  -3479188.15846                  22089280.6134
        19.5004         15.7504
  20877987.6024    2240281.30547   1743202.25747                  20877992.5124
        24.7504         34.5004
  23793907.9534    7416458.63945   5764022.66945                  23793916.7234
        10.0004          5.5004
  22968302.5944   -3938232.86846  -3034236.61045                  22968308.5004
        14.7504         11.5004
  23810640.4614    4311150.10645   3359331.40345                  23810646.5314
        10.2504          5.2504
 00  5  5 15 13 30.0000000  0  6G 2G 4G 7G 8G 9G26
  21595052.7424    2242301.05547   1747244.10847                  21595058.7544
        24.2504         32.5004
  22082760.2424   -4513634.14846  -3505863.44946                  22082766.3834
        19.7504         15.7504
  20882608.6954    2264564.84947   1762124.47347                  20882613.5824
        24.7504         34.5004
  23806598.5394    7483147.79245   5815988.15145                  23806606.6174
        10.5004          5.5004
  22962719.6094   -3967571.83446  -3057098.12045                  22962725.4104
        14.7504         11.5004
  23818629.1954    4353127.36845   3392040.87145                  23818635.3714
        10.5004          5.2504
 00  5  5 15 13 45.0000000  0  6G 2G 4G 7G 8G 9G26
  21599337.2664    2264815.34647   1764787.67147                  21599343.2664
        24.7504         32.5004
  22076258.7734   -4547799.17946  -3532485.53546                  22076264.7974
        19.0004         15.5004
  20887241.8204    2288911.99547   1781096.24347                  20887246.8014
        24.7504         35.0004
  23819294.1484    7549865.48645   5867975.85545                  23819301.8164
         9.7504          5.7504
  22957149.5784   -3996840.98946  -3079905.25145                  22957155.6604
        14.5004         11.2504
  23826628.1724    4395162.05445   3424795.09545                  23826634.0664
        11.0004          5.5004
 00  5  5 15 14  0.0000000  0  6G 2G 4G 7G 8G 9G26
  21603631.2194    2287380.39547   1782370.78547                  21603637.1724
        24.5004         32.5004
  22069771.2114   -4581891.83446  -3559051.20746                  22069777.2584
        19.5004         15.7504
  20891887.5314    2313326.20947   1800120.27647                  20891892.4774
        24.7504         34.7504
  23831996.6094    7616615.16945   5919988.47345                  23832005.5904
         9.5004          5.5004
  22951594.2034   -4026036.47246  -3102654.97445                  22951600.0514
        14.7504         11.2504
  23834638.9454    4437257.30045   3457596.50145                  23834644.1484
        11.5004          6.0004
 00  5  5 15 14 15.0000000  0  6G 2G 4G 7G 8G 9G26
  21607934.8054    2309995.75547   1799993.10847                  21607940.8404
        24.7504         32.5004
  22063297.3444   -4615912.25946  -3585560.60946                  22063303.3794
        19.5004         16.2504
  20896546.3284    2337806.76147   1819196.00447                  20896551.3794
        24.5004         34.7504
  23844704.5634    7683395.87145   5972025.28645                  23844713.1094
         9.7504          5.5004
  22946052.4534   -4055158.62646  -3125347.55045                  22946058.0554
        14.7504         11.2504
  23842660.3524    4479412.19145   3490444.38745                  23842666.1644
        11.0004          5.5004
 00  5  5 15 14 30.0000000  0  6G 2G 4G 7G 8G 9G26
  21612247.9144    2332661.37747   1817654.59647                  21612253.9734
        25.0004         32.7504
  22056836.9454   -4649860.25146  -3612013.55646                  22056843.0864
        19.5004         16.2504
  20901217.4064    2362353.28847   1838323.13947                  20901222.3874
        25.0004         34.5004
  23857418.4144    7750207.40145   6024086.11645                  23857428.4844
         9.0004          5.2504
  22940524.5314   -4084207.19646  -3147982.78945                  22940530.2974
        14.7504         10.7504
  23850693.6334    4521626.42845   3523338.54045                  23850699.3524
        11.0004          5.7504
 00  5  5 15 14 45.0000000  0  6G 2G 4G 7G 8G 9G26
  21616570.5234    2355376.09347   1835354.34547                  21616576.5474
        25.0004         32.7504
  22050390.7424   -4683736.63046  -3638410.70746                  22050396.6134
        19.7504         16.0004
  20905900.7504    2386964.36247   1857500.56947                  20905905.6604
        25.0004         34.2504
  23870137.6024    7817048.01245   6076169.57545                  23870146.6764
         9.0004          5.2504
  22935010.5784   -4113183.20546  -3170561.49945                  22935016.2854
        15.0004         10.7504
  23858737.4064    4563898.27345   3556277.57245                  23858743.3954
        10.2504          5.0004
 00  5  5 15 15  0.0000000  0  6G 2G 4G 7G 8G 9G26
  21620902.6644    2378142.88347   1853094.66747                  21620908.5944
        25.0004         32.5004
  22043958.4144   -4717538.30746  -3664749.66046                  22043964.4964
        19.7504         16.7504
  20910596.8204    2411642.59147   1876730.33247                  20910601.7894
        24.7504         34.0004
  23882863.1254    7883920.38245   6128277.82845                  23882871.4144
         9.2504          5.0004
  22929511.3444   -4142083.51046  -3193081.20545                  22929517.0984
        15.2504         11.2504
  23866793.1334    4606230.23945   3589263.45945                  23866799.3204
        10.0004          5.0004
 00  5  5 15 15 15.0000000  0  6G 2G 4G 7G 8G 9G26
  21625244.3834    2400957.62547   1870872.35547                  21625250.3954
        24.5004         32.2504
  22037539.5784   -4751268.91146  -3691033.21246                  22037545.5904
        19.7504         17.0004
  20915305.0864    2436383.64347   1896009.05047                  20915309.9384
        24.7504         34.0004
  23895593.5784    7950820.01545   6180407.31545                  23895601.4804
         9.0004          5.0004
  22924024.9844   -4170912.01046  -3215544.96645                  22924030.6454
        15.5004         11.2504
  23874858.9064    4648617.79745   3622292.65345                  23874864.9654
         9.7504          5.2504
 00  5  5 15 15 30.0000000  0  6G 2G 4G 7G 8G 9G26
  21629594.9774    2423819.93547   1888687.10447                  21629600.8954
        24.7504         31.5004
  22031134.4384   -4784928.66446  -3717261.57246                  22031140.4734
        19.7504         17.0004
  20920024.9844    2461186.89847   1915336.23647                  20920030.0354
        24.5004         34.0004
  23908329.6174    8017746.10945   6232557.38945                  23908339.2424
         9.2504          5.2504
  22918553.1024   -4199668.82546  -3237952.87345                  22918558.8094
        16.2504         11.7504
  23882935.9144    4691060.07945   3655364.49345                  23882942.4534
         9.7504          5.5004
 00  5  5 15 15 45.0000000  0  6G 2G 4G 7G 8G 9G26
  21633955.1094    2446732.28847   1906540.84547                  21633961.0274
        24.5004         31.7504
  22024743.0004   -4818514.98147  -3743432.69546                  22024748.8714
        20.2504         17.2504
  20924757.1094    2486054.32947   1934713.42447                  20924762.1484
        24.5004         33.7504
  23921070.6724    8084700.61445   6284729.61145                  23921080.1564
         9.2504          5.2504
  22913094.7814   -4228351.37246  -3260302.90145                  22913100.4534
        16.2504         11.2504
  23891023.0474    4733559.00245   3688480.47045                  23891030.2814
        10.0004          5.5004
 00  5  5 15 16  0.0000000  0  6G 2G 4G 7G 8G 9G26
  21638324.9454    2469695.74847   1924434.41347                  21638330.9574
        24.5004         31.5004
  22018366.0004   -4852026.33247  -3769545.41146                  22018371.9304
        20.0004         17.2504
  20929501.4844    2510986.85947   1954141.34447                  20929506.5704
        24.5004         33.5004
  23933817.2274    8151684.52745   6336924.77545                  23933825.7624
         9.0004          4.7504
  22907651.3444   -4256958.22846  -3282593.95746                  22907656.7704
        16.5004         12.0004
  23899121.3594    4776115.29845   3721641.14445                  23899127.7934
        10.2504          5.7504
 00  5  5 15 16 15.0000000  0  6G 2G 4G 7G 8G 9G26
  21642704.1334    2492708.09947   1942366.07647                  21642710.0984
        24.5004         31.0004
  22012003.1564   -4885464.70647  -3795601.26246                  22012009.1094
        20.0004         17.0004
  20934257.8364    2535981.98147   1973618.03747                  20934262.8054
        25.0004         34.0004
  23946569.2974    8218695.15745   6389140.71945                  23946577.8444
         9.7504          5.2504
  22902221.4924   -4285491.32246  -3304827.53846                  22902226.5904
        16.5004         12.0004
  23907229.9774    4818726.32445   3754844.47945                  23907236.2114
        10.7504          5.5004
 00  5  5 15 16 30.0000000  0  6G 2G 4G 7G 8G 9G26
  21647092.6254    2515768.32247   1960335.04447                  21647098.7304
        24.7504         31.2504
  22005653.5234   -4918830.89247  -3821600.87146                  22005659.5004
        20.2504         17.2504
  20939025.9774    2561038.32647   1993142.43447                  20939031.0044
        24.7504         34.0004
  23959325.8674    8285730.95145   6441376.29745                  23959334.9184
         9.5004          5.2504
  22896805.9694   -4313951.78446  -3327004.51645                  22896811.7584
        16.2504         11.7504
  23915348.8594    4861390.59645   3788089.28545                  23915354.7544
        11.0004          5.7504
 00  5  5 15 16 45.0000000  0  6G 2G 4G 7G 8G 9G26
  21651489.9454    2538877.40647   1978342.09347                  21651495.9454
        25.0004         31.5004
  21999318.1024   -4952123.51946  -3847543.14846                  21999324.1844
        19.7504         17.2504
  20943805.9384    2586156.65747   2012715.13047                  20943810.9774
        24.7504         33.7504
  23972087.6174    8352792.55445   6493631.96745                  23972095.9654
         9.7504          5.0004
  22891404.0704   -4342338.32746  -3349123.89846                  22891409.8954
        16.5004         12.5004
  23923478.2114    4904108.59145   3821375.96445                  23923484.4224
        10.7504          5.2504
 00  5  5 15 17  0.0000000  0  6G 2G 4G 7G 8G 9G26
  21655896.8204    2562036.05747   1996387.75847                  21655902.7154
        25.0004         30.7504
  21992996.8754   -4985341.69346  -3873427.41546                  21993002.9104
        19.5004         18.5004
  20948597.6024    2611337.38847   2032336.45147                  20948602.6414
        25.0004         34.2504
  23984854.4224    8419880.33245   6545908.05045                  23984862.5234
        10.0004          4.7504
  22886016.5004   -4370650.05746  -3371184.97945                  22886022.3134
        16.5004         11.7504
  23931616.9614    4946880.53945   3854704.68545                  23931622.0234
        10.5004          5.0004
 00  5  5 15 17 15.0000000  0  6G 2G 4G 7G 8G 9G26
  21660312.8674    2585243.43047   2014471.38947                  21660318.8914
        25.0004         31.0004
  21986689.9064   -5018485.90446  -3899254.05146                  21986695.8594
        19.5004         17.7504
  20953401.1174    2636579.31847   2052005.45747                  20953405.9694
        25.2504         34.7504
  23997625.4694    8486993.08345   6598203.58645                  23997633.6294
        10.2504          5.2504
  22880642.9384   -4398887.53446  -3393188.20745                  22880648.6804
        16.0004         11.7504
  23939766.1414    4989705.28845   3888074.54245                  23939772.4454
         9.7504          4.5004
 00  5  5 15 17 30.0000000  0  6G 2G 4G 7G 8G 9G26
  21664738.1884    2608496.89247   2032590.92947                  21664744.1294
        25.0004         30.7504
  21980396.2344   -5051558.49346  -3925024.87446                  21980402.1294
        19.5004         17.7504
  20958215.5784    2661879.58547   2071719.92647                  20958220.5704
        25.0004         35.0004
  24010400.7034    8554127.76245   6650516.20445                  24010409.4384
        10.0004          5.2504
  22875282.9454   -4427053.08246  -3415135.38246                  22875288.8984
        15.7504         12.0004
  23947925.2584    5032579.63745   3921483.03445                  23947930.9884
         9.5004          4.7504
 00  5  5 15 17 45.0000000  0  6G 2G 4G 7G 8G 9G26
  21669172.2734    2631798.54947   2050748.01647                  21669178.2274
        25.0004         31.0004
  21974116.6094   -5084557.26946  -3950738.18746                  21974122.6804
        19.5004         18.0004
  20963041.4844    2687239.93047   2091481.20347                  20963046.5704
        25.0004         34.5004
  24023180.9844    8621286.09945   6702847.24545                  24023190.1054
        10.7504          5.2504
  22869937.6254   -4455144.57646  -3437024.84945                  22869943.4144
        15.7504         11.5004
  23956093.7894    5075505.18745   3954931.45144                  23956100.3054
         9.2504          3.7504
 00  5  5 15 18  0.0000000  0  6G 2G 4G 7G 8G 9G26
  21673616.0084    2655149.72047   2068943.70347                  21673621.9384
        24.7504         31.2504
  21967851.6804   -5117480.53646  -3976392.65646                  21967857.7274
        19.7504         17.7504
  20967879.1884    2712661.39347   2111290.10247                  20967884.3444
        25.0004         35.0004
  24035965.0314    8688469.14745   6755197.57145                  24035973.6954
        10.7504          5.7504
  22864606.4224   -4483160.50446  -3458855.43846                  22864612.4224
        15.5004         12.0004
  23964271.7664    5118482.88845   3988420.51044                  23964277.6844
         9.0004          3.7504
 00  5  5 15 18 15.0000000  0  6G 2G 4G 7G 8G 9G26
  21678068.7344    2678549.28547   2087177.09547                  21678074.6764
        25.0004         31.5004
  21961600.6484   -5150329.04846  -4001988.88146                  21961606.7544
        19.5004         17.5004
  20972728.1644    2738142.67347   2131145.61847                  20972733.4494
        24.5004         34.2504
  24048753.9534    8755675.24845   6807565.84045                  24048762.8634
        10.0004          5.5004
  22859289.3444   -4511101.65046  -3480627.74946                  22859295.3094
        15.5004         12.0004
  23972460.0234    5161511.18445   4021948.96244                  23972465.2504
         9.2504          4.0004
 00  5  5 15 18 30.0000000  0  6G 2G 4G 7G 8G 9G26
  21682530.9384    2701998.71447   2105449.33147                  21682536.8094
        25.0004         31.0004
  21955364.5084   -5183101.17546  -4027525.57746                  21955370.3794
        19.5004         17.5004
  20977588.6564    2763684.86747   2151048.60347                  20977594.0594
        24.5004         34.5004
  24061547.9384    8822905.55945   6859952.93245                  24061557.4454
        10.0004          5.5004
  22853986.7974   -4538966.43746  -3502340.55346                  22853992.6454
        14.7504         12.0004
  23980657.9694    5204591.03845   4055517.61945                  23980664.0044
         9.2504          4.7504
 00  5  5 15 18 45.0000000  0  6G 2G 4G 7G 8G 9G26
  21687002.4774    2725496.00647   2123758.87047                  21687008.3364
        25.2504         31.5004
  21949142.0944   -5215798.66446  -4053004.11746                  21949148.1524
        19.7504         17.7504
  20982460.1804    2789285.74847   2170997.31347                  20982465.5124
        24.7504         34.5004
  24074345.3754    8890157.72245   6912357.12345                  24074353.4304
        10.2504          4.7504
  22848698.0944   -4566756.61746  -3523995.22545                  22848703.9774
        14.7504         11.7504
  23988865.9614    5247719.96245   4089124.47645                  23988872.3834
         9.7504          4.7504
 00  5  5 15 19  0.0000000  0  6G 2G 4G 7G 8G 9G26
  21691483.3284    2749042.32447   2142106.61647                  21691489.3164
        25.2504         31.7504
  21942934.6254   -5248419.93146  -4078423.26246                  21942940.6134
        19.5004         17.7504
  20987343.2424    2814946.11247   2190992.37847                  20987348.4694
        24.7504         34.7504
  24087147.6024    8957432.55845   6964778.94745                  24087156.1484
         9.7504          4.7504
  22843424.3834   -4594470.79746  -3545590.68446                  22843430.1254
        15.2504         12.0004
  23997082.5394    5290898.72945   4122770.19545                  23997089.0664
        10.0004          5.2504
 00  5  5 15 19 15.0000000  0  6G 2G 4G 7G 8G 9G26
  21695973.0864    2772636.88547   2160491.94547                  21695978.9574
        25.7504         32.0004
  21936741.4694   -5280965.54046  -4103783.45846                  21936747.4694
        19.2504         17.7504
  20992237.4144    2840664.95247   2211033.00647                  20992242.6644
        25.0004         35.2504
  24099953.5634    9024728.79145   7017217.45845                  24099962.2154
         9.0004          4.5004
  22838165.0314   -4622109.55846  -3567127.36246                  22838170.7274
        15.2504         12.0004
  24005308.1254    5334126.10945   4156453.80645                  24005315.2194
        10.0004          5.2504
 00  5  5 15 19 30.0000000  0  6G 2G 4G 7G 8G 9G26
  21700472.5164    2796281.33847   2178916.16447                  21700478.4924
        25.5004         32.0004
  21930563.0164   -5313433.58846  -4129083.21746                  21930568.9574
        19.5004         17.7504
  20997142.8594    2866443.69947   2231120.31347                  20997148.1454
        24.7504         35.0004
  24112764.0554    9092047.86945   7069673.74845                  24112772.8134
         9.2504          4.7504
  22832920.2344   -4649671.00246  -3588603.80846                  22832925.8594
        15.2504         12.2504
  24013543.6094    5377403.41145   4190176.31145                  24013549.7504
         9.7504          5.2504
 00  5  5 15 19 45.0000000  0  6G 2G 4G 7G 8G 9G26
  21704981.6644    2819976.73147   2197380.07747                  21704987.5594
        25.5004         32.0004
  21924399.4144   -5345822.67746  -4154321.44746                  21924405.4024
        19.5004         18.0004
  21002060.2814    2892283.02047   2251254.82547                  21002065.5084
        25.0004         35.5004
  24125579.1564    9159390.41345   7122148.33245                  24125589.0394
         9.0004          4.5004
  22827690.5864   -4677153.91546  -3610019.05746                  22827696.4344
        15.7504         12.5004
  24021788.5004    5420731.06445   4223938.03045                  24021795.2034
         9.5004          5.0004
 00  5  5 15 20  0.0000000  0  6G 2G 4G 7G 8G 9G26
  21709499.8284    2843720.01447   2215881.29447                  21709505.7704
        25.5004         32.0004
  21918250.3834   -5378135.80146  -4179500.48946                  21918256.3594
        19.5004         18.0004
  21006988.1644    2918179.59247   2271433.94647                  21006993.3094
        25.0004         35.5004
  24138398.3204    9226752.84145   7174638.41845                  24138408.0044
         9.2504          4.5004
  22822475.0234   -4704561.20746  -3631375.37946                  22822480.8134
        16.0004         12.7504
  24030042.6484    5464105.56945   4257736.27344                  24030049.0004
         9.2504          4.2504
 00  5  5 15 20 15.0000000  0  6G 2G 4G 7G 8G 9G26
  21714027.4774    2867512.00047   2234420.45447                  21714033.4534
        24.5004         31.5004
  21912116.1334   -5410371.62546  -4204619.29346                  21912121.9804
        19.7504         18.0004
  21011927.0554    2944133.94847   2291658.09447                  21011932.1414
        25.0004         35.0004
  24151220.7344    9294135.85445   7227144.55445                  24151230.5234
         9.2504          4.7504
  22817274.2194   -4731891.81946  -3652671.95546                  22817279.6684
        16.5004         12.7504
  24038304.9924    5507527.43645   4291571.40145                  24038312.1564
         9.2504          4.7504
 00  5  5 15 20 30.0000000  0  7G 2G 4G 7G 8G 9G24G26
  21718564.3204    2891352.75247   2252997.62247                  21718570.2854
        24.7504         31.5004
  21905996.6564   -5442530.00247  -4229677.74946                  21906002.7034
        20.0004         18.5004
  21016877.0314    2970145.84447   2311927.07347                  21016882.2464
        25.0004         35.2504
  24164046.7114    9361538.93145   7279666.29745                  24164055.8914
         9.0004          4.5004
  22812087.9774   -4759145.43746  -3673908.53446                  22812093.3914
        16.5004         13.2504
  24540902.4144     -32190.06255
         7.5004
  24046577.4304    5550996.21445   4325443.10944                  24046583.6174
         9.2504          4.0004
 00  5  5 15 20 45.0000000  0  7G 2G 4G 7G 8G 9G24G26
  21723110.3054    2915243.53147   2271613.78047                  21723116.2934
        24.5004         31.2504
  21899892.1484   -5474609.43546  -4254674.70046                  21899898.2074
        19.7504         18.0004
  21021838.0084    2996216.13647   2332241.55847                  21021843.1054
        25.2504         35.7504
  24176877.4694    9428962.80245   7332204.24145                  24176888.2074
         8.5004          4.5004
  22806917.0004   -4786320.79346  -3695084.12646                  22806922.3674
        17.0004         13.5004
  24532547.6024     -76096.36345
         8.2504
  24054858.3284    5594512.50545   4359351.83644                  24054864.9024
         9.2504          4.2504
 00  5  5 15 21  0.0000000  0  7G 2G 4G 7G 8G 9G24G26
  21727666.5164    2939185.21347   2290269.58947                  21727672.6094
        24.2504         31.0004
  21893802.7734   -5506608.71946  -4279609.19146                  21893808.9144
        19.7504         18.7504
  21026810.3754    3022345.53847   2352602.10747                  21026815.5554
        25.0004         36.2504
  24189711.9614    9496408.19945   7384758.95045                  24189721.3404
         9.2504          4.5004
  22801760.6414   -4813416.61546  -3716197.75446                  22801765.9734
        17.2504         13.5004
  24524191.2424    -120010.66645
         7.7504
  24063148.9064    5638076.88945   4393298.02445                  24063154.9884
        10.0004          4.5004
 00  5  5 15 21 15.0000000  0  7G 2G 4G 7G 8G 9G24G26
  21732231.6254    2963176.21247   2308963.83847                  21732237.8484
        24.2504         30.7504
  21887728.5784   -5538529.11447  -4304482.20246                  21887734.5904
        20.2504         18.5004
  21031793.5944    3048532.18047   2373007.25647                  21031798.8554
        25.0004         35.7504
  24202550.4534    9563873.00145   7437328.82045                  24202560.2774
         9.0004          4.7504
  22796619.3284   -4840434.39246  -3737250.56346                  22796624.5904
        17.5004         14.0004
  24515832.2194    -163934.24044
         7.0004
  24071447.3754    5681687.22645   4427280.01345                  24071453.4574
        10.7504          4.7504
 00  5  5 15 21 30.0000000  0  7G 2G 4G 7G 8G 9G24G26
  21736806.0944    2987214.85747   2327695.21147                  21736811.9884
        24.0004         31.0004
  21881668.9694   -5570372.19347  -4329294.97346                  21881674.8524
        20.5004         18.7504
  21036787.1254    3074773.96047   2393455.37147                  21036792.4104
        25.2504         36.2504
  24215391.8204    9631355.25045   7489912.24044                  24215401.9384
         8.5004          4.0004
  22791492.5554   -4867375.66646  -3758243.76246                  22791497.9224
        17.7504         14.0004
  24507472.2194    -207868.67344    -27386.71853                  24507482.0784
         6.7504          2.7504
  24079754.7814    5725341.45345   4461296.22345                  24079761.6254
        10.7504          5.5004
 00  5  5 15 21 45.0000000  0  7G 2G 4G 7G 8G 9G24G26
  21741389.8134    3011301.57347   2346464.04147                  21741395.8134
        23.7504         30.7504
  21875624.4454   -5602137.12347  -4354046.85446                  21875630.3984
        21.0004         19.2504
  21041791.3594    3101071.07747   2413946.60547                  21041796.5744
        25.0004         35.7504
  24228236.8594    9698854.90845   7542509.26344                  24228247.4574
         8.5004          4.0004
  22786380.3984   -4894239.75346  -3779176.82546                  22786385.8834
        17.7504         13.7504
  24499109.9844    -251813.16144    -61629.20343                  24499118.8594
         6.7504          2.7504
  24088070.0314    5769039.53845   4495346.59045                  24088076.1484
        10.2504          5.2504
 00  5  5 15 22  0.0010000  0  7G 2G 4G 7G 8G 9G24G26
  21745982.9894    3035439.24347   2365272.57647                  21745989.0604
        23.5004         30.5004
  21869594.6854   -5633824.53747  -4378738.33446                  21869600.6614
        20.5004         19.7504
  21046806.5674    3127426.29347   2434483.11247                  21046811.6654
        25.2504         36.2504
  24241085.5604    9766377.44745   7595124.11044                  24241095.1144
         8.5004          3.7504
  22781283.1304   -4921026.99146  -3800050.00546                  22781288.3454
        18.2504         14.0004
  24490745.0754    -295769.09744    -95880.54243                  24490755.6384
         6.5004          3.0004
  24096394.8964    5812785.15845   4529434.03545                  24096401.7044
         9.7504          5.5004
 00  5  5 15 22 15.0010000  0  7G 2G 4G 7G 8G 9G24G26
  21750585.5994    3059626.64247   2384119.86647                  21750591.7514
        23.5004         30.5004
  21863580.5914   -5665427.91247  -4403364.32446                  21863586.6494
        20.5004         19.7504
  21051832.4584    3153837.83547   2455063.50847                  21051837.8374
        25.0004         36.2504
  24253937.8024    9833915.48345   7647751.01644                  24253948.0014
         8.2504          3.7504
  22776201.3804   -4947731.47446  -3820858.69446                  22776206.4194
        18.2504         14.5004
  24482379.7944    -339728.46843   -130134.63743                  24482389.5834
         6.0004          2.7504
  24104727.0284    5856574.10945   4563555.20445                  24104733.8884
         9.0004          5.2504
 00  5  5 15 22 30.0010000  0  7G 2G 4G 7G 8G 9G24G26
  21755197.6924    3083862.94047   2403005.25547                  21755203.7044
        23.5004         30.7504
  21857581.6304   -5696951.54547  -4427928.17746                  21857587.6184
        20.2504         20.0004
  21056869.2474    3180304.82547   2475687.11147                  21056874.5094
        25.0004         36.0004
  24266793.5134    9901470.77245   7700391.36344                  24266803.5484
         7.7504          4.2504
  22771134.5994   -4974357.36746  -3841606.14346                  22771139.6384
        17.7504         14.2504
  24474012.6854    -383696.40343   -164395.36942                  24474022.3564
         6.0004          2.2504
  24113068.3104    5900406.42945   4597710.17245                  24113076.3884
         8.5004          5.0004
 00  5  5 15 22 45.0010000  0  7G 2G 4G 7G 8G 9G24G26
  21759818.7244    3108145.53547   2421926.71547                  21759824.7714
        23.5004         29.7504
  21851597.7244   -5728397.65547  -4452431.62546                  21851603.8644
        20.0004         19.7504
  21061915.7634    3206824.30647   2496351.61647                  21061921.2474
        25.0004         35.7504
  24279651.9894    9969040.25245   7753042.77144                  24279662.1534
         8.2504          4.0004
  22766082.3174   -5000906.90946  -3862294.09846                  22766087.4384
        18.0004         14.5004
  24465644.2784    -427675.16244   -198664.51642                  24465656.6574
         6.5004          2.2504
  24121417.0834    5944279.04345   4631896.54245                  24121425.0674
         8.5004          5.2504
 00  5  5 15 23  0.0010000  0  7G 2G 4G 7G 8G 9G24G26
  21764448.7944    3132477.09347   2440886.33147                  21764454.8294
        24.0004         30.2504
  21845628.9744   -5759763.41647  -4476872.46746                  21845634.9744
        20.0004         20.0004
  21066972.5674    3233398.62247   2517058.85247                  21066977.8764
        24.7504         36.2504
  24292512.4974   10036626.15645   7805706.99644                  24292522.2284
         7.7504          3.7504
  22761045.3104   -5027377.25046  -3882920.34446                  22761050.6884
        18.0004         14.5004
  24457274.2084    -471661.86244   -232939.86342                  24457283.0364
         6.5004          2.2504
  24129773.2944    5988194.15545   4666116.04345                  24129780.7634
         8.2504          4.7504
 00  5  5 15 23 15.0010000  0  7G 2G 4G 7G 8G 9G24G26
  21769088.2634    3156857.41247   2459883.94847                  21769094.3804
        24.2504         30.5004
  21839675.7394   -5791048.71647  -4501250.60146                  21839681.6814
        20.5004         20.0004
  21072039.7714    3260027.32547   2537808.47047                  21072045.0324
        24.5004         35.7504
  24305377.5674   10104228.15945   7858383.78544                  24305387.3334
         7.7504          3.7504
  22756023.3564   -5053768.45546  -3903484.91746                  22756028.7004
        18.2504         15.0004
  24448902.3804    -515656.49343   -267221.44542                  24448910.7284
         6.0004          1.7504
  24138138.7244    6032151.15645   4700368.18645                  24138146.2284
         8.7504          4.5004
 00  5  5 15 23 30.0010000  0  7G 2G 4G 7G 8G 9G24G26
  21773737.7314    3181290.49647   2478922.67047                  21773743.7674
        24.5004         30.7504
  21833738.1224   -5822249.26847  -4525562.71146                  21833744.1224
        20.5004         20.2504
  21077118.0604    3286714.14547   2558603.36447                  21077123.5324
        24.5004         35.5004
  24318244.6464   10171849.69945   7911075.76844                  24318254.9034
         8.2504          4.0004
  22751017.1534   -5080076.28846  -3923984.53446                  22751022.6964
        18.0004         15.5004
  24440529.5524    -559654.74343   -301505.78442                  24440540.1614
         6.0004          2.2504
  24146512.7314    6076153.52445   4734655.65844                  24146519.2594
         9.0004          4.2504
 00  5  5 15 23 45.0010000  0  7G 2G 4G 7G 8G 9G24G26
  21778396.5364    3205771.66647   2497998.86647                  21778402.5484
        24.5004         30.7504
  21827816.5214   -5853369.63847  -4549812.34946                  21827822.5094
        20.7504         20.0004
  21082206.7944    3313454.00347   2579439.59447                  21082212.2434
        24.2504         35.0004
  24331115.9354   10239485.65945   7963778.99045                  24331126.4504
         8.2504          4.5004
  22746025.7714   -5106305.37846  -3944422.78546                  22746031.0444
        18.2504         15.5004
  24432155.6614    -603661.27644   -335796.53542                  24432167.2904
         6.2504          1.7504
  24154892.9814    6120196.13345   4768974.52645                  24154899.5214
         9.7504          4.5004
 00  5  5 15 24  0.0010000  0  7G 2G 4G 7G 8G 9G24G26
  21783064.6924    3230302.49947   2517113.76747                  21783070.6464
        25.2504         30.7504
  21821909.9354   -5884407.88447  -4573997.98146                  21821916.0054
        21.0004         20.5004
  21087305.2394    3340248.28647   2600318.23247                  21087310.5484
        24.5004         35.2504
  24343989.0914   10307137.27544   8016494.43844                  24344001.3764
         7.0004          3.5004
  22741049.6464   -5132453.86346  -3964798.23446                  22741055.0714
        18.2504         15.7504
  24423780.0134    -647674.13644   -370092.35142                  24423792.5094
         6.2504          1.7504
  24163282.7084    6164280.04745   4803325.55145                  24163288.3564
        10.0004          4.7504
 00  5  5 15 24 15.0010000  0  7G 2G 4G 7G 8G 9G24G26
  21787742.0834    3254882.66447   2536267.10447                  21787748.0014
        25.2504         31.2504
  21816019.3644   -5915364.02547  -4598119.63546                  21816025.3174
        21.2504         20.7504
  21092414.3884    3367096.34547   2621238.77647                  21092419.6494
        25.0004         35.7504
  24356866.3104   10374803.86545   8069221.50944                  24356877.0014
         7.5004          3.7504
  22736089.1924   -5158521.93346  -3985111.02446                  22736094.5484
        18.0004         16.0004
  24415402.9424    -691693.33144   -404393.01442                  24415413.0714
         6.2504          1.7504
  24171679.2314    6208404.55045   4837708.19145                  24171685.2084
        10.0004          5.0004
 00  5  5 15 24 30.0010000  0  7G 2G 4G 7G 8G 9G24G26
  21792429.1224    3279512.50847   2555459.14847                  21792435.1224
        25.2504         31.5004
  21810144.1614   -5946237.58447  -4622176.95046                  21810150.0794
        21.5004         20.7504
  21097533.7784    3393998.28847   2642201.30647                  21097539.1924
        24.5004         35.2504
  24369745.4194   10442485.40445   8121960.26044                  24369755.2434
         7.7504          3.5004
  22731144.1534   -5184509.04546  -4005360.72346                  22731149.4854
        18.0004         16.2504
  24407026.0674    -735718.39944   -438698.32542                  24407033.7004
         6.7504          2.0004
  24180083.0364    6252569.54145   4872122.38045                  24180088.9664
         9.7504          4.7504
 00  5  5 15 24 45.0010000  0  7G 2G 4G 7G 8G 9G24G26
  21797125.6694    3304192.67447   2574690.40947                  21797131.6694
        25.2504         31.0004
  21804285.0674   -5977027.52347  -4646169.09746                  21804290.9854
        22.0004         21.2504
  21102663.3104    3420954.42147   2663206.06847                  21102668.5244
        24.7504         35.5004
  24382628.2554   10510182.17845   8174710.87144                  24382638.8294
         7.7504          3.7504
  22726214.6144   -5210414.25646  -4025546.60046                  22726220.0994
        18.0004         16.0004
  24398647.4894    -779748.49445   -473007.45043                  24398656.1884
         7.5004          2.5004
  24188495.8644    6296775.26845   4906568.33645                  24188502.0524
         9.5004          5.2504
 00  5  5 15 25  0.0010000  0  7G 2G 4G 7G 8G 9G24G26
  21801831.2944    3328921.25047   2593959.39047                  21801837.3764
        25.2504         31.0004
  21798441.4814   -6007735.59547  -4670097.45246                  21798447.3414
        22.2504         21.2504
  21107802.7314    3447962.58947   2684251.36347                  21107808.0054
        24.7504         35.0004
  24395512.5134   10577891.84145   8227471.53044                  24395522.3494
         7.7504          4.0004
  22721300.1144   -5236239.23546  -4045669.97046                  22721305.9034
        18.0004         16.5004
  24390266.6614    -823785.20745   -507321.79042                  24390276.3684
         7.5004          2.2504
  24196914.8804    6341019.26045   4941044.05445                  24196921.0564
         8.7504          5.2504
 00  5  5 15 25 15.0010000  0  7G 2G 4G 7G 8G 9G24G26
  21806546.3254    3353698.05847   2613265.95247                  21806552.3254
        25.0004         30.2504
  21792613.6614   -6038361.58747  -4693961.85746                  21792619.6264
        22.5004         21.2504
  21112952.1064    3475022.29247   2705336.82847                  21112957.4154
        24.7504         35.0004
  24408399.5834   10645613.96745   8280241.90344                  24408411.1304
         7.5004          3.5004
  22716401.2864   -5261983.87846  -4065730.73746                  22716406.8994
        18.0004         17.0004
  24381885.9194    -867828.39245   -541641.18943                  24381895.6494
         7.5004          2.5004
  24205341.7004    6385300.97245   4975549.21645                  24205348.6884
         9.0004          5.2504
 00  5  5 15 25 30.0010000  0  7G 2G 4G 7G 8G 9G24G26
  21811270.6534    3378525.80347   2632612.21447                  21811276.5244
        25.2504         30.5004
  21786801.8174   -6068902.49947  -4717759.95446                  21786807.7004
        22.7504         22.0004
  21118111.8564    3502136.01647   2726464.38447                  21118117.0954
        25.0004         35.0004
  24421289.9814   10713350.82945   8333023.73844                  24421301.1064
         8.5004          4.2504
  22711517.7784   -5287645.29946  -4085726.65346                  22711523.2164
        18.0004         17.2504
  24373504.1534    -911875.26944   -575963.46742                  24373514.5994
         7.2504          2.2504
  24213775.0914    6429622.61745   5010085.47845                  24213781.6304
         8.7504          5.0004
 00  5  5 15 25 45.0010000  0  7G 2G 4G 7G 8G 9G24G26
  21816004.2864    3403401.00347   2651995.44647                  21816010.2514
        25.0004         30.7504
  21781005.8024   -6099361.60947  -4741494.31646                  21781011.7084
        22.5004         21.5004
  21123280.9744    3529300.02847   2747631.12247                  21123286.1064
        25.0004         35.7504
  24434181.5754   10781098.45945   8385814.01844                  24434191.2594
         8.5004          4.2504
  22706649.8414   -5313226.97746  -4105660.43246                  22706655.5954
        18.2504         17.0004
  24365121.3104    -955928.85545   -610290.93443                  24365130.2554
         8.2504          2.7504
  24222216.2084    6473980.31245   5044649.85245                  24222223.5604
         9.0004          5.5004
 00  5  5 15 26  0.0010000  0  7G 2G 4G 7G 8G 9G24G26
  21820747.3644    3428325.32447   2671416.95147                  21820753.3884
        25.2504         30.0004
  21775225.4974   -6129737.12947  -4765163.54346                  21775231.4504
        22.2504         22.0004
  21128459.8644    3556515.66247   2768838.09047                  21128465.2434
        25.0004         36.0004
  24447076.5284   10848858.40345   8438613.84144                  24447085.6964
         8.5004          4.0004
  22701797.3724   -5338726.96046  -4125530.54946                  22701803.0214
        18.0004         17.2504
  24356737.4814    -999987.42545   -644622.29644                  24356747.4704
         8.2504          3.5004
  24230665.0134    6518375.16945   5079243.18145                  24230672.4234
         9.2504          5.0004
 00  5  5 15 26 15.0010000  0  7G 2G 4G 7G 8G 9G24G26
  21825499.8104    3453299.38547   2690877.21247                  21825505.7514
        24.7504         29.7504
  21769461.3804   -6160028.05947  -4788766.85746                  21769467.3804
        22.0004         22.0004
  21133648.8804    3583783.09147   2790085.41147                  21133654.1424
        25.0004         35.7504
  24459973.3724   10916630.51045   8491423.16643                  24459982.5524
         8.2504          3.2504
  22696960.3964   -5364144.56646  -4145336.48446                  22696965.8804
        18.0004         17.0004
  24348352.4744   -1044050.15745   -678956.88043                  24348361.6184
         8.2504          3.2504
  24239120.0834    6562807.29545   5113865.54845                  24239127.0484
         9.7504          5.5004
 00  5  5 15 26 30.0010000  0  7G 2G 4G 7G 8G 9G24G26
  21830262.1694    3478325.93547   2710378.37847                  21830268.0994
        25.0004         30.5004
  21763713.6614   -6190231.51347  -4812302.00746                  21763719.6034
        22.0004         21.7504
  21138848.1064    3611104.87147   2811375.08547                  21138853.3684
        25.2504         36.0004
  24472872.2784   10984417.37645   8544243.99544                  24472880.6264
         8.2504          3.5004
  22692140.1144   -5389476.74946  -4165075.85346                  22692145.7394
        18.0004         17.5004
  24339967.3964   -1088114.02545   -713292.35143                  24339976.2354
         8.2504          3.2504
  24247583.1224    6607279.07945   5148518.83045                  24247589.4154
         9.7504          5.2504
 00  5  5 15 26 45.0010000  0  7G 2G 4G 7G 8G 9G24G26
  21835034.0754    3503402.22947   2729918.31147                  21835040.1574
        25.0004         30.0004
  21757982.2314   -6220349.87247  -4835770.85246                  21757988.3134
        22.0004         22.5004
  21144056.9034    3638478.05147   2832704.81447                  21144062.3294
        24.7504         36.2504
  24485774.3494   11052215.86044   8597073.87243                  24485783.9274
         7.2504          3.0004
  22687335.4274   -5414726.06046  -4184750.64846                  22687341.1464
        18.0004         17.2504
  24331581.4354   -1132181.47545   -747630.63243                  24331589.5484
         8.2504          3.0004
  24256052.6774    6651787.26445   5183200.45845                  24256058.9354
         9.7504          4.7504
 00  5  5 15 27  0.0010000  0  7G 2G 4G 7G 8G 9G24G26
  21839815.7394    3528529.43247   2749497.92147                  21839821.7634
        24.5004         30.0004
  21752267.5284   -6250381.76447  -4859172.31946                  21752273.4814
        22.7504         22.5004
  21149275.6774    3665903.38547   2854075.18047                  21149281.0794
        24.7504         35.7504
  24498678.2784   11120026.73144   8649913.37943                  24498686.3564
         7.0004          2.7504
  22682546.5364   -5439891.18646  -4204359.84346                  22682552.1614
        18.0004         17.2504
  24323195.2784   -1176251.19945   -781970.69943                  24323203.8024
         8.2504          3.2504
  24264529.2164    6696332.53845   5217910.99845                  24264535.4504
         9.2504          4.7504
 00  5  5 15 27 15.0010000  0  7G 2G 4G 7G 8G 9G24G26
  21844606.6534    3553705.79447   2769115.83247                  21844612.5834
        24.5004         30.5004
  21746568.8964   -6280328.71947  -4882507.60846                  21746574.8134
        22.7504         23.0004
  21154504.1534    3693378.91447   2875484.66247                  21154509.7314
        24.5004         35.0004
  24511584.4354   11187847.75245   8702760.82843                  24511594.2474
         7.5004          3.0004
  22677773.2314   -5464973.64246  -4223904.62146                  22677778.9854
        18.0004         17.0004
  24314808.2864   -1220324.68045   -816313.67444                  24314817.8764
         7.5004          3.5004
  24273012.6224    6740912.81045   5252648.79244                  24273019.7164
         8.2504          4.2504
 00  5  5 15 27 30.0010000  0  7G 2G 4G 7G 8G 9G24G26
  21849407.0284    3578931.82347   2788772.43347                  21849412.9934
        24.5004         29.7504
  21740886.5364   -6310189.78347  -4905775.95746                  21740892.4314
        22.7504         23.0004
  21159742.3334    3720904.92247   2896933.47747                  21159747.9584
        24.2504         35.0004
  24524492.8414   11255679.22045   8755616.39643                  24524502.0914
         7.7504          3.2504
  22673016.2004   -5489972.72446  -4243384.43846                  22673021.8844
        18.0004         17.5004
  24306421.1614   -1264401.07744   -850658.85944                  24306431.3024
         7.0004          3.5004
  24281501.9974    6785528.08145   5287413.84844                  24281508.8294
         8.0004          3.7504
 00  5  5 15 27 45.0010000  0  7G 2G 4G 7G 8G 9G24G26
  21854216.4034    3604205.87447   2808466.45447                  21854222.4034
        24.2504         29.7504
  21735220.0834   -6339966.56147  -4928978.63246                  21735226.0364
        22.7504         22.7504
  21164989.5444    3748479.45947   2918420.10547                  21164995.0874
        24.2504         35.0004
  24537401.8254   11323519.20144   8808478.60743                  24537410.9814
         6.7504          2.7504
  22668274.6534   -5514889.77546  -4262800.33146                  22668280.4194
        17.7504         17.0004
  24298033.0214   -1308481.86745   -885007.52744                  24298042.8214
         8.0004          3.5004
  24289998.7554    6830176.25845   5322204.56244                  24290006.3414
         7.7504          4.2504
 00  5  5 15 28  0.0010000  0  7G 2G 4G 7G 8G 9G24G26
  21859035.1614    3629529.42547   2828199.05247                  21859041.1854
        23.7504         29.7504
  21729570.1464   -6369657.16847  -4952114.15946                  21729576.1574
        23.0004         23.0004
  21170246.0134    3776103.63847   2939945.41947                  21170251.6964
        23.7504         34.2504
  24550313.6064   11391368.64244   8861348.21343                  24550323.8174
         7.0004          2.5004
  22663549.1144   -5539723.20446  -4282151.06446                  22663554.8684
        18.0004         17.0004
  24289643.8254   -1352565.25545   -919358.26043                  24289651.6224
         8.2504          3.2504
  24298502.2084    6874858.38545   5357021.67244                  24298509.5954
         8.7504          4.2504
 00  5  5 15 28 15.0010000  0  7G 2G 4G 7G 8G 9G24G26
  21863864.3564    3654904.91347   2847972.11147                  21863870.4744
        23.7504         29.7504
  21723937.1924   -6399258.98647  -4975180.49946                  21723943.0634
        23.0004         23.2504
  21175512.7864    3803779.61347   2961511.08847                  21175518.4354
        23.7504         34.2504
  24563227.0914   11459229.71644   8914226.79343                  24563235.8964
         6.2504          2.5004
  22658840.0834   -5564470.32346  -4301434.54146                  22658845.8724
        18.0004         17.2504
  24281255.0284   -1396648.66544   -953708.95144                  24281264.3494
         7.2504          3.7504
  24307011.1924    6919576.33045   5391866.76545                  24307017.5214
         9.0004          4.5004
 00  5  5 15 28 30.0010000  0  7G 2G 4G 7G 8G 9G24G26
  21868702.7004    3680331.23947   2867784.78347                  21868708.9114
        23.7504         29.5004
  21718320.7784   -6428772.96547  -4998178.39646                  21718326.8134
        23.0004         23.5004
  21180788.8334    3831506.10247   2983116.12447                  21180794.5994
        23.7504         34.2504
  24576141.9194   11527100.68044   8967113.20242                  24576153.6654
         6.2504          2.2504
  22654146.9274   -5589132.05446  -4320651.48746                  22654152.6464
        17.7504         17.0004
  24272865.5444   -1440732.86944   -988060.23144                  24272875.5794
         6.7504          3.7504
  24315527.4114    6964328.64145   5426738.61244                  24315533.4354
         9.0004          4.2504
 00  5  5 15 28 45.0010000  0  7G 2G 4G 7G 8G 9G24G26
  21873551.0834    3705810.10447   2887638.39247                  21873557.1424
        23.7504         30.0004
  21712721.8174   -6458197.03847  -5021106.23746                  21712727.7594
        23.0004         23.2504
  21186075.0214    3859284.38847   3004761.51547                  21186080.6814
        23.7504         34.2504
  24589059.6304   11594982.97643   9020008.36842                  24589069.5604
         6.0004          1.7504
  22649470.6384   -5613706.62646  -4339800.51346                  22649476.2984
        17.7504         16.7504
  24264476.9274   -1484815.95444  -1022410.66744                  24264486.7984
         6.7504          3.5004
  24324050.7554    7009116.47445   5461638.15645                  24324058.4584
         9.2504          5.0004
 00  5  5 15 29  0.0010000  0  7G 2G 4G 7G 8G 9G24G26
  21878409.4664    3731340.57747   2907532.22947                  21878415.4424
        23.5004         29.7504
  21707139.3254   -6487531.87447  -5043964.54446                  21707145.2784
        23.2504         23.5004
  21191370.8564    3887113.29147   3026446.35247                  21191376.3294
        24.2504         34.5004
  24601979.2714   11662875.37243   9072911.46442                  24601991.1814
         5.7504          2.2504
  22644810.6774   -5638194.67846  -4358882.11846                  22644816.5714
        17.7504         16.7504
  24256088.1854   -1528898.73944  -1056760.90343                  24256097.9274
         6.7504          3.2504
  24332579.5754    7053938.37145   5496564.22445                  24332586.9744
         9.0004          5.0004
 00  5  5 15 29 15.0010000  0  7G 2G 4G 7G 8G 9G24G26
  21883277.6534    3756922.83047   2927466.40447                  21883283.7354
        23.5004         30.0004
  21701574.2864   -6516777.00447  -5066752.94646                  21701580.2284
        23.0004         23.5004
  21196676.0674    3914992.82447   3048170.64147                  21196681.5284
        24.7504         35.2504
  24614900.9194   11730777.70743   9125822.22542                  24614911.7514
         5.7504          2.0004
  22640167.2714   -5662595.79746  -4377895.99046                  22640173.1184
        17.2504         16.5004
  24247700.2394   -1572980.65444  -1091110.40343                  24247709.3254
         6.2504          2.7504
  24341115.3644    7098794.22245   5531516.75844                  24341122.3644
         8.5004          4.2504
 00  5  5 15 29 30.0010000  0  7G 2G 4G 7G 8G 9G24G26
  21888155.5134    3782555.98447   2947440.24947                  21888161.5134
        23.5004         30.2504
  21696026.1534   -6545933.10747  -5089471.98146                  21696032.0714
        23.0004         23.2504
  21201990.8104    3942921.69147   3069933.36847                  21201996.1184
        24.7504         35.2504
  24627824.1464   11798688.58543   9178739.73542                  24627835.9624
         6.0004          2.2504
  22635540.4744   -5686910.67346  -4396842.64146                  22635546.0994
        17.7504         16.7504
  24239311.8334   -1617062.33744  -1125459.73943                  24239321.1424
         6.7504          3.2504
  24349657.6854    7143682.71345   5566494.74644                  24349664.8134
         8.5004          4.0004
 00  5  5 15 29 45.0010000  0  7G 2G 4G 7G 8G 9G24G26
  21893043.4274    3808241.37147   2967454.78947                  21893049.4504
        24.2504         30.2504
  21690495.0444   -6574998.59747  -5112120.40446                  21690501.1034
        23.0004         23.5004
  21207315.0754    3970901.10847   3091735.49447                  21207320.4784
        24.5004         35.2504
  24640749.0444   11866609.17344   9231664.72143                  24640759.3024
         6.5004          2.5004
  22630929.9664   -5711137.77746  -4415720.91146                  22630935.8724
        17.2504         16.5004
  24230923.5444   -1661142.24544  -1159807.69343                  24230931.9854
         7.0004          3.0004
  24358205.0834    7188604.63745   5601498.74844                  24358212.5054
         7.7504          3.7504
 00  5  5 15 30  0.0010000  0  7G 2G 4G 7G 8G 9G24G26
  21897940.7634    3833976.11247   2987507.79347                  21897946.6814
        24.2504         30.0004
  21684980.7634   -6603976.04947  -5134700.23146                  21684986.7864
        23.0004         23.7504
  21212648.4584    3998927.80247   3113574.45047                  21212653.8374
        25.0004         35.7504
  24653675.2554   11934535.94544   9284594.59843                  24653686.9664
         6.7504          2.7504
  22626336.1384   -5735279.92146  -4434532.98446                  22626341.9154
        17.7504         16.7504
  24222534.8254   -1705223.03644  -1194156.35243                  24222545.4234
         7.0004          3.0004
  24366759.8564    7233556.65245   5636526.20344                  24366767.2904
         8.2504          3.5004
 00  5  5 15 30 15.0010000  0  7G 2G 4G 7G 8G 9G24G26
  21902847.2554    3859760.27147   3007599.30147                  21902853.3134
        24.5004         30.5004
  21679483.2554   -6632865.16247  -5157211.21646                  21679489.2674
        23.2504         23.5004
  21217990.6774    4027001.53047   3135450.06247                  21217995.8804
        25.0004         35.7504
  24666601.7864   12002468.77543   9337529.19143                  24666613.0524
         6.0004          2.5004
  22621758.2394   -5759336.76446  -4453278.58346                  22621763.9814
        17.7504         16.5004
  24214146.4114   -1749304.26045  -1228505.31243                  24214156.7984
         7.5004          2.5004
  24375319.9894    7278538.42345   5671576.88044                  24375327.7864
         8.2504          3.5004
 00  5  5 15 30 30.0010000  0  7G 2G 4G 7G 8G 9G24G26
  21907764.2164    3885598.21847   3027732.71947                  21907770.2514
        24.7504         30.0004
  21674003.6534   -6661661.42947  -5179649.85546                  21674009.6534
        22.7504         23.7504
  21223342.8024    4055126.45847   3157365.56947                  21223348.0404
        24.7504         35.2504
  24679531.8724   12070411.63644   9390471.56943                  24679544.2634
         6.2504          2.7504
  22617197.0674   -5783303.84446  -4471954.23246                  22617202.8214
        18.0004         16.7504
  24205759.0444   -1793381.34245  -1262851.10343                  24205768.9034
         8.2504          3.0004
  24383886.5674    7323553.83845   5706653.73644                  24383893.4114
         8.7504          3.7504
 00  5  5 15 30 45.0010000  0  7G 2G 4G 7G 8G 9G24G26
  21912690.8024    3911488.31947   3047906.77047                  21912696.8024
        24.7504         30.0004
  21668541.1304   -6690366.10447  -5202017.12446                  21668547.1184
        23.0004         23.7504
  21228704.2474    4083300.63547   3179319.44947                  21228709.6854
        24.7504         35.5004
  24692462.6384   12138362.54243   9443420.19543                  24692475.6264
         6.0004          2.7504
  22612653.3334   -5807182.44246  -4490560.94546                  22612658.8174
        18.2504         17.0004
  24197372.2394   -1837455.68445  -1297194.73544                  24197381.5604
         8.0004          3.5004
  24392458.9034    7368600.83445   5741755.22744                  24392465.5364
         9.2504          4.0004
 00  5  5 15 31  0.0010000  0  7G 2G 4G 7G 8G 9G24G26
  21917627.7084    3937431.02847   3068121.81947                  21917633.6034
        25.0004         30.5004
  21663096.3254   -6718978.47547  -5224312.46546                  21663102.4314
        23.0004         23.7504
  21234074.9274    4111524.17147   3201311.79247                  21234080.4234
        24.5004         35.0004
  24705394.4814   12206321.55144   9496375.17443                  24705407.0834
         6.2504          3.0004
  22608126.3724   -5830971.90446  -4509098.19646                  22608132.2554
        18.0004         16.7504
  24188985.7714   -1881526.69045  -1331535.75543                  24188995.8764
         8.2504          3.2504
  24401037.2084    7413679.37245   5776881.29144                  24401044.0914
         9.7504          4.0004
 00  5  5 15 31 15.0010000  0  7G 2G 4G 7G 8G 9G24G26
  21922574.2714    3963424.98747   3088376.80347                  21922580.3644
        25.0004         30.5004
  21657669.0284   -6747499.83147  -5246536.88946                  21657674.9704
        23.0004         23.7504
  21239454.8414    4139795.49447   3223341.37447                  21239460.3844
        24.5004         34.7504
  24718328.3494   12274286.91444   9549335.05343                  24718340.9504
         6.7504          3.2504
  22603616.2474   -5854673.56746  -4527567.03746                  22603621.8374
        18.7504         17.5004
  24180599.5754   -1925595.48745  -1365875.05143                  24180608.7784
         9.0004          3.2504
  24409620.8884    7458787.58645   5812030.48944                  24409628.2164
         9.7504          4.2504
 00  5  5 15 31 30.0010000  0  7G 2G 4G 7G 8G 9G24G26
  21927530.5994    3989470.54947   3108672.01347                  21927536.6344
        25.2504         29.5004
  21652259.2004   -6775929.35447  -5268689.75446                  21652265.1304
        23.2504         24.2504
  21244843.7314    4168114.75847   3245408.31047                  21244849.3454
        24.2504         34.2504
  24731263.0914   12342258.58944   9602299.90243                  24731275.5754
         7.2504          3.2504
  22599122.7394   -5878286.79646  -4545966.95946                  22599128.5174
        18.7504         17.7504
  24172214.3964   -1969661.29745  -1400212.06643                  24172223.7864
         8.5004          3.2504
  24418210.1534    7503925.44045   5847202.74344                  24418216.6814
         9.5004          4.0004
 00  5  5 15 31 45.0010000  0  7G 2G 4G 7G 8G 9G24G26
  21932496.9194    4015568.58347   3129008.10547                  21932502.9194
        25.0004         29.2504
  21646866.7634   -6804265.97647  -5290770.22746                  21646872.6924
        23.5004         24.5004
  21250241.8884    4196482.49547   3267513.02147                  21250247.6774
        24.2504         34.2504
  24744199.1304   12410237.25744   9655270.19943                  24744210.3374
         7.2504          3.0004
  22594646.3964   -5901810.50646  -4564297.13246                  22594651.8684
        19.2504         18.0004
  24163829.5284   -2013723.07945  -1434545.88543                  24163840.1854
         8.2504          3.2504
  24426805.6534    7549093.44645   5882398.54145                  24426812.2394
         9.7504          4.5004
 00  5  5 15 32  0.0010000  0  7G 2G 4G 7G 8G 9G24G26
  21937473.1534    4041718.92547   3149384.95147                  21937479.1184
        25.0004         29.7504
  21641492.4354   -6832509.55547  -5312778.20046                  21641498.2944
        23.7504         24.7504
  21255649.1854    4224898.34147   3289655.22147                  21255654.9854
        23.7504         34.2504
  24757136.2714   12478222.21144   9708245.41543                  24757147.0444
         7.0004          3.0004
  22590187.0754   -5925244.58046  -4582557.46146                  22590192.5364
        19.5004         18.2504
  24155445.5054   -2057780.60145  -1468876.37743                  24155456.3844
         8.2504          3.2504
  24435407.0364    7594291.03945   5917617.34344                  24435413.1064
         9.5004          4.2504
 00  5  5 15 32 15.0010000  0  7G 2G 4G 7G 8G 9G24G26
  21942459.3564    4067921.43547   3169802.43947                  21942465.3804
        24.7504         28.7504
  21636135.4274   -6860659.98947  -5334713.59946                  21636141.3454
        23.5004         25.0004
  21261065.7314    4253361.79047   3311834.51247                  21261071.5564
        24.5004         34.7504
  24770074.3334   12546212.97645   9761225.14043                  24770086.3494
         7.5004          3.0004
  22585744.8104   -5948589.05846  -4600747.96646                  22585750.4704
        19.5004         18.2504
  24147062.3254   -2101833.99445  -1503203.67844                  24147071.6224
         9.0004          3.5004
  24444012.1854    7639517.46745   5952858.65444                  24444019.3604
         9.0004          4.0004
 00  5  5 15 32 30.0010000  0  7G 2G 4G 7G 8G 9G24G26
  21947455.5364    4094176.43547   3190260.84147                  21947461.6304
        23.7504         28.2504
  21630796.2634   -6888716.84647  -5356576.06046                  21630802.2044
        23.2504         24.7504
  21266491.3024    4281872.87247   3334050.91947                  21266496.9854
        24.5004         34.7504
  24783013.2474   12614209.43144   9814209.31943                  24783024.8534
         7.0004          2.7504
  22581319.7944   -5971843.43847  -4618868.27546                  22581325.2674
        20.2504         19.2504
  24138680.3494   -2145882.53745  -1537527.22143                  24138689.9034
         9.0004          3.2504
  24452624.4814    7684772.60945   5988122.30544                  24452630.9974
         9.2504          4.0004
 00  5  5 15 32 45.0010000  0  7G 2G 4G 7G 8G 9G24G26
  21952461.4274    4120482.75347   3210759.22647                  21952467.4974
        23.7504         29.0004
  21625474.8334   -6916681.00147  -5378366.30546                  21625480.8334
        23.5004         24.5004
  21271925.6614    4310430.13447   3356303.31147                  21271931.2284
        24.7504         35.0004
  24795954.0364   12682210.06544   9867196.70744                  24795964.7044
         7.2504          3.5004
  22576911.4354   -5995008.63547  -4636919.09146                  22576916.9314
        20.2504         19.0004
  24130299.1224   -2189927.18745  -1571847.70944                  24130308.4314
         9.2504          3.5004
  24461241.5364    7730054.79445   6023407.03544                  24461249.6384
         9.5004          4.0004
 00  5  5 15 33  0.0010000  0  7G 2G 4G 7G 8G 9G24G26
  21957477.2164    4146841.75847   3231298.66847                  21957483.2514
        23.0004         28.5004
  21620171.4974   -6944550.81347  -5400083.02846                  21620177.4624
        23.5004         24.7504
  21277368.8174    4339034.71947   3378592.58047                  21277374.5244
        24.7504         35.2504
  24808895.8564   12750215.90845   9920188.16344                  24808906.9704
         7.7504          3.7504
  22572520.4664   -6018083.17846  -4654899.26646                  22572525.7744
        19.7504         19.0004
  24121919.1694   -2233966.35945  -1606163.92244                  24121928.3724
         9.2504          4.2504
  24469864.0914    7775365.02145   6058713.65044                  24469871.7244
         9.2504          3.7504
 00  5  5 15 33 15.0010000  0  7G 2G 4G 7G 8G 9G24G26
  21962503.0524    4173252.31047   3251878.28247                  21962509.1814
        23.0004         28.5004
  21614885.5914   -6972327.28347  -5421727.01346                  21614891.6264
        23.0004         24.5004
  21282820.9814    4367685.12247   3400917.54247                  21282826.5484
        24.7504         35.7504
  24821836.7474   12818225.52944   9973182.57643                  24821846.3134
         7.2504          3.2504
  22568146.5834   -6041068.02946  -4672809.54846                  22568152.2434
        19.5004         18.5004
  24113538.9664   -2278000.96845  -1640476.57244                  24113547.9814
         8.7504          3.7504
  24478491.0134    7820701.59845   6094040.78044                  24478499.0214
         9.7504          3.5004
 00  5  5 15 33 30.0010000  0  7G 2G 4G 7G 8G 9G24G26
  21967538.6694    4199714.58447   3272498.19947                  21967544.7984
        23.0004         28.2504
  21609617.8104   -7000009.84647  -5443297.82746                  21609623.7744
        22.7504         24.5004
  21288281.5364    4396381.27247   3423278.15947                  21288287.0094
        25.0004         35.2504
  24834779.7554   12886238.46544  10026179.61743                  24834791.3604
         7.0004          3.0004
  22563789.7164   -6063962.67846  -4690649.54446                  22563795.2824
        19.5004         18.7504
  24105160.5914   -2322030.54245  -1674785.33444                  24105169.5134
         9.0004          4.0004
  24487123.6384    7866064.34145   6129388.30944                  24487130.7314
        10.0004          4.0004
 00  5  5 15 33 45.0010000  0  7G 2G 4G 7G 8G 9G24G26
  21972584.9274    4226232.27547   3293161.29647                  21972591.1034
        22.5004         27.7504
  21604368.5444   -7027594.59747  -5464792.41946                  21604374.4504
        22.5004         24.2504
  21293751.8024    4425126.69347   3445677.16647                  21293757.2744
        25.2504         36.0004
  24847723.2944   12954258.31144  10079181.95643                  24847735.3104
         6.2504          2.7504
  22559451.2244   -6086763.27446  -4708416.26146                  22559457.2004
        19.0004         18.5004
  24096783.8254   -2366051.12645  -1709087.05044                  24096794.0834
         9.2504          4.2504
  24495761.4424    7911456.45445   6164758.74044                  24495768.1924
        10.0004          3.7504
 00  5  5 15 34  0.0010000  0  7G 2G 4G 7G 8G 9G24G26
  21977641.1854    4252802.65947   3313865.44647                  21977647.3254
        22.7504         28.0004
  21599137.3884   -7055083.93247  -5486212.66446                  21599143.4464
        22.2504         24.0004
  21299230.5054    4453918.30147   3468112.15947                  21299235.8724
        25.0004         36.0004
  24860667.7554   13022281.89943  10132187.27343                  24860679.5604
         6.0004          2.5004
  22555129.7634   -6109472.36546  -4726111.66746                  22555135.2824
        19.2504         18.7504
  24088407.9194   -2410065.22045  -1743383.72545                  24088418.2474
         9.0004          4.7504
  24504403.9974    7956874.85145   6200149.63144                  24504411.3254
         9.7504          4.0004
 00  5  5 15 34 15.0010000  0  7G 2G 4G 7G 8G 9G24G26
  21982707.4974    4279426.08747   3334610.94047                  21982713.7784
        22.7504         28.2504
  21593924.6774   -7082477.46447  -5507558.25146                  21593930.5364
        22.5004         24.7504
  21304718.3334    4482756.20447   3490583.22947                  21304723.7594
        25.2504         36.2504
  24873612.9194   13090309.06643  10185195.35742                  24873626.4464
         5.5004          2.0004
  22550825.8334   -6132089.56346  -4743735.46946                  22550831.4234
        19.0004         19.0004
  24080033.7314   -2454072.28345  -1777674.88744                  24080043.4974
         8.5004          3.7504
  24513051.9424    8002319.36345   6235560.86244                  24513060.0794
         9.2504          4.0004
 00  5  5 15 34 30.0010000  0  7G 2G 4G 7G 8G 9G24G26
  21987784.0754    4306103.91647   3355398.82447                  21987790.2514
        23.2504         29.0004
  21588730.2394   -7109773.58647  -5528827.94246                  21588736.1924
        22.2504         25.0004
  21310214.9034    4511641.47447   3513091.20347                  21310220.4584
        25.0004         36.0004
  24886558.6464   13158341.00343  10238207.20242                  24886569.9464
         5.7504          2.2504
  22546539.8414   -6154613.26246  -4761286.41846                  22546545.3844
        19.0004         18.2504
  24071661.4034   -2498070.56245  -1811959.25844                  24071672.3644
         9.0004          4.2504
  24521705.0444    8047790.89145   6270993.11744                  24521713.4974
         8.7504          4.2504
 00  5  5 15 34 45.0010000  0  7G 2G 4G 7G 8G 9G24G26
  21992871.0674    4332835.94247   3376228.94147                  21992877.3254
        23.2504         28.5004
  21583554.6144   -7136972.11847  -5550021.58346                  21583560.6144
        22.5004         25.0004
  21315720.5834    4540573.63047   3535635.71447                  21315726.1854
        25.0004         35.7504
  24899505.6064   13226377.03943  10291222.14942                  24899515.5954
         5.2504          1.7504
  22542271.4034   -6177043.51346  -4778764.54446                  22542277.0634
        18.7504         18.7504
  24063290.6924   -2542060.00945  -1846236.71545                  24063300.2594
         8.2504          4.7504
  24530362.4424    8093288.77645   6306445.96544                  24530369.5954
         8.5004          4.2504
 00  5  5 15 35  0.0010000  0  7G 2G 4G 7G 8G 9G24G26
  21997968.3414    4359621.31247   3397100.61247                  21997974.3764
        23.5004         29.5004
  21578397.4034   -7164073.80747  -5571139.77046                  21578403.4624
        22.7504         25.5004
  21321234.9974    4569551.48147   3558215.83547                  21321240.6464
        24.7504         35.5004
  24912453.7314   13294415.92244  10344239.41842                  24912463.0754
         6.2504          2.0004
  22538020.9194   -6199380.87246  -4796170.29246                  22538026.7314
        18.7504         18.5004
  24054920.1064   -2586041.38345  -1880507.88345                  24054931.2674
         7.7504          4.5004
  24539025.4034    8138811.72245   6341918.28344                  24539032.7674
         7.7504          3.5004
 00  5  5 15 35 15.0010000  0  7G 2G 4G 7G 8G 9G24G26
  22003076.2944    4386464.25847   3418017.16247                  22003082.4584
        23.5004         29.7504
  21573259.5054   -7191074.01747  -5592178.87146                  21573265.5524
        23.0004         25.5004
  21326758.6854    4598579.10047   3580834.73747                  21326764.4974
        24.5004         35.5004
  24925401.3644   13362461.54643  10397261.93742                  24925413.5794
         5.7504          2.0004
  22533788.6224   -6221620.92146  -4813500.20446                  22533794.2354
        18.7504         18.0004
  24046554.0754   -2630010.07645  -1914769.12944                  24046564.3214
         8.7504          4.2504
  24547693.8024    8184363.45445   6377413.03944                  24547702.0794
         8.0004          3.7504
 00  5  5 15 35 30.0010000  0  7G 2G 4G 7G 8G 9G24G26
  22008195.0054    4413362.56547   3438976.84847                  22008201.1464
        23.7504         29.2504
  21568140.3024   -7217974.90047  -5613140.57947                  21568146.4074
        23.0004         26.0004
  21332291.3104    4627653.89947   3603490.40247                  21332297.0874
        24.2504         35.5004
  24938351.0444   13430511.36943  10450287.66542                  24938360.3994
         5.0004          2.0004
  22529574.8104   -6243765.69546  -4830755.88746                  22529580.5524
        18.2504         18.0004
  24038188.9114   -2673968.09145  -1949022.12945                  24038199.6854
         8.7504          4.5004
  24556366.6924    8229941.31245   6412928.18144                  24556374.0914
         8.2504          3.7504
 00  5  5 15 35 45.0010000  0  7G 2G 4G 7G 8G 9G24G26
  22013324.4424    4440316.89247   3459980.19347                  22013330.5364
        24.2504         30.0004
  21563040.2474   -7244775.45347  -5634024.10347                  21563046.2124
        22.7504         26.2504
  21337833.1064    4656776.26847   3626183.13047                  21337839.0604
        24.2504         35.2504
  24951301.5054   13498565.58243  10503316.80242                  24951313.8724
         5.0004          1.7504
  22525378.8254   -6265814.37046  -4847936.68546                  22525384.2514
        18.5004         17.7504
  24029826.1224   -2717914.62145  -1983266.14345                  24029835.8294
         8.5004          4.5004
  24565045.5994    8275545.52745   6448463.85944                  24565052.9624
         8.2504          3.7504
 00  5  5 15 36  0.0010000  0  7G 2G 4G 7G 8G 9G24G26
  22018464.2314    4467326.47247   3481026.59047                  22018470.3024
        24.2504         30.2504
  21557959.3024   -7271476.09747  -5654829.78347                  21557965.3374
        22.7504         25.7504
  21343383.8884    4685945.36147   3648912.27047                  21343389.7474
        24.5004         35.7504
  24964253.0524   13566623.24043  10556348.68042                  24964265.4784
         5.2504          2.0004
  22521201.3414   -6287767.42346  -4865042.98146                  22521207.0134
        18.2504         18.0004
  24021465.8174   -2761849.87945  -2017501.37745                  24021476.5324
         9.0004          4.7504
  24573728.7864    8321175.02545   6484019.23444                  24573736.0324
         8.7504          4.0004
 00  5  5 15 36 15.0010000  0  7G 2G 4G 7G 8G 9G24G26
  22023614.1924    4494390.28147   3502115.23947                  22023620.2744
        24.2504         29.5004
  21552897.2634   -7298077.71547  -5675558.29147                  21552903.2744
        22.7504         26.2504
  21348943.3964    4715159.77347   3671676.72647                  21348949.2084
        24.5004         35.5004
  24977204.4194   13634682.85943  10609382.13642                  24977218.7314
         5.5004          1.7504
  22517041.8024   -6309625.74846  -4882075.43946                  22517047.5794
        18.2504         17.7504
  24013106.7164   -2805774.79045  -2051728.56345                  24013116.6924
         9.2504          5.0004
  24582416.3104    8366828.17145   6519593.06144                  24582423.7434
         9.5004          4.2504
 00  5  5 15 36 30.0010000  0  7G 2G 4G 7G 8G 9G24G26
  22028774.8964    4521508.87847   3523246.57747                  22028781.0134
        24.2504         29.5004
  21547853.8564   -7324579.45647  -5696208.97847                  21547859.8684
        23.0004         26.2504
  21354511.2784    4744419.80047   3694476.72247                  21354517.0444
        24.7504         36.0004
  24990155.6854   13702744.58543  10662417.10442                  24990164.9584
         5.7504          2.0004
  22512900.3564   -6331388.62546  -4899033.53946                  22512906.0994
        18.2504         18.2504
  24004750.6614   -2849688.48745  -2085946.99545                  24004760.3924
         9.5004          5.0004
  24591108.4274    8412505.26045   6555185.51244                  24591115.8134
         9.0004          4.0004
 00  5  5 15 36 45.0010000  0  7G 2G 4G 7G 8G 9G24G26
  22033945.7714    4548682.01747   3544420.42047                  22033951.7244
        24.2504         29.7504
  21542829.9274   -7350981.36447  -5716781.87347                  21542835.8334
        23.0004         26.2504
  21360088.0284    4773724.80647   3717311.77147                  21360093.7354
        25.2504         36.0004
  25003108.4504   13770807.80744  10715453.38742                  25003120.5244
         6.5004          2.0004
  22508777.2314   -6353056.16346  -4915917.33946                  22508783.0564
        18.5004         18.2504
  23996396.0914   -2893591.08745  -2120156.78845                  23996405.9154
        10.0004          5.2504
  24599804.8964    8458205.40245   6590795.94744                  24599812.9154
         8.7504          3.7504
 00  5  5 15 37  0.0010000  0  7G 2G 4G 7G 8G 9G24G26
  22039126.8024    4575909.56547   3565636.66347                  22039132.7434
        23.7504         29.2504
  21537824.8414   -7377283.48647  -5737277.00947                  21537830.7004
        23.0004         26.5004
  21365673.0914    4803074.52547   3740181.66047                  21365678.7514
        25.2504         36.7504
  25016060.8494   13838871.99044  10768490.31543                  25016072.0324
         6.7504          2.5004
  22504672.2634   -6374628.23246  -4932726.75046                  22504677.9464
        18.7504         18.5004
  23988043.6304   -2937482.35445  -2154357.75345                  23988053.3134
        10.0004          5.0004
  24608505.9194    8503928.03045   6626423.88644                  24608513.0834
         8.2504          3.7504
 00  5  5 15 37 15.0010000  0  7G 2G 4G 7G 8G 9G24G26
  22044318.5834    4603192.25147   3586895.86147                  22044324.6884
        23.7504         28.5004
  21532838.8104   -7403484.62247  -5757693.46547                  21532844.8924
        23.5004         27.0004
  21371266.7864    4832469.31347   3763086.66647                  21371272.5174
        25.2504         36.7504
  25029012.4894   13906937.57144  10821528.40642                  25029021.7394
         6.2504          2.2504
  22500585.6304   -6396103.88346  -4949461.03746                  22500591.3254
        18.7504         18.5004
  23979693.9114   -2981361.40245  -2188549.16945                  23979703.3604
        10.0004          5.5004
  24617210.4664    8549673.47445   6662069.62043                  24617219.5404
         7.5004          3.2504
 00  5  5 15 37 30.0010000  0  7G 2G 4G 7G 8G 9G24G26
  22049521.0214    4630531.35047   3608199.02647                  22049527.2204
        23.5004         28.5004
  21527872.4974   -7429583.48247  -5778030.21647                  21527878.4384
        23.7504         27.2504
  21376869.2164    4861910.19547   3786027.58747                  21376874.8764
        25.2504         36.0004
  25041965.5754   13975005.34044  10874568.13142                  25041975.0134
         6.2504          2.0004
  22496517.5994   -6417481.74246  -4966119.11346                  22496523.5404
        18.7504         19.2504
  23971346.7084   -3025226.67945  -2222729.88245                  23971356.0524
        10.0004          5.2504
  24625920.3104    8595442.53245   6697733.73444                  24625926.8134
         7.5004          3.5004
 00  5  5 15 37 45.0010000  0  7G 2G 4G 7G 8G 9G24G26
  22054734.1464    4657926.44547   3629545.82447                  22054740.2284
        22.7504         27.5004
  21522925.5214   -7455580.10747  -5798287.30347                  21522931.4504
        23.7504         27.5004
  21382480.2944    4891396.55947   3809003.95347                  21382485.8254
        25.0004         36.5004
  25054919.3174   14043074.72843  10927609.12842                  25054930.0324
         6.0004          2.0004
  22492468.2634   -6438762.10046  -4982701.21646                  22492474.0874
        19.0004         18.5004
  23963001.7634   -3069078.32045  -2256899.97845                  23963010.5674
        10.2504          5.2504
  24634634.3254    8641234.34545   6733415.57244                  24634641.6304
         7.7504          3.5004
 00  5  5 15 38  0.0010000  0  7G 2G 4G 7G 8G 9G24G26
  22059957.9194    4685377.47247   3650936.20347                  22059964.1424
        22.7504         27.2504
  21517998.0214   -7481474.35347  -5818464.61847                  21518004.0214
        24.0004         27.7504
  21388099.8564    4920928.03647   3832015.46447                  21388105.6344
        24.5004         36.5004
  25067872.2634   14111145.13244  10980650.98642                  25067882.6034
         6.5004          2.2504
  22488437.2474   -6459944.80446  -4999207.23246                  22488443.2594
        19.0004         19.0004
  23954659.6774   -3112916.13445  -2291059.27545                  23954668.4704
        10.0004          4.7504
  24643351.5364    8687048.44345   6769114.77244                  24643357.3494
         7.5004          3.5004
 00  5  5 15 38 15.0010000  0  7G 2G 4G 7G 8G 9G24G26
  22065192.0674    4712883.11547   3672369.14147                  22065198.3604
        22.2504         26.2504
  21513089.6064   -7507267.35047  -5838563.03547                  21513095.5244
        24.2504         28.5004
  21393727.8494    4950503.09847   3855060.94247                  21393733.5914
        24.5004         36.0004
  25080825.8804   14179214.95244  11033692.32742                  25080836.9814
         7.2504          2.2504
  22484424.7164   -6481030.80446  -5015637.89346                  22484430.6104
        19.5004         19.5004
  23946320.2244   -3156741.08045  -2325208.56544                  23946327.9744
        10.2504          4.2504
  24652074.7784    8732883.06845   6804829.98444                  24652081.3294
         8.2504          3.7504
 00  5  5 15 38 30.0010000  0  7G 2G 4G 7G 8G 9G24G26
  22070436.4274    4740442.98747   3693844.33647                  22070442.5564
        22.2504         26.0004
  21508200.6614   -7532959.12047  -5858582.57647                  21508206.6034
        24.2504         29.0004
  21399363.9744    4980121.09247   3878139.87247                  21399369.8104
        24.5004         36.0004
  25093778.9034   14247283.37744  11086732.69242                  25093790.5914
         7.0004          2.2504
  22480430.1304   -6502020.35046  -5031993.39746                  22480436.0484
        19.5004         19.7504
  23937983.3964   -3200553.33845  -2359347.96545                  23937991.7434
        10.2504          4.5004
  24660800.6144    8778737.43845   6840560.56744                  24660807.0954
         8.5004          3.7504
 00  5  5 15 38 45.0010000  0  6G 2G 4G 7G 9G24G26
  22075691.2554    4768057.52047   3715362.13047                  22075697.5834
        22.0004         26.2504
  21503331.0754   -7558549.05747  -5878522.76047                  21503337.2164
        24.0004         29.0004
  21405008.2314    5009782.19447   3901252.39547                  21405014.2674
        24.5004         36.0004
  22476454.7004   -6522912.89146  -5048273.30146                  22476460.4424
        19.5004         19.5004
  23929648.2314   -3244352.10745  -2393476.85544                  23929657.1534
         9.7504          4.2504
  24669529.7474    8824611.55845   6876306.58644                  24669535.9704
         8.2504          4.0004
 00  5  5 15 39  0.0010000  0  6G 2G 4G 7G 9G24G26
  22080956.9664    4795728.68447   3736924.04047                  22080963.2714
        22.0004         26.5004
  21498481.3884   -7584034.87447  -5898381.81847                  21498487.3994
        24.7504         29.2504
  21410661.0054    5039488.06447   3924399.80147                  21410666.9584
        24.2504         36.2504
  22472497.8884   -6543706.22046  -5064475.90846                  22472503.7354
        19.7504         19.5004
  23921316.3494   -3288135.36545  -2427593.62345                  23921325.0834
         9.7504          4.5004
  24678263.7004    8870506.78445   6912069.00845                  24678271.8024
         8.5004          4.7504
 00  5  5 15 39 15.0010000  0  6G 2G 4G 7G 9G24G26
  22086233.7244    4823458.18047   3758531.41847                  22086239.8534
        22.0004         26.2504
  21493651.6534   -7609414.84547  -5918158.39947                  21493657.5714
        24.5004         29.2504
  21416322.8964    5069240.15847   3947583.22747                  21416328.7784
        25.0004         36.0004
  22468560.2634   -6564398.49847  -5080599.76146                  22468566.0634
        20.0004         20.0004
  23912987.8644   -3331901.04445  -2461696.75644                  23912996.0134
         9.2504          3.5004
  24687001.7474    8916424.43145   6947848.93344                  24687009.7314
         8.2504          4.0004
 00  5  5 15 39 30.0010000  0  6G 2G 4G 7G 9G24G26
  22091521.3804    4851244.30547   3780182.91347                  22091527.5324
        22.2504         26.7504
  21488841.9504   -7634690.37747  -5937853.59947                  21488847.9034
        24.7504         29.5004
  21421992.9504    5099036.47947   3970801.11247                  21421998.7164
        24.5004         36.0004
  22464641.8254   -6584991.21947  -5096646.04646                  22464647.6614
        20.2504         20.0004
  23904662.6694   -3375650.59345  -2495787.26844                  23904669.8924
         8.5004          4.0004
  24695743.1464    8962362.43845   6983644.71544                  24695751.8564
         7.5004          3.5004
 00  5  5 15 39 45.0010000  0  6G 2G 4G 7G 9G24G26
  22096819.6924    4879087.40047   3801878.79547                  22096825.9034
        22.7504         28.0004
  21484052.1694   -7659860.75647  -5957466.85847                  21484058.0404
        25.0004         29.2504
  21427671.4034    5128877.12947   3994053.54147                  21427677.1814
        24.7504         36.0004
  22460742.1534   -6605483.97347  -5112614.43346                  22460747.8254
        20.2504         20.5004
  23896340.0604   -3419383.37545  -2529864.73544                  23896348.6304
         8.2504          3.5004
  24704488.6304    9008320.64844   7019456.23743                  24704496.0754
         6.7504          3.2504
 00  5  5 15 40  0.0010000  0  6G 2G 4G 7G 9G24G26
  22102128.7084    4906985.44847   3823617.50347                  22102134.8964
        23.5004         28.0004
  21479282.1224   -7684928.02947  -5976999.77947                  21479288.2744
        24.7504         29.5004
  21433357.9194    5158759.76047   4017338.69147                  21433363.7314
        25.0004         36.0004
  22456860.9814   -6625878.60747  -5128506.36846                  22456866.6064
        20.5004         20.5004
  23888021.0214   -3463101.23045  -2563930.55744                  23888030.2714
         8.0004          3.7504
  24713237.3724    9054296.47044   7055281.49543                  24713245.7314
         6.7504          3.0004
 00  5  5 15 40 15.0010000  0  6G 2G 4G 7G 9G24G26
  22107448.3024    4934939.16947   3845399.58947                  22107454.4784
        24.0004         29.0004
  21474531.7004   -7709890.98547  -5996451.41447                  21474537.6064
        25.2504         29.7504
  21439052.5524    5188684.84347   4040656.91147                  21439058.4584
        24.5004         36.0004
  22452999.2474   -6646174.16347  -5144321.09446                  22453004.9664
        20.5004         20.5004
  23879704.9894   -3506803.16545  -2597983.99244                  23879713.7824
         8.2504          4.0004
  24721989.8644    9100290.35144   7091120.78343                  24721997.2744
         6.2504          2.7504
 00  5  5 15 40 30.0010000  0  6G 2G 4G 7G 9G24G26
  22112783.5754    4962976.38347   3867246.72547                  22112789.6104
        24.2504         29.5004
  21469806.5214   -7734721.76147  -6015800.05347                  21469812.4974
        25.2504         29.5004
  21444760.4114    5218679.99047   4064029.72647                  21444766.4464
        24.5004         35.2504
  22449161.0914   -6666342.56547  -5160036.74146                  22449166.7984
        20.5004         20.5004
  23871397.1694   -3550461.09845  -2632003.13444                  23871406.4784
         8.5004          4.0004
  24730750.7004    9146329.56544   7126995.40743                  24730757.6304
         6.7504          3.0004
 00  5  5 15 40 45.0010000  0  6G 2G 4G 7G 9G24G26
  22118131.5054    4991079.79247   3889145.45747                  22118137.4114
        24.5004         30.0004
  21465103.5214   -7759437.28347  -6035058.88447                  21465109.4274
        25.2504         29.7504
  21450478.2314    5248727.69247   4087443.50147                  21450484.0564
        24.5004         35.0004
  22445344.2634   -6686400.85547  -5175666.58646                  22445350.0054
        20.5004         20.2504
  23863094.1614   -3594092.02345  -2666001.19544                  23863103.2944
         8.5004          4.0004
  24739518.0214    9192396.50745   7162891.63544                  24739527.1304
         7.5004          3.7504
 00  5  5 15 41  0.0010000  0  6G 2G 4G 7G 9G24G26
  22123490.4814    5019240.74447   3911089.02147                  22123496.5054
        24.5004         30.2504
  21460420.4354   -7784046.00247  -6054234.49047                  21460426.3294
        25.2504         29.7504
  21456204.5134    5278818.93647   4110891.19747                  21456210.4074
        24.2504         34.5004
  22441546.6614   -6706357.58747  -5191217.30546                  22441552.4504
        20.2504         20.2504
  23854795.5134   -3637704.34845  -2699984.82544                  23854804.6814
         8.7504          4.2504
  24748287.6774    9238481.98445   7198802.31444                  24748295.6614
         8.0004          4.2504
 00  5  5 15 41 15.0010000  0  6G 2G 4G 7G 9G24G26
  22128859.9194    5047457.78347   3933076.29147                  22128865.9894
        24.0004         30.0004
  21455757.7084   -7808549.31647  -6073327.96547                  21455763.6144
        25.2504         30.0004
  21461938.7004    5308951.99047   4134371.47947                  21461944.6884
        24.2504         35.2504
  22437767.8414   -6726214.22747  -5206690.02146                  22437773.7944
        20.2504         20.0004
  23846499.7314   -3681299.37245  -2733954.93445                  23846509.6034
         9.5004          4.7504
  24757060.8024    9284583.99645   7234725.87344                  24757068.3884
         8.2504          4.2504
 00  5  5 15 41 30.0010000  0  6G 2G 4G 7G 9G24G26
  22134240.4584    5075732.55647   3955108.54447                  22134246.6464
        24.0004         29.7504
  21451115.1304   -7832945.27747  -6092337.77947                  21451121.0834
        25.2504         29.7504
  21467680.9274    5339128.22947   4157885.40847                  21467686.8214
        24.5004         34.7504
  22434008.7714   -6745968.87147  -5222083.26646                  22434014.4784
        20.2504         20.5004
  23838207.2244   -3724875.11545  -2767910.02945                  23838217.0484
         9.2504          5.2504
  24765836.9744    9330703.86845   7270663.36845                  24765845.2864
         8.5004          4.7504
 00  5  5 15 41 45.0010000  0  6G 2G 4G 7G 9G24G26
  22139632.2944    5104066.35347   3977186.79047                  22139638.6814
        23.5004         29.5004
  21446493.5524   -7857232.28747  -6111262.70647                  21446499.3644
        25.0004         29.2504
  21473431.5754    5369348.73047   4181433.82447                  21473437.4704
        25.0004         35.0004
  22430269.5284   -6765619.85947  -5237395.73846                  22430275.3884
        20.2504         19.7504
  23829918.7944   -3768429.96545  -2801848.83445                  23829928.5134
         9.5004          5.2504
  24774617.0834    9376842.36045   7306615.33044                  24774625.6774
         8.5004          4.2504
 00  5  5 15 42  0.0010000  0  6G 2G 4G 7G 9G24G26
  22145035.2164    5132458.50447   3999310.50947                  22145041.4504
        22.7504         28.7504
  21441892.5054   -7881410.85947  -6130103.13947                  21441898.5754
        25.0004         28.5004
  21479190.8644    5399612.57747   4205016.02147                  21479196.6534
        25.2504         35.5004
  22426549.5914   -6785167.80746  -5252627.91946                  22426555.2984
        19.7504         20.2504
  23821634.7784   -3811964.42045  -2835771.75245                  23821645.9154
         9.7504          5.7504
  24783399.7244    9422998.43945   7342581.04044                  24783406.4154
         8.0004          4.0004
 00  5  5 15 42 15.0010000  0  6G 2G 4G 7G 9G24G26
  22150449.0674    5160909.29947   4021479.93347                  22150455.4424
        22.5004         28.0004
  21437311.9974   -7905480.41247  -6148858.61647                  21437317.9744
        24.7504         28.7504
  21484958.3104    5429919.75147   4228631.97747                  21484963.8884
        25.5004         36.0004
  22422849.2394   -6804612.27646  -5267779.46846                  22422855.1224
        19.7504         20.2504
  23813354.4114   -3855477.75745  -2869678.22245                  23813364.7164
        10.0004          5.7504
  24792186.0834    9469171.94844   7378560.29043                  24792193.7394
         7.2504          3.2504
 00  5  5 15 42 30.0010000  0  6G 2G 4G 7G 9G24G26
  22155874.1924    5189418.85447   4043695.13547                  22155880.7314
        22.2504         28.0004
  21432752.4894   -7929440.79447  -6167529.02547                  21432758.3964
        24.5004         28.5004
  21490733.7244    5460270.25847   4252281.69547                  21490739.2314
        25.7504         36.2504
  22419168.8024   -6823952.90946  -5282850.09946                  22419174.6384
        19.7504         20.2504
  23805078.0134   -3898969.69045  -2903567.99245                  23805088.3534
        10.0004          5.5004
  24800976.0994    9515362.53044   7414552.87143                  24800984.0834
         6.7504          3.2504
 00  5  5 15 42 45.0010000  0  6G 2G 4G 7G 9G24G26
  22161310.4814    5217987.00447   4065955.99847                  22161316.9154
        22.0004         26.7504
  21428213.8024   -7953291.62847  -6186114.07447                  21428219.8134
        24.5004         28.0004
  21496517.3964    5490663.49547   4275964.71447                  21496522.9744
        26.0004         36.7504
  22415508.3334   -6843189.62246  -5297839.75946                  22415514.2864
        19.7504         19.7504
  23796806.1534   -3942440.07445  -2937440.99245                  23796816.3764
        10.2504          5.7504
  24809769.9424    9561569.76344   7450558.42343                  24809778.3724
         6.7504          3.2504
 00  5  5 15 43  0.0010000  0  6G 2G 4G 7G 9G24G26
  22166758.4504    5246614.91747   4088263.44447                  22166764.7554
        21.7504         26.5004
  21423696.2164   -7977031.71747  -6204612.82047                  21423702.0874
        24.2504         28.0004
  21502309.4424    5521100.55547   4299681.88347                  21502315.0444
        25.7504         36.7504
  22411867.6854   -6862321.10846  -5312747.42446                  22411873.6384
        19.7504         20.2504
  23788538.0364   -3985887.56045  -2971296.13245                  23788548.4814
        10.2504          6.0004
  24818565.9744    9607794.16244   7486577.35842                  24818572.7944
         7.2504          2.2504
 00  5  5 15 43 15.0010000  0  6G 2G 4G 7G 9G24G26
  22172217.4584    5275303.00147   4110617.75947                  22172223.7744
        21.7504         25.7504
  21419199.9744   -8000660.38847  -6223024.75947                  21419205.9274
        24.2504         27.5004
  21508109.8254    5551581.42147   4323433.18047                  21508115.4384
        26.0004         36.2504
  22408247.0524   -6881346.76647  -5327572.62346                  22408252.7944
        20.2504         21.0004
  23780274.4814   -4029311.38245  -3005132.85145                  23780284.3414
        10.2504          5.7504
  24827365.2474    9654035.79845   7522609.73643                  24827373.9584
         7.7504          3.0004
 00  5  5 15 43 30.0010000  0  6G 2G 4G 7G 9G24G26
  22177687.7554    5304049.82747   4133017.83847                  22177693.7674
        22.0004         26.0004
  21414724.4274   -8024178.92147  -6241350.87747                  21414730.4154
        24.2504         27.5004
  21513918.2244    5582104.57047   4347217.42547                  21513923.8964
        26.0004         36.5004
  22404646.6064   -6900267.94947  -5342316.42246                  22404652.3604
        20.5004         21.0004
  23772015.3804   -4072712.77745  -3038952.07245                  23772024.8534
        10.2504          5.7504
  24836167.7714    9700292.72445   7558654.01444                  24836176.1654
         8.7504          3.5004
 00  5  5 15 43 45.0010000  0  6G 2G 4G 7G 9G24G26
  22183169.5214    5332854.60747   4155463.08547                  22183175.9314
        22.2504         26.0004
  21410269.9424   -8047587.80247  -6259591.55047                  21410276.0014
        24.0004         27.2504
  21519734.4114    5612668.89347   4371033.75547                  21519739.9424
        25.7504         36.5004
  22401065.5914   -6919085.28547  -5356979.29146                  22401071.4384
        20.2504         20.7504
  23763760.8494   -4116092.23345  -3072754.21245                  23763770.6854
        10.2504          5.7504
  24844973.4894    9746563.85945   7594709.37844                  24844980.7244
         9.2504          3.5004
 00  5  5 15 44  0.0010000  0  6G 2G 4G 7G 9G24G26
  22188662.0134    5361718.63547   4177954.50447                  22188668.1424
        22.5004         25.7504
  21405836.3414   -8070885.50947  -6277745.59247                  21405842.3174
        24.2504         27.2504
  21525558.4974    5643275.41347   4394882.96447                  21525564.1574
        25.5004         36.0004
  22397505.0134   -6937797.26047  -5371560.06646                  22397510.7784
        20.5004         21.0004
  23755510.4894   -4159448.10545  -3106537.98445                  23755520.2784
        10.5004          5.7504
  24853781.7314    9792849.94745   7630776.36644                  24853789.7514
         9.7504          3.7504
 00  5  5 15 44 15.0010000  0  6G 2G 4G 7G 9G24G26
  22194166.5444    5390644.08247   4200493.78447                  22194172.8134
        22.7504         26.2504
  21401424.6304   -8094069.73247  -6295811.20447                  21401430.5014
        23.7504         27.2504
  21531391.2394    5673926.05347   4418766.56047                  21531397.0054
        25.2504         35.7504
  22393964.7164   -6956401.57447  -5386056.94646                  22393970.7044
        21.0004         21.5004
  23747265.1224   -4202778.12345  -3140301.61145                  23747274.7594
        10.5004          6.0004
  24862592.4744    9839152.64645   7666856.31744                  24862600.9744
         9.7504          3.5004
 00  5  5 15 44 30.0010000  0  6G 2G 4G 7G 9G24G26
  22199681.8884    5419627.81047   4223078.47247                  22199688.2044
        23.2504         26.0004
  21397033.7634   -8117143.37047  -6313790.64647                  21397039.5994
        24.2504         27.0004
  21537231.5524    5704617.26847   4442681.76647                  21537237.1184
        25.0004         35.5004
  22390444.6464   -6974901.05247  -5400472.14746                  22390450.4354
        21.5004         22.0004
  23739024.1304   -4246085.12745  -3174047.29645                  23739033.5214
        10.7504          5.7504
  24871405.7004    9885468.48445   7702946.52644                  24871414.0834
         9.7504          3.5004
 00  5  5 15 44 45.0010000  0  6G 2G 4G 7G 9G24G26
  22205208.8334    5448672.09747   4245710.35247                  22205215.0094
        23.5004         26.5004
  21392664.5214   -8140103.99847  -6331682.03047                  21392670.3924
        24.0004         27.2504
  21543079.9354    5735351.23847   4466630.29247                  21543085.8534
        24.7504         35.2504
  22386944.6304   -6993293.30847  -5414803.79046                  22386950.4314
        21.2504         22.0004
  23730787.9114   -4289366.54345  -3207773.04245                  23730797.1734
        10.7504          6.0004
  24880222.6774    9931799.23845   7739048.32344                  24880230.8604
         9.5004          3.5004
 00  5  5 15 45  0.0010000  0  6G 2G 4G 7G 9G24G26
  22210746.8644    5477773.99247   4268387.12447                  22210752.8994
        23.5004         27.0004
  21388316.2084   -8162954.32947  -6349487.46947                  21388322.1144
        23.7504         27.2504
  21548935.9354    5766124.69547   4490609.58547                  21548941.7824
        24.7504         35.5004
  22383464.5754   -7011581.26247  -5429054.16146                  22383470.4584
        21.2504         21.7504
  23722555.8334   -4332625.03845  -3241480.92945                  23722564.8964
        10.5004          5.7504
  24889041.3964    9978141.51445   7775159.11544                  24889050.6224
         8.2504          3.5004
 00  5  5 15 45 15.0010000  0  6G 2G 4G 7G 9G24G26
  22216296.4114    5506937.08847   4291111.57147                  22216302.4584
        23.5004         26.5004
  21383989.5364   -8185690.44847  -6367203.90847                  21383995.5364
        23.2504         27.5004
  21554800.1924    5796940.98447   4514622.25247                  21554806.0754
        24.5004         34.7504
  22380005.1064   -7029761.09047  -5443220.27946                  22380010.9074
        21.5004         21.7504
  23714329.2394   -4375856.87245  -3275168.03945                  23714338.5134
        10.7504          5.7504
  24897861.9894   10024498.46745   7811281.29044                  24897870.5604
         7.5004          3.5004
 00  5  5 15 45 30.0010000  0  6G 2G 4G 7G 9G24G26
  22221857.7554    5536161.99047   4313884.18047                  22221864.0134
        23.7504         26.7504
  21379684.9424   -8208311.58347  -6384830.74947                  21379690.9784
        23.2504         27.0004
  21560672.5364    5827800.63647   4538668.70847                  21560678.5244
        24.5004         35.0004
  22376566.5054   -7047831.84547  -5457301.40846                  22376572.2004
        21.7504         22.2504
  23706107.4814   -4419060.88845  -3308833.47545                  23706116.2164
        11.0004          6.0004
  24906687.2634   10070870.40545   7847415.22343                  24906696.8174
         7.5004          2.7504
 00  5  5 15 45 45.0010000  0  6G 2G 4G 7G 9G24G26
  22227430.7474    5565447.90547   4336704.33047                  22227436.9114
        23.5004         26.7504
  21375402.2244   -8230818.23947  -6402368.39247                  21375408.1774
        23.5004         27.0004
  21566552.9664    5858702.53547   4562748.09047                  21566558.9194
        24.5004         35.0004
  22373148.2554   -7065794.15747  -5471298.03046                  22373154.1384
        22.0004         21.7504
  23697891.2944   -4462237.74045  -3342477.72845                  23697900.4504
        10.5004          6.0004
  24915513.8644   10117256.09944   7883559.78343                  24915524.2984
         7.2504          2.7504
 00  5  5 15 46  0.0010000  0  6G 2G 4G 7G 9G24G26
  22233015.5054    5594796.25447   4359573.13147                  22233021.6224
        23.5004         26.7504
  21371141.2944   -8253208.85247  -6419815.60847                  21371147.2714
        23.7504         27.2504
  21572441.7244    5889647.79847   4586861.25547                  21572447.5714
        24.5004         34.7504
  22369750.9034   -7083646.48847  -5485208.95746                  22369756.7634
        21.7504         22.5004
  23689680.2784   -4505385.71045  -3376099.49745                  23689689.4704
        10.2504          6.0004
  24924343.3174   10163656.41645   7919715.82743                  24924352.7784
         7.7504          2.5004
 00  5  5 15 46 15.0010000  0  6G 2G 4G 7G 9G24G26
  22238611.6854    5624203.78347   4382488.06247                  22238617.9544
        23.0004         26.7504
  21366901.9664   -8275486.53047  -6437174.82347                  21366907.8494
        24.2504         27.2504
  21578338.1614    5920632.88947   4611005.45347                  21578344.1034
        25.2504         35.2504
  22366374.4034   -7101391.94147  -5499036.60146                  22366380.1464
        21.7504         22.0004
  23681474.7474   -4548507.84945  -3409701.12045                  23681484.8994
        10.2504          6.0004
  24933175.4504   10210067.80245   7955880.44243                  24933184.8994
         8.0004          2.7504
 00  5  5 15 46 30.0010000  0  6G 2G 4G 7G 9G24G26
  22244219.5914    5653674.01447   4405451.83847                  22244225.8134
        22.5004         26.7504
  21362684.8104   -8297647.39247  -6454443.01447                  21362690.8334
        24.0004         27.5004
  21584242.6224    5951661.16447   4635183.30647                  21584248.5054
        25.2504         35.7504
  22363018.3964   -7119026.85047  -5512778.10446                  22363024.1854
        22.0004         22.2504
  23673274.2714   -4591600.47245  -3443279.74345                  23673283.5914
        10.2504          6.0004
  24942010.0674   10256493.18045   7992056.01843                  24942018.6614
         8.2504          2.5004
 00  5  5 15 46 45.0010000  0  6G 2G 4G 7G 9G24G26
  22249839.1774    5683204.90147   4428462.87947                  22249845.4464
        22.2504         26.2504
  21358489.8334   -8319693.39347  -6471621.70547                  21358495.5874
        24.2504         27.5004
  21590154.8494    5982730.30247   4659392.99647                  21590160.6494
        25.5004         36.0004
  22359683.4034   -7136553.03747  -5526434.88846                  22359689.1464
        22.0004         22.5004
  23665079.5834   -4634665.08845  -3476836.56645                  23665088.9274
        10.2504          5.5004
  24950846.5994   10302930.14645   8028240.59143                  24950853.7984
         8.2504          2.7504
 00  5  5 15 47  0.0010000  0  6G 2G 4G 7G 9G24G26
  22255470.3494    5712796.08047   4451520.90147                  22255476.6534
        22.2504         26.7504
  21354316.3564   -8341624.78347  -6488711.08947                  21354322.3684
        24.5004         27.7504
  21596074.8104    6013839.67747   4683634.04247                  21596080.5994
        25.7504         36.2504
  22356368.8174   -7153970.76847  -5540007.16246                  22356374.6534
        22.0004         22.2504
  23656889.4974   -4677702.00545  -3510371.77345                  23656898.9234
        10.0004          5.7504
  24959685.5604   10349377.88945   8064433.59643                  24959693.7434
         8.5004          2.7504
 00  5  5 15 47 15.0010000  0  6G 2G 4G 7G 9G24G26
  22261112.9034    5742448.46647   4474626.61147                  22261119.2674
        22.0004         26.2504
  21350165.0134   -8363440.15147  -6505710.06047                  21350171.0134
        24.5004         28.5004
  21602002.6774    6044989.98847   4707906.98047                  21602008.3844
        25.5004         36.0004
  22353075.3104   -7171278.79547  -5553493.95546                  22353081.2164
        22.2504         23.2504
  23648705.4504   -4720709.96245  -3543884.44445                  23648715.0404
        10.0004          5.7504
  24968527.1464   10395836.96545   8100635.40243                  24968535.1184
         8.0004          2.7504
 00  5  5 15 47 30.0010000  0  6G 2G 4G 7G 9G24G26
  22266766.9664    5772161.27447   4497779.40947                  22266773.2354
        21.2504         26.0004
  21346035.6924   -8385140.19847  -6522619.17547                  21346041.6344
        24.7504         28.7504
  21607937.9584    6076180.28647   4732211.08747                  21607943.7354
        25.7504         35.7504
  22349802.5444   -7188477.75347  -5566895.75046                  22349808.3564
        22.7504         24.0004
  23640526.5214   -4763689.45945  -3577374.92445                  23640536.0404
        10.0004          6.0004
  24977369.6694   10442306.12644   8136845.06243                  24977378.3804
         7.2504          3.0004
 00  5  5 15 47 45.0010000  0  6G 2G 4G 7G 9G24G26
  22272432.9114    5801935.90247   4520980.38147                  22272439.4854
        21.5004         26.2504
  21341928.4274   -8406723.34047  -6539437.19547                  21341934.2634
        24.5004         29.0004
  21613881.0364    6107411.50947   4756547.07647                  21613886.8254
        25.7504         36.0004
  22346550.8884   -7205566.25147  -5580211.47846                  22346556.5484
        22.7504         24.2504
  23632353.7394   -4806638.76045  -3610841.86845                  23632363.8804
        10.2504          6.0004
  24986214.0994   10488786.32544   8173063.34943                  24986222.2824
         6.2504          2.5004
 00  5  5 15 48  0.0010000  0  6G 2G 4G 7G 9G24G26
  22278110.4424    5831771.90047   4544229.16747                  22278117.0054
        21.2504         26.0004
  21337843.4354   -8428189.82747  -6556164.31347                  21337849.3994
        24.5004         29.0004
  21619831.7944    6138683.08147   4780914.50547                  21619837.5714
        25.5004         36.0004
  22343319.8804   -7222544.48247  -5593441.28446                  22343325.7394
        22.7504         24.7504
  23624186.2944   -4849558.02345  -3644285.41545                  23624196.1654
        10.7504          5.7504
  24995060.2784   10535276.67643   8209289.50343                  24995067.8414
         5.2504          2.5004
 00  5  5 15 48 15.0010000  0  6G 2G 4G 7G 9G24G26
  22283800.0214    5861670.68647   4567526.89046                  22283806.6064
        21.2504         25.5004
  21333781.1854   -8449538.03147  -6572799.26647                  21333787.0674
        24.2504         28.7504
  21625790.6064    6169996.24747   4805314.34947                  21625796.4314
        25.5004         36.0004
  22340110.2164   -7239410.80047  -5606583.87946                  22340116.0404
        22.7504         24.7504
  23616025.1144   -4892445.58645  -3677704.27745                  23616035.4784
        10.7504          6.0004
  25003909.9744   10581778.18643   8245524.28842                  25003917.4664
         5.0004          2.2504
 00  5  5 15 48 30.0010000  0  6G 2G 4G 7G 9G24G26
  22289501.2714    5891630.14647   4590871.88247                  22289507.8454
        21.7504         25.7504
  21329740.6924   -8470769.90847  -6589343.57247                  21329746.5174
        24.2504         29.2504
  21631756.5754    6201348.55647   4829744.68947                  21631762.5054
        25.5004         35.7504
  22336921.6144   -7256167.21247  -5619640.83546                  22336927.3684
        22.7504         25.0004
  23607869.7244   -4935303.43945  -3711099.95545                  23607879.5364
        10.7504          6.2504
  25012760.0834   10628288.28743   8281765.86842                  25012768.7124
         5.0004          2.2504
 00  5  5 15 48 45.0010000  0  6G 2G 4G 7G 9G24G26
  22295214.2634    5921651.83947   4614265.36446                  22295220.5674
        21.7504         25.5004
  21325723.0364   -8491883.58447  -6605795.77547                  21325728.9784
        24.5004         29.2504
  21637730.6064    6232741.45647   4854206.65947                  21637736.3134
        25.5004         35.5004
  22333754.2554   -7272811.91347  -5632610.74946                  22333760.0914
        22.7504         25.0004
  23599720.3174   -4978129.54945  -3744470.90445                  23599729.2744
        11.2504          5.7504
  25021613.1384   10674808.22843   8318015.05643                  25021623.1264
         5.2504          2.5004
 00  5  5 15 49  0.0010000  0  6G 2G 4G 7G 9G24G26
  22300939.3254    5951736.45047   4637707.87746                  22300945.8064
        22.0004         25.2504
  21321727.8254   -8512878.27247  -6622155.26047                  21321733.6964
        25.0004         30.5004
  21643712.1064    6264175.12247   4878700.39947                  21643717.9074
        25.2504         35.5004
  22330608.4194   -7289344.11847  -5645492.99946                  22330614.1614
        22.7504         25.0004
  23591576.7474   -5020923.17745  -3777816.56045                  23591586.0214
        11.5004          6.0004
  25030466.9664   10721338.09943   8354271.99942                  25030476.9424
         5.2504          2.2504
 00  5  5 15 49 15.0010000  0  6G 2G 4G 7G 9G24G26
  22306675.8644    5981881.42647   4661197.43046                  22306682.3564
        22.2504         25.5004
  21317754.9504   -8533756.33047  -6638423.86547                  21317760.8104
        25.2504         30.7504
  21649701.0994    6295646.96447   4903223.88147                  21649706.9114
        25.2504         35.7504
  22327483.2944   -7305766.25947  -5658289.49246                  22327489.1884
        22.5004         24.7504
  23583438.9974   -5063686.55245  -3811138.62645                  23583447.8724
        11.5004          6.2504
  25039322.9194   10767874.94043   8390534.41243                  25039330.4934
         5.7504          2.5004
 00  5  5 15 49 30.0010000  0  6G 2G 4G 7G 9G24G26
  22312423.7714    6012087.35747   4684734.47346                  22312430.0284
        22.7504         25.2504
  21313804.3414   -8554516.90547  -6654600.92447                  21313810.3064
        25.5004         31.2504
  21655697.3964    6327157.27847   4927777.34247                  21655703.1854
        25.0004         35.0004
  22324379.4274   -7322077.54647  -5670999.59246                  22324385.2744
        22.5004         24.7504
  23575307.2714   -5106418.63145  -3844436.32445                  23575315.8174
        11.7504          6.0004
  25048182.4114   10814418.97844   8426802.41443                  25048188.9504
         6.2504          2.5004
 00  5  5 15 49 45.0010000  0  6G 2G 4G 7G 9G24G26
  22318183.7714    6042355.32847   4708319.86246                  22318189.8764
        23.0004         25.5004
  21309876.4034   -8575158.57747  -6670685.33047                  21309882.2514
        25.7504         32.2504
  21661701.1144    6358706.96347   4952361.48647                  21661707.0444
        25.0004         34.7504
  22321296.7394   -7338276.64047  -5683622.28246                  22321302.6344
        22.2504         24.2504
  23567182.1614   -5149118.06146  -3877708.53645                  23567190.5564
        12.0004          6.7504
  25057039.3494   10860970.90443   8463076.54143                  25057046.3024
         6.0004          2.5004
 00  5  5 15 50  0.0010000  0  6G 2G 4G 7G 9G24G26
  22323955.3644    6072684.79347   4731953.16046                  22323961.4114
        23.5004         25.5004
  21305970.9974   -8595681.94247  -6686677.55547                  21305976.9974
        26.0004         32.2504
  21667712.0834    6390295.19247   4976975.66047                  21667718.0714
        24.7504         35.2504
  22318235.4744   -7354364.00047  -5696157.89646                  22318241.4384
        22.0004         24.0004
  23559062.7714   -5191785.30246  -3910955.71845                  23559070.4974
        12.0004          6.5004
  25065898.6614   10907529.70443   8499356.08442                  25065908.3454
         5.7504          2.2504
 00  5  5 15 50 15.0010000  0  6G 2G 4G 7G 9G24G26
  22329738.8884    6103076.99047   4755635.34346                  22329745.0174
        23.5004         25.5004
  21302088.1304   -8616085.44547  -6702576.37547                  21302094.1424
        26.0004         32.7504
  21673730.7244    6421922.92347   5001620.61647                  21673736.6884
        25.0004         35.5004
  22315195.6854   -7370338.33547  -5708605.44546                  22315201.4624
        22.2504         24.5004
  23550950.0674   -5234418.83645  -3944176.59845                  23550958.4384
        11.7504          6.7504
  25074759.6144   10954096.16943   8535641.56042                  25074768.0794
         6.0004          2.2504
 00  5  5 15 50 30.0010000  0  6G 2G 4G 7G 9G24G26
  22335534.1534    6133531.25747   4779365.88846                  22335540.1534
        23.5004         24.5004
  21298228.2864   -8636369.63547  -6718382.22647                  21298234.2514
        25.7504         32.5004
  21679756.5674    6453589.27847   5026295.66947                  21679762.4854
        24.7504         35.0004
  22312177.1924   -7386200.06947  -5720965.24946                  22312182.9234
        22.0004         23.5004
  23542843.1464   -5277018.95246  -3977371.43945                  23542851.8214
        12.0004          7.2504
  25083622.2004   11000669.14943   8571932.10743                  25083631.6494
         5.5004          2.5004
 00  5  5 15 50 45.0010000  0  6G 2G 4G 7G 9G24G26
  22341341.1614    6164047.66447   4803144.86446                  22341347.2084
        23.2504         24.7504
  21294390.8884   -8656534.06747  -6734094.75747                  21294396.8644
        25.7504         32.7504
  21685789.9274    6485294.15047   5051000.73147                  21685795.8564
        25.0004         35.0004
  22309180.6304   -7401948.86447  -5733237.05146                  22309186.3374
        22.2504         24.0004
  23534743.1464   -5319585.27145  -4010539.95545                  23534751.7044
        11.7504          7.2504
  25092486.4504   11047248.46243   8608227.62743                  25092495.9704
         5.7504          2.7504
 00  5  5 15 51  0.0010000  0  6G 2G 4G 7G 9G24G26
  22347160.4034    6194628.40847   4826973.96546                  22347166.4744
        22.7504         24.7504
  21290577.1064   -8676576.43247  -6749712.17247                  21290583.1774
        25.5004         32.2504
  21691830.7554    6517039.50447   5075737.33847                  21691836.7434
        25.0004         35.0004
  22306205.5364   -7417582.36047  -5745419.00746                  22306211.0564
        22.2504         24.0004
  23526649.9034   -5362115.32545  -4043680.20245                  23526658.7204
        11.5004          7.2504
  25101352.0284   11093835.71843   8644529.28643                  25101362.2634
         6.0004          2.5004
 00  5  5 15 51 15.0010000  0  6G 2G 4G 7G 9G24G26
  22352991.6614    6225270.78947   4850851.08946                  22352998.0134
        22.0004         23.7504
  21286785.8644   -8696499.35947  -6765236.51747                  21286791.9354
        25.5004         32.0004
  21697878.9894    6548822.34047   5100503.15247                  21697884.9544
        24.5004         35.2504
  22303251.7164   -7433103.13847  -5757513.13546                  22303257.5524
        21.7504         23.5004
  23518563.0284   -5404611.62245  -4076794.15545                  23518571.3414
        11.7504          6.7504
  25110217.7244   11140427.90443   8680834.81943                  25110227.8414
         6.0004          3.0004
 00  5  5 15 51 30.0010000  0  6G 2G 4G 7G 9G24G26
  22358834.2474    6255974.52547   4874776.03646                  22358840.9154
        21.2504         24.0004
  21283017.1464   -8716302.92147  -6780667.85047                  21283023.0524
        25.5004         32.0004
  21703933.9744    6580642.12347   5125297.75647                  21703939.9154
        24.7504         35.2504
  22300319.7944   -7448511.42147  -5769519.59746                  22300325.4664
        22.0004         23.7504
  23510483.1144   -5447074.14046  -4109881.78045                  23510491.7204
        12.0004          7.2504
  25119085.0284   11187024.22344   8717143.58543                  25119095.0284
         6.2504          3.0004
 00  5  5 15 51 45.0010000  0  6G 2G 4G 7G 9G24G26
  22364689.0134    6286741.38747   4898750.16546                  22364695.7044
        21.2504         24.0004
  21279272.0284   -8735984.94547  -6796004.48047                  21279278.0284
        25.7504         32.0004
  21709996.4584    6612500.45547   5150122.39547                  21710002.4114
        25.0004         34.5004
  22297409.5674   -7463805.21547  -5781436.85146                  22297415.0994
        22.0004         24.0004
  23502409.4974   -5489500.88445  -4142941.52945                  23502418.5714
        11.7504          7.5004
  25127953.4894   11233626.01444   8753456.58844                  25127961.6384
         7.0004          3.7504
 00  5  5 15 52  0.0010000  0  6G 2G 4G 7G 9G24G26
  22370555.2084    6317569.46447   4922771.98946                  22370562.0914
        20.7504         23.5004
  21275549.4354   -8755547.26247  -6811247.83647                  21275555.3534
        25.7504         32.2504
  21716066.0364    6644395.16947   5174975.37947                  21716072.0014
        25.0004         35.0004
  22294520.6924   -7478986.15747  -5793266.17146                  22294526.3644
        22.0004         23.7504
  23494341.9664   -5531893.27245  -4175974.51445                  23494351.4624
        11.5004          7.0004
  25136822.1694   11280231.11945   8789772.16444                  25136831.5604
         7.7504          4.0004
 00  5  5 15 52 15.0010000  0  6G 2G 4G 7G 9G24G26
  22376433.6614    6348460.31047   4946842.72746                  22376440.4584
        20.7504         24.0004
  21271849.9744   -8774988.05047  -6826396.48547                  21271855.8564
        26.2504         32.5004
  21722142.5604    6676327.64947   5199857.80047                  21722148.5364
        25.0004         35.5004
  22291653.7004   -7494052.46647  -5805006.16346                  22291659.6304
        21.7504         23.7504
  23486281.9034   -5574249.57045  -4208979.35645                  23486291.2004
        11.2504          7.0004
  25145691.5604   11326840.53745   8826091.14244                  25145701.2904
         7.7504          4.0004
 00  5  5 15 52 30.0010000  0  6G 2G 4G 7G 9G24G26
  22382324.2554    6379414.98747   4970963.20446                  22382330.9934
        21.0004         24.0004
  21268173.7714   -8794306.14647  -6841449.53747                  21268179.7004
        26.0004         33.0004
  21728226.5674    6708298.66847   5224770.25047                  21728232.5094
        25.0004         35.5004
  22288808.7784   -7509003.08847  -5816656.01046                  22288814.8604
        21.7504         23.7504
  23478228.5524   -5616568.51545  -4241955.11245                  23478238.2474
        11.5004          7.2504
  25154562.1614   11373454.97745   8862414.00844                  25154572.0444
         8.5004          4.2504
 00  5  5 15 52 45.0010000  0  6G 2G 4G 7G 9G24G26
  22388226.4424    6410431.87447   4995132.15846                  22388233.2634
        20.5004         24.2504
  21264520.7554   -8813502.98347  -6856408.10347                  21264526.7674
        25.7504         32.7504
  21734317.4114    6740306.40247   5249711.30347                  21734323.3534
        25.2504         35.2504
  22285985.1534   -7523839.44847  -5828216.81746                  22285991.1654
        21.2504         23.7504
  23470182.4424   -5658851.42345  -4274902.77945                  23470192.1264
        11.7504          7.5004
  25163433.2784   11420072.36145   8898739.17944                  25163442.9974
         8.5004          4.0004
 00  5  5 15 53  0.0010000  0  6G 2G 4G 7G 9G24G26
  22394140.7864    6441510.66847   5019349.34846                  22394147.8214
        21.2504         24.2504
  21260890.9584   -8832578.54047  -6871272.15947                  21260896.9354
        26.0004         32.7504
  21740415.2554    6772350.38747   5274680.61147                  21740421.2554
        25.2504         35.5004
  22283183.5674   -7538561.58947  -5839688.63446                  22283189.5914
        21.2504         24.2504
  23462143.1614   -5701098.20046  -4307822.28945                  23462152.0364
        12.0004          7.5004
  25172304.8564   11466692.10045   8935066.16544                  25172313.6144
         8.5004          4.0004
 00  5  5 15 53 15.0010000  0  7G 2G 4G 7G 5G 9G24G26
  22400067.1614    6472653.55647   5043616.48846                  22400074.1964
        21.2504         25.2504
  21257284.2474   -8851530.47347  -6886039.88647                  21257290.1774
        26.0004         32.0004
  21746520.0604    6804432.51647   5299679.63747                  21746526.0244
        25.0004         35.2504
  25103127.2004     -31464.90943
         5.2504
  22280404.3334   -7553167.31947  -5851069.72746                  22280410.4744
        21.0004         24.2504
  23454111.2314   -5743306.42746  -4340711.76445                  23454119.8254
        12.2504          7.5004
  25181176.7634   11513315.87145   8971396.31744                  25181187.4544
         8.0004          4.2504
 00  5  5 15 53 30.0010000  0  7G 2G 4G 7G 5G 9G24G26
  22406005.1464    6503857.52247   5067931.22247                  22406012.0634
        21.7504         25.7504
  21253700.8414   -8870361.61647  -6900713.49147                  21253706.8414
        25.7504         31.7504
  21752631.7784    6836549.57647   5324705.88347                  21752637.7784
        25.0004         35.2504
  25096708.0524     -65197.12843
         5.2504
  22277646.6464   -7567659.41547  -5862362.28246                  22277652.6814
        21.2504         24.5004
  23446086.3024   -5785478.80846  -4373573.31045                  23446095.3414
        12.5004          7.7504
  25190049.6854   11559940.26245   9007726.95644                  25190058.7944
         8.0004          3.7504
 00  5  5 15 53 45.0010000  0  7G 2G 4G 7G 5G 9G24G26
  22411955.2084    6535124.48547   5092295.03547                  22411961.9814
        22.5004         25.7504
  21250140.8334   -8889069.96647  -6915291.41047                  21250146.7164
        25.0004         31.5004
  21758750.4194    6868703.22347   5349760.64247                  21758756.4424
        25.0004         35.0004
  25090286.0444     -98945.67343
         5.2504
  22274910.9974   -7582035.75947  -5873564.64246                  22274916.9854
        21.2504         24.7504
  23438068.2394   -5827613.23846  -4406405.29245                  23438077.2434
        12.5004          7.7504
  25198921.8804   11606566.73745   9044059.18044                  25198931.1884
         7.5004          3.5004
 00  5  5 15 54  0.0010000  0  7G 2G 4G 7G 5G 9G24G26
  22417916.9974    6566454.17347   5116707.72047                  22417923.6534
        22.7504         26.0004
  21246604.0524   -8907655.46547  -6929773.60347                  21246610.0404
        25.0004         31.5004
  21764876.0754    6900892.97347   5374843.53247                  21764882.1344
        24.7504         35.0004
  25083861.3334    -132710.85043
         5.2504
  22272197.2244   -7596296.56347  -5884676.96446                  22272203.1534
        21.0004         24.7504
  23430057.8024   -5869709.74846  -4439207.71245                  23430066.3254
        13.0004          8.0004
  25207794.9114   11653194.55644   9080392.49643                  25207803.9854
         7.0004          2.7504
 00  5  5 15 54 15.0010000  0  7G 2G 4G 7G 5G 9G24G26
  22423890.8104    6597845.66647   5141168.56547                  22423897.4894
        22.7504         26.0004
  21243090.4354   -8926118.84947  -6944160.63847                  21243096.3414
        25.0004         30.7504
  21771008.2394    6933117.73047   5399953.70047                  21771014.2394
        24.5004         34.0004
  25077432.0054    -166493.46543
         5.2504
  22269505.4894   -7610442.49647  -5895699.77646                  22269511.5134
        21.2504         25.5004
  23422054.0834   -5911768.75446  -4471980.90545                  23422063.0284
        13.2504          8.2504
  25216667.4504   11699822.46844   9116725.87943                  25216676.9814
         6.7504          2.5004
 00  5  5 15 54 30.0010000  0  7G 2G 4G 7G 5G 9G24G26
  22429875.3964    6629295.92847   5165675.21247                  22429882.2784
        22.2504         26.0004
  21239599.7244   -8944463.22547  -6958454.94447                  21239605.6304
        25.2504         31.2504
  21777146.4744    6965374.04447   5425088.45747                  21777152.4034
        24.7504         34.2504
  25070999.8884    -200296.65543    -21071.95551                  25071007.6964
         5.5004          1.2504
  22266834.8414   -7624476.56947  -5906635.42846                  22266840.7594
        21.2504         25.0004
  23414056.6774   -5953793.26546  -4504727.22245                  23414065.3764
        12.7504          8.0004
  25225540.3964   11746446.98544   9153056.61643                  25225549.5634
         6.7504          2.5004
 00  5  5 15 54 45.0010000  0  7G 2G 4G 7G 5G 9G24G26
  22435872.4814    6660810.25747   5190231.77746                  22435879.4814
        22.0004         25.5004
  21236132.5674   -8962682.84847  -6972652.04247                  21236138.4154
        25.2504         30.7504
  21783291.6304    6997667.14647   5450251.87847                  21783297.5134
        25.0004         34.2504
  25064564.3884    -234114.94843    -47423.86642                  25064570.7514
         5.5004          1.5004
  22264186.5054   -7638393.26847  -5917479.61546                  22264192.3534
        21.7504         25.5004
  23406067.4894   -5995777.56746  -4537442.22045                  23406076.5634
        12.7504          8.5004
  25234413.6384   11793073.04244   9189388.52843                  25234423.1574
         6.7504          2.5004
 00  5  5 15 55  0.0010000  0  7G 2G 4G 7G 5G 9G24G26
  22441881.2784    6692386.66747   5214836.70146                  22441888.1384
        22.0004         24.5004
  21232688.8414   -8980779.63647  -6986753.41847                  21232694.6774
        25.0004         30.2504
  21789443.4274    7029994.87847   5475442.28547                  21789449.4384
        25.0004         34.7504
  25058124.9194    -267950.36143    -73789.12542                  25058132.5634
         5.5004          2.0004
  22261560.4744   -7652194.36247  -5928233.72447                  22261566.4504
        21.7504         25.7504
  23398085.2784   -6037723.36846  -4570127.19945                  23398094.3414
        12.5004          8.2504
  25243285.8804   11839698.28744   9225719.82642                  25243292.8214
         7.0004          2.2504
 00  5  5 15 55 15.0010000  0  7G 2G 4G 7G 5G 9G24G26
  22447902.1694    6724025.82347   5239490.52446                  22447909.0634
        21.5004         23.7504
  21229268.7314   -8998752.61147  -7000758.32147                  21229274.6144
        24.5004         30.5004
  21795601.8414    7062357.56647   5500659.92647                  21795607.7354
        25.2504         34.7504
  25051683.3884    -301802.19043   -100167.16642                  25051688.5214
         5.5004          2.2504
  22258956.2164   -7665878.99947  -5938897.09347                  22258962.1814
        22.0004         25.7504
  23390110.8884   -6079629.69646  -4602781.44245                  23390119.8684
        12.2504          8.0004
  25252158.4504   11886322.91244   9262050.64742                  25252165.0014
         7.0004          2.2504
 00  5  5 15 55 30.0010000  0  7G 2G 4G 7G 5G 9G24G26
  22453934.6694    6755727.28047   5264192.90846                  22453941.6344
        21.2504         23.5004
  21225872.1224   -9016602.19147  -7014667.06847                  21225878.0754
        24.5004         30.2504
  21801766.9974    7094754.61147   5525904.34547                  21801772.9974
        25.2504         35.0004
  25045238.8334    -335670.87443   -126558.30342                  25045246.3604
         5.2504          2.0004
  22256374.3964   -7679447.55447  -5949470.01147                  22256380.3254
        22.2504         26.2504
  23382143.8174   -6121496.72846  -4635405.04245                  23382153.0794
        12.7504          8.2504
  25261030.0444   11932945.96744   9298380.25442                  25261035.7864
         6.7504          2.2504
 00  5  5 15 55 45.0010000  0  7G 2G 4G 7G 5G 9G24G26
  22459979.3334    6787492.29347   5288944.82146                  22459986.0714
        21.0004         23.5004
  21222499.0364   -9034326.97047  -7028478.56747                  21222504.9544
        24.7504         30.5004
  21807938.5754    7127186.84347   5551176.18047                  21807944.5524
        25.5004         35.2504
  25038790.1384    -369555.13943   -152961.65242                  25038798.9074
         5.0004          2.0004
  22253814.8724   -7692898.64947  -5959951.38847                  22253820.7784
        22.5004         26.0004
  23374184.7084   -6163323.10746  -4667996.97345                  23374193.4314
        12.7504          8.5004
  25269902.6304   11979568.32344   9334709.28542                  25269912.1734
         6.7504          2.0004
 00  5  5 15 56  0.0010000  0  7G 2G 4G 7G 5G 9G24G26
  22466035.5914    6819317.87847   5313743.93446                  22466042.2594
        21.0004         23.0004
  21219149.2864   -9051929.72847  -7042194.99247                  21219155.2634
        25.0004         31.0004
  21814116.3414    7159651.25047   5576473.08647                  21814122.3644
        25.7504         35.5004
  25032338.5134    -403458.04042   -179379.50242                  25032347.3764
         4.5004          2.2504
  22251276.7784   -7706235.13547  -5970343.46847                  22251282.5794
        22.7504         26.7504
  23366232.1774   -6205111.53446  -4700559.32445                  23366240.6534
        12.5004          8.2504
  25278773.6924   12026186.51344   9371035.14443                  25278782.3334
         6.7504          2.5004
 00  5  5 15 56 15.0010000  0  7G 2G 4G 7G 5G 9G24G26
  22472104.1774    6851207.44747   5338592.88846                  22472110.8564
        21.2504         22.5004
  21215823.7244   -9069406.78747  -7055813.46547                  21215829.7004
        25.0004         30.7504
  21820300.9974    7192150.96647   5601797.51047                  21820306.9384
        25.2504         35.5004
  25025884.1534    -437375.96442   -205809.04042                  25025893.3104
         4.5004          2.0004
  22248761.5444   -7719453.34747  -5980643.38547                  22248767.2744
        22.7504         26.0004
  23358288.3024   -6246858.08946  -4733089.05745                  23358296.6264
        13.2504          8.5004
  25287644.9034   12072803.66844   9407360.11142                  25287655.0444
         6.5004          2.2504
 00  5  5 15 56 30.0010000  0  7G 2G 4G 7G 5G 9G24G26
  22478184.5524    6883159.89847   5363490.83946                  22478191.3494
        20.7504         22.0004
  21212521.6224   -9086758.98647  -7069334.64447                  21212527.5994
        25.0004         31.0004
  21826491.9034    7224684.84247   5627148.54747                  21826497.8924
        25.2504         34.7504
  25019426.3564    -471309.95743   -232251.10542                  25019436.8024
         5.0004          2.2504
  22246268.4974   -7732554.27447  -5990851.92347                  22246274.3334
        22.7504         26.5004
  23350352.5444   -6288563.63546  -4765586.83545                  23350360.6814
        13.5004          8.7504
  25296514.9034   12119418.38843   9443683.22642                  25296523.1924
         6.0004          2.0004
 00  5  5 15 56 45.0010000  0  7G 2G 4G 7G 5G 9G24G26
  22484276.3414    6915173.28447   5388436.27546                  22484282.9154
        20.5004         22.0004
  21209243.0214   -9103988.32547  -7082760.08947                  21209248.9034
        25.0004         30.5004
  21832689.0524    7257250.50747   5652524.35847                  21832695.0284
        25.5004         35.7504
  25012966.0604    -505261.93243   -258707.19942                  25012973.5754
         5.5004          2.0004
  22243797.5994   -7745539.75547  -6000970.48347                  22243803.4704
        23.0004         26.2504
  23342422.9974   -6330229.83946  -4798053.94845                  23342430.9354
        14.0004          9.0004
  25305384.0754   12166028.14443   9480002.46942                  25305393.7354
         5.7504          2.2504
 00  5  5 15 57  0.0010000  0  7G 2G 4G 7G 5G 9G24G26
  22490380.3724    6947249.09047   5413430.35046                  22490387.2314
        21.2504         22.5004
  21205987.8564   -9121092.92747  -7096088.33447                  21205993.8684
        24.5004         30.5004
  21838892.3644    7289849.33847   5677926.00947                  21838898.3294
        25.7504         35.5004
  25006502.7244    -539230.37643   -285176.10343                  25006508.4424
         5.7504          2.5004
  22241348.6614   -7758408.08047  -6010997.77547                  22241354.6034
        23.0004         26.2504
  23334502.2084   -6371854.87646  -4830489.00045                  23334509.8994
        14.0004          8.7504
  25314254.1774   12212634.10343   9516318.74942                  25314264.1064
         5.0004          1.5004
 00  5  5 15 57 15.0010000  0  7G 2G 4G 7G 5G 9G24G26
  22496495.9504    6979386.19847   5438472.19946                  22496502.6884
        21.2504         23.0004
  21202756.7084   -9138073.79747  -7109320.16947                  21202762.7204
        24.7504         30.2504
  21845101.7084    7322479.90547   5703352.39247                  21845107.6034
        25.5004         35.5004
  25000035.3884    -573216.46244   -311658.79243                  25000041.9624
         6.2504          2.5004
  22238922.0134   -7771160.26847  -6020934.56047                  22238928.0364
        22.7504         26.5004
  23326588.8024   -6413439.78846  -4862892.78045                  23326596.7044
        14.0004          8.7504
  25323120.0914   12259234.69142   9552630.86141                  25323129.1304
         4.0004          1.2504
 00  5  5 15 57 30.0010000  0  7G 2G 4G 7G 5G 9G24G26
  22502623.5834    7011586.88947   5463563.58446                  22502630.1224
        21.7504         23.0004
  21199549.2784   -9154928.54147  -7122453.71947                  21199555.3494
        24.5004         30.7504
  21851317.7314    7355144.35647   5728805.17747                  21851323.6494
        25.7504         35.5004
  24993564.7244    -607217.78244   -338153.29143                  24993571.7714
         6.5004          2.7504
  22236517.9504   -7783793.81247  -6030778.88947                  22236523.9384
        22.7504         27.0004
  23318683.4814   -6454981.81846  -4895263.12445                  23318691.3724
        13.7504          8.7504
  25331987.4274   12305831.80442   9588940.12641                  25331995.1424
         3.7504          1.2504
 00  5  5 15 57 45.0010000  0  6G 2G 4G 7G 5G 9G24
  22508762.6854    7043847.39747   5488701.57846                  22508769.2124
        22.0004         23.5004
  21196365.2634   -9171660.82247  -7135491.84347                  21196371.1574
        25.0004         31.2504
  21857539.1534    7387838.54847   5754281.13947                  21857545.0954
        26.0004         35.7504
  24987091.3884    -641238.12444   -364662.65743                  24987100.0994
         6.5004          2.7504
  22234135.7394   -7796312.42747  -6040533.66647                  22234141.7164
        23.0004         26.7504
  23310785.7244   -6496484.66346  -4927602.96245                  23310793.9894
        14.0004          9.0004
 00  5  5 15 58  0.0010000  0  6G 2G 4G 7G 5G 9G24
  22514913.6384    7076169.40247   5513887.50746                  22514920.1774
        22.2504         24.5004
  21193204.9504   -9188268.78247  -7148433.10047                  21193210.8804
        25.2504         31.5004
  21863766.7714    7420564.06647   5779781.51147                  21863772.7244
        25.7504         35.7504
  24980614.5364    -675275.73344   -391185.45243                  24980623.1304
         6.2504          2.5004
  22231775.7314   -7808714.35247  -6050197.51847                  22231781.7204
        23.0004         27.0004
  23302895.9034   -6537946.28246  -4959910.66945                  23302904.1814
        13.2504          8.7504
 00  5  5 15 58 15.0010000  0  6G 2G 4G 7G 5G 9G24
  22521075.7244    7108551.61147   5539120.34146                  22521082.1814
        22.2504         24.0004
  21190068.0444   -9204753.29247  -7161278.15847                  21190073.8804
        25.5004         32.0004
  21869999.8804    7453319.48447   5805305.18547                  21870005.9154
        25.7504         35.2504
  24974133.5914    -709331.90544   -417722.73842                  24974141.0014
         6.7504          2.0004
  22229437.7784   -7821000.62447  -6059771.25147                  22229443.7554
        23.0004         27.5004
  23295013.4584   -6579367.51246  -4992186.90645                  23295021.9584
        13.2504          9.0004
 00  5  5 15 58 30.0010000  0  7G 2G 4G 7G 5G 9G24G26
  22527249.6774    7140996.64847   5564402.14046                  22527256.2744
        21.7504         24.2504
  21186955.1064   -9221111.69147  -7174024.94347                  21186961.1064
        25.7504         32.5004
  21876239.1304    7486107.15547   5830853.99247                  21876245.1884
        25.2504         35.2504
  24967650.1534    -743403.88144   -444272.30742                  24967657.3064
         6.7504          2.0004
  22227122.3724   -7833168.42047  -6069252.65847                  22227128.3374
        23.0004         27.2504
  23287139.7714   -6620745.58646  -5024429.51445                  23287148.7514
        13.2504          8.7504
  25367443.9744      34147.13453
         5.2504
 00  5  5 15 58 45.0010000  0  7G 2G 4G 7G 5G 9G24G26
  22533435.6534    7173504.31447   5589732.73846                  22533442.5484
        21.5004         24.2504
  21183866.2944   -9237344.00247  -7186673.48747                  21183872.2004
        26.0004         33.5004
  21882484.6774    7518926.68647   5856427.62547                  21882490.6304
        25.2504         34.7504
  24961162.9114    -777491.82444   -470834.29442                  24961168.8644
         7.0004          1.7504
  22224829.5674   -7845217.86247  -6078641.84747                  22224835.3924
        23.7504         28.0004
  23279273.9504   -6662080.24746  -5056638.29245                  23279282.5214
        13.7504          9.2504
  25376303.3884      80709.76843
         5.5004
 00  5  5 15 59  0.0010000  0  7G 2G 4G 7G 5G 9G24G26
  22539633.9034    7206076.10947   5615113.30246                  22539641.0094
        21.2504         24.2504
  21180801.7634   -9253448.53247  -7199222.45547                  21180807.7164
        26.0004         33.5004
  21888736.2084    7551779.37847   5882027.09947                  21888742.1614
        25.0004         34.7504
  24954673.7314    -811594.19144   -497407.60442                  24954680.1884
         6.7504          1.7504
  22222559.1694   -7857147.24447  -6087937.47947                  22222565.0634
        23.7504         28.2504
  23271416.6924   -6703369.85846  -5088811.96845                  23271425.7434
        13.5004          9.2504
  25385164.1464     127267.16743
         6.0004
 00  5  5 15 59 15.0010000  0  7G 2G 4G 7G 5G 9G24G26
  22545843.7554    7238709.52147   5640541.88946                  22545850.7204
        21.0004         24.0004
  21177760.7864   -9269427.59147  -7211673.65647                  21177766.7164
        26.0004         33.2504
  21894993.7634    7584662.51847   5907650.29747                  21894999.7394
        25.2504         35.2504
  24948181.3724    -845713.44844   -523994.06042                  24948186.0244
         6.7504          1.7504
  22220311.6614   -7868958.93247  -6097141.40347                  22220317.5564
        24.0004         28.0004
  23263567.7474   -6744616.53246  -5120952.18845                  23263576.5284
        13.5004          9.5004
  25394021.5834     173816.30243
         6.0004
 00  5  5 15 59 30.0010000  0  7G 2G 4G 7G 5G 9G24G26
  22552065.6534    7271405.25647   5666019.03146                  22552072.5364
        20.7504         23.7504
  21174744.3174   -9285280.29347  -7224026.39947                  21174750.3884
        26.0004         33.2504
  21901256.9894    7617576.74347   5933297.71947                  21901263.0014
        25.2504         35.0004
  24941685.2714    -879848.73244   -550592.87542                  24941693.1144
         6.2504          1.7504
  22218086.6464   -7880652.09947  -6106252.97547                  22218092.3764
        24.5004         28.2504
  23255726.7944   -6785819.26946  -5153058.18245                  23255735.3644
        13.7504          9.7504
  25402878.1694     220357.60744
         6.2504
 00  5  5 15 59 45.0010000  0  7G 2G 4G 7G 5G 9G24G26
  22558298.8724    7304161.65547   5691543.43746                  22558306.0364
        20.5004         23.2504
  21171751.4274   -9301008.17447  -7236281.87647                  21171757.3924
        25.7504         33.2504
  21907525.9114    7650519.91647   5958967.69947                  21907532.0524
        25.0004         34.2504
  24935185.3644    -914001.79643   -577205.66942                  24935191.7164
         5.7504          1.5004
  22215883.7784   -7892228.26747  -6115273.37447                  22215889.7204
        24.2504         28.0004
  23247894.6144   -6826979.50146  -5185131.02645                  23247903.1854
        13.7504          9.7504
  25411732.9504     266888.79244     31420.59352                  25411740.8294
         6.2504          1.5004
 00  5  5 16  0  0.0010000  0  7G 2G 4G 7G 5G 9G24G26
  22564544.3964    7336980.74547   5717116.68746                  22564551.4314
        20.5004         23.0004
  21168782.5134   -9316609.02947  -7248438.37347                  21168788.5484
        26.0004         33.0004
  21913800.6064    7683494.06647   5984661.81647                  21913806.4894
        25.0004         34.5004
  24928683.4504    -948170.51243   -603830.64242                  24928694.1184
         5.2504          2.0004
  22213703.5604   -7903685.23747  -6124200.89347                  22213709.4544
        24.2504         27.7504
  23240070.2394   -6868094.95446  -5217169.01045                  23240078.8684
        14.2504         10.0004
  25420585.8024     313411.72444     67672.19242                  25420592.8964
         6.2504          1.7504
 00  5  5 16  0 15.0010000  0  7G 2G 4G 7G 5G 9G24G26
  22570801.7084    7369863.27347   5742739.37546                  22570809.0954
        20.2504         22.7504
  21165838.2314   -9332082.01747  -7260495.23247                  21165844.1384
        26.0004         33.2504
  21920081.5674    7716499.61847   6010380.40747                  21920087.5324
        24.7504         33.5004
  24922178.8494    -982354.13243   -630467.22142                  24922188.9664
         6.0004          2.0004
  22211546.2714   -7915022.13847  -6133034.85747                  22211552.1534
        23.7504         27.5004
  23232255.1224   -6909164.55846  -5249171.23845                  23232263.7284
        14.5004         10.5004
  25429437.3254     359926.60744    103917.47642                  25429444.2084
         6.5004          2.0004
 00  5  5 16  0 30.0020000  0  7G 2G 4G 7G 5G 9G24G26
  22577071.1744    7402809.37647   5768411.60746                  22577078.5614
        20.5004         22.2504
  21162917.5494   -9347430.03447  -7272454.71547                  21162923.5144
        26.2504         33.7504
  21926368.0964    7749536.47947   6036123.39347                  21926374.0724
        24.7504         33.2504
  24915669.4324   -1016556.98843   -657118.82042                  24915680.0534
         6.0004          2.0004
  22209411.1824   -7926241.64347  -6141777.33747                  22209417.1824
        23.7504         27.0004
  23224447.6434   -6950192.86846  -5281141.31145                  23224455.7794
        14.2504         10.0004
  25438288.2364     406434.16344    140157.13242                  25438296.0334
         6.5004          1.7504
 00  5  5 16  0 45.0020000  0  7G 2G 4G 7G 5G 9G24G26
  22583352.2524    7435815.97547   5794130.98246                  22583359.4394
        20.5004         21.2504
  21160021.2524   -9362649.50047  -7284314.02447                  21160027.1234
        26.2504         34.0004
  21932660.2524    7782601.40347   6061888.25047                  21932666.1464
        24.5004         32.5004
  24909158.7444   -1050773.10743   -683780.74842                  24909164.9324
         6.0004          2.0004
  22207298.9474   -7937340.90747  -6150426.12547                  22207304.8894
        23.7504         27.0004
  23216648.9944   -6991172.69946  -5313073.59745                  23216656.9554
        14.5004         10.2504
  25447134.2834     452929.05443    176386.82942                  25447143.8034
         6.0004          2.0004
 00  5  5 16  1  0.0020000  0  7G 2G 4G 7G 5G 9G24G26
  22589645.5964    7468885.69747   5819899.54446                  22589653.7684
        20.7504         17.0004
  21157149.5804   -9377740.96047  -7296073.58847                  21157155.5214
        26.5004         34.2504
  21938958.0254    7815696.78047   6087676.83647                  21938964.0144
        24.5004         30.0004
  24902645.0254   -1085004.21443   -710454.33042                  24902653.5844
         6.0004          2.2504
  22205209.9864   -7948319.90147  -6158981.19647                  22205215.9284
        23.2504         27.0004
  23208860.1664   -7032106.29546  -5344969.86045                  23208868.6074
        15.0004         10.7504
  25455981.0494     499414.38044    212609.13842                  25455992.5254
         6.2504          2.0004
 00  5  5 16  1 15.0020000  0  7G 2G 4G 7G 5G 9G24G26
  22595950.4714    7502019.66947   5845718.18846                  22595958.1154
        21.0004         20.7504
  21154302.3304   -9392703.02147  -7307732.32447                  21154308.1664
        26.7504         34.5004
  21945261.9794    7848823.55847   6113489.88347                  21945267.9554
        24.7504         32.2504
  24896128.7914   -1119249.21644   -737138.72742                  24896136.9394
         6.2504          2.0004
  22203143.5884   -7959177.47447  -6167441.64747                  22203149.4944
        23.2504         27.0004
  23201079.6664   -7072992.11246  -5376828.89345                  23201088.0494
        15.0004         10.7504
  25464824.9324     545890.89144    248824.53842                  25464833.0104
         6.5004          2.0004
 00  5  5 16  1 30.0020000  0  7G 2G 4G 7G 5G 9G24G26
  22602267.8224    7535216.42847   5871585.72946                  22602274.8814
        21.2504         23.0004
  21151479.6274   -9407537.05547  -7319291.30147                  21151485.5454
        27.0004         35.0004
  21951571.5414    7881980.16347   6139326.18347                  21951577.5884
        24.5004         33.0004
  24889609.0334   -1153509.42844   -763835.01743                  24889616.6544
         6.5004          2.5004
  22201100.3774   -7969914.89247  -6175808.47347                  22201106.4244
        23.2504         26.7504
  23193307.9634   -7113831.17146  -5408651.49945                  23193316.4634
        15.0004         10.7504
  25473667.7444     592356.82844    285031.73142                  25473678.7054
         6.7504          2.2504
 00  5  5 16  1 45.0020000  0  7G 2G 4G 7G 5G 9G24G26
  22608597.1744    7568477.99347   5897503.78646                  22608603.7604
        21.2504         22.5004
  21148681.6354   -9422240.73947  -7330748.70647                  21148687.4594
        27.2504         35.0004
  21957887.0964    7915168.20347   6165186.97047                  21957893.1194
        24.5004         32.7504
  24883087.5964   -1187782.82244   -790541.55342                  24883097.8184
         6.2504          2.2504
  22199080.6974   -7980529.98147  -6184079.98047                  22199086.6864
        23.5004         27.2504
  23185545.9164   -7154621.30546  -5440435.97545                  23185554.0644
        14.7504         11.2504
  25482508.0644     638813.72144    321231.86143                  25482517.8304
         7.0004          2.5004
 00  5  5 16  2  0.0020000  0  7G 2G 4G 7G 5G 9G24G26
  22614938.4394    7601801.98247   5923470.47046                  22614945.4044
        21.2504         22.2504
  21145907.9394   -9436816.47547  -7342106.41547                  21145913.6584
        27.0004         35.5004
  21964208.1354    7948385.34647   6191070.44147                  21964214.0644
        25.0004         32.5004
  24876562.2364   -1222071.68444   -817260.14343                  24876570.2324
         6.2504          2.5004
  22197083.4794   -7991025.02447  -6192257.94647                  22197089.4324
        23.5004         27.5004
  23177792.8224   -7195364.55046  -5472183.93245                  23177801.1934
        15.0004         11.5004
  25491345.8544     685258.85844    357422.86643                  25491356.1704
         7.2504          2.5004
 00  5  5 16  2 15.0020000  0  7G 2G 4G 7G 5G 9G24G26
  22621292.2134    7635189.84647   5949486.94446                  22621299.0104
        21.5004         22.0004
  21143158.9164   -9451262.54147  -7353363.07747                  21143164.7294
        26.7504         34.7504
  21970534.7914    7981632.67647   6216977.43247                  21970540.6744
        24.5004         32.5004
  24870035.2604   -1256374.49744   -843989.65542                  24870043.7834
         6.7504          2.2504
  22195109.1894   -8001398.38647  -6200341.09047                  22195115.0254
        23.5004         27.5004
  23170048.8544   -7236059.27146  -5503894.05745                  23170057.2014
        15.0004         11.5004
  25500182.4554     731693.22145    393605.43743                  25500192.7834
         8.0004          2.5004
 00  5  5 16  2 30.0020000  0  7G 2G 4G 7G 5G 9G24G26
  22627658.1044    7668643.41747   5975554.61846                  22627665.0334
        20.5004         22.0004
  21140434.9794   -9465576.96247  -7364517.15947                  21140440.7684
        26.7504         35.0004
  21976867.6824    8014911.87547   6242909.25047                  21976873.5884
        24.7504         32.5004
  24863505.6504   -1290689.39744   -870728.48143                  24863512.2834
         6.7504          2.5004
  22193158.9554   -8011648.19747  -6208327.97547                  22193164.9904
        23.7504         28.0004
  23162314.2834   -7276703.22646  -5535564.63445                  23162322.3854
        15.0004         11.7504
  25509017.4864     778118.33045    429780.80143                  25509026.5144
         8.5004          2.7504
 00  5  5 16  2 45.0020000  0  6G 2G 4G 7G 5G 9G24
  22634036.6664    7702162.63847   6001673.43546                  22634043.7954
        20.5004         22.2504
  21137735.9554   -9479759.54347  -7375568.50947                  21137741.9204
        26.2504         34.5004
  21983206.5024    8048222.74847   6268865.75847                  21983212.4434
        24.5004         32.2504
  24856972.7294   -1325016.33644   -897476.76442                  24856978.1314
         6.2504          2.2504
  22191232.1744   -8021774.27147  -6216218.42847                  22191237.9754
        23.7504         27.7504
  23154589.8614   -7317296.16346  -5567195.44545                  23154597.9514
        15.5004         11.5004
 00  5  5 16  3  0.0020000  0  6G 2G 4G 7G 5G 9G24
  22640427.5494    7735747.07047   6027843.07446                  22640434.5254
        20.2504         22.2504
  21135062.1354   -9493810.64647  -7386517.40347                  21135068.0884
        26.5004         34.7504
  21989551.1664    8081564.70547   6294846.48347                  21989557.1074
        24.7504         32.7504
  24850438.7054   -1359355.67043   -924234.68542                  24850445.1744
         6.0004          1.7504
  22189328.6664   -8031776.95847  -6224012.74347                  22189334.5724
        24.2504         27.7504
  23146874.9324   -7357838.28746  -5598786.66545                  23146882.9044
        15.2504         11.2504
 00  5  5 16  3 15.0020000  0  6G 2G 4G 7G 5G 9G24
  22646830.8144    7769395.88947   6054062.88646                  22646837.9084
        20.2504         22.0004
  21132413.1974   -9507730.97947  -7397364.40547                  21132419.1044
        26.7504         35.0004
  21995901.6504    8114936.60047   6320850.54547                  21995907.5804
        24.7504         32.5004
  24843901.3464   -1393708.24143   -951002.92642                  24843907.0764
         6.0004          1.5004
  22187448.5104   -8041656.97147  -6231711.45847                  22187454.5804
        23.7504         27.2504
  23139169.4714   -7398330.11046  -5630338.67645                  23139177.3854
        15.5004         11.0004
 00  5  5 16  3 30.0020000  0  6G 2G 4G 7G 5G 9G24
  22653246.0724    7803107.76347   6080331.84846                  22653253.2484
        20.2504         21.5004
  21129789.0334   -9521521.71447  -7408110.42047                  21129794.8344
        26.7504         35.0004
  22002257.5964    8148336.94247   6346876.76547                  22002263.5844
        24.5004         32.0004
  24837361.5964   -1428075.27143   -977782.39642                  24837366.9394
         5.7504          1.7504
  22185591.4324   -8051415.44747  -6239315.48047                  22185597.3384
        23.5004         27.2504
  23131473.6744   -7438772.67546  -5661852.31645                  23131481.2834
        15.5004         11.5004
 00  5  5 16  3 45.0020000  0  6G 2G 4G 7G 5G 9G24
  22659673.5574    7836885.74946   6106652.33546                  22659680.9794
        19.7504         21.5004
  21127189.8694   -9535179.70847  -7418752.99847                  21127195.6934
        27.0004         34.5004
  22008619.4164    8181768.54347   6372927.34747                  22008625.2754
        24.5004         32.2504
  24830818.7134   -1462453.71343  -1004570.78542                  24830824.7254
         5.5004          1.7504
  22183758.4084   -8061049.23047  -6246822.33047                  22183764.2914
        23.5004         27.2504
  23123787.6894   -7479162.69046  -5693325.00645                  23123795.5214
        15.2504         11.2504
 00  5  5 16  4  0.0020000  0  6G 2G 4G 7G 5G 9G24
  22666113.5254    7870727.89446   6133022.80946                  22666120.9824
        19.7504         21.5004
  21124615.6744   -9548706.60547  -7429293.42947                  21124621.6044
        27.0004         35.5004
  22014986.8074    8215229.29547   6399000.63947                  22014992.7134
        24.5004         32.2504
  24824274.5724   -1496845.37543  -1031369.48042                  24824279.0494
         5.5004          1.7504
  22181948.4634   -8070560.10347  -6254233.41547                  22181954.3934
        23.5004         26.5004
  23116111.0334   -7519501.89846  -5724758.09345                  23116118.6314
        15.2504         11.0004
 00  5  5 16  4 15.0020000  0  6G 2G 4G 7G 5G 9G24
  22672565.7054    7904633.87247   6159443.01046                  22672573.3734
        20.0004         21.7504
  21122066.6744   -9562102.77947  -7439731.99447                  21122072.4514
        27.0004         35.7504
  22021359.5494    8248718.67047   6425096.24047                  22021365.5144
        24.5004         31.5004
  24817727.0574   -1531250.43243  -1058178.58142                  24817734.5024
         5.2504          1.5004
  22180162.0254   -8079948.29547  -6261548.89847                  22180167.8854
        23.5004         26.5004
  23108444.7994   -7559790.09246  -5756151.43545                  23108453.0644
        15.2504         11.7504
 00  5  5 16  4 30.0020000  0  6G 2G 4G 7G 5G 9G24
  22679030.3144    7938605.24447   6185914.16146                  22679037.7254
        20.2504         21.7504
  21119542.5724   -9575366.25347  -7450067.16047                  21119548.3734
        27.0004         35.7504
  22027738.1044    8282238.08647   6451215.25147                  22027744.0924
        24.2504         31.5004
  24811177.6114   -1565667.32243  -1084996.88142                  24811183.4124
         5.2504          1.7504
  22178399.1114   -8089212.03047  -6268767.40247                  22178404.8654
        23.5004         26.2504
  23100788.1274   -7600025.42546  -5787503.58545                  23100795.7604
        15.2504         11.2504
 00  5  5 16  4 45.0020000  0  6G 2G 4G 7G 5G 9G24
  22685507.3774    7972641.76147   6212436.07746                  22685514.7524
        20.5004         22.0004
  21117043.9084   -9588497.18747  -7460299.04347                  21117049.8264
        27.0004         36.2504
  22034122.4164    8315787.18447   6477357.38747                  22034128.3574
        24.2504         31.2504
  24804625.7754   -1600096.20243  -1111824.56642                  24804634.2644
         5.2504          1.5004
  22176659.9474   -8098351.49247  -6275889.07547                  22176665.7834
        23.5004         26.7504
  23093141.7294   -7640207.84946  -5818814.52145                  23093149.8654
        15.2504         11.0004
 00  5  5 16  5  0.0020000  0  6G 2G 4G 7G 5G 9G24
  22691997.3544    8006747.40547   6239011.85846                  22692004.8344
        20.0004         21.7504
  21114571.3384   -9601491.59647  -7470424.54947                  21114577.2794
        26.7504         35.5004
  22040512.8304    8349369.58947   6503525.48447                  22040518.8424
        24.5004         31.7504
  24798072.3224   -1634533.15143  -1138658.60242                  24798077.0574
         5.2504          2.0004
  22174944.9714   -8107362.72647  -6282910.82747                  22174950.8184
        23.0004         26.2504
  23085506.0024   -7680333.37346  -5850081.10845                  23085513.9634
        15.5004         11.2504
 00  5  5 16  5 15.0020000  0  6G 2G 4G 7G 5G 9G24
  22698500.3464    8040920.45547   6265640.16546                  22698507.7914
        20.5004         22.5004
  21112124.1114   -9614350.95647  -7480444.82147                  21112130.0764
        26.7504         35.2504
  22046909.2994    8382983.44447   6529718.08247                  22046915.3574
        24.2504         31.7504
  24791517.5804   -1668979.75943  -1165500.07642                  24791524.0494
         5.5004          2.0004
  22173254.7214   -8116247.24247  -6289833.84047                  22173260.6744
        23.0004         26.5004
  23077880.6584   -7720403.23046  -5881304.32745                  23077888.1864
        15.5004         11.0004
 00  5  5 16  5 30.0020000  0  6G 2G 4G 7G 5G 9G24
  22705016.5964    8075162.58847   6292322.30546                  22705023.9944
        20.5004         22.0004
  21109702.9714   -9627073.56247  -7490358.52747                  21109708.8544
        26.5004         35.0004
  22053312.2364    8416630.25147   6555936.35947                  22053318.2604
        24.5004         32.0004
  24784961.4714   -1703434.26243  -1192347.71942                  24784969.9474
         5.2504          2.0004
  22171588.2604   -8125003.14347  -6296656.63147                  22171594.2604
        23.2504         26.7504
  23070266.6434   -7760415.58946  -5912482.74245                  23070274.3224
        15.2504         11.0004
 00  5  5 16  5 45.0020000  0  6G 2G 4G 7G 5G 9G24
  22711544.8614    8109468.46047   6319054.10546                  22711552.2014
        20.5004         21.5004
  21107307.0024   -9639664.50147  -7500169.64147                  21107312.9434
        26.2504         34.5004
  22059720.2364    8450304.42147   6582175.95947                  22059726.2254
        24.5004         31.5004
  24778402.7364   -1737901.94543  -1219205.66843                  24778408.2684
         6.0004          2.5004
  22169945.6894   -8133635.73047  -6303383.33447                  22169951.5144
        23.0004         26.7504
  23062662.6434   -7800375.34846  -5943620.15745                  23062670.3694
        15.5004         11.2504
 00  5  5 16  6  0.0020000  0  6G 2G 4G 7G 5G 9G24
  22718086.0184    8143842.87347   6345839.32346                  22718092.9824
        20.5004         21.2504
  21104936.9554   -9652118.84447  -7509874.31147                  21104942.9324
        26.0004         34.7504
  22066134.2444    8484010.65647   6608440.54247                  22066140.1744
        24.5004         32.5004
  24771841.9794   -1772377.91844  -1246070.07043                  24771850.5024
         6.5004          2.5004
  22168327.4244   -8142140.02847  -6310010.06347                  22168333.1894
        23.0004         26.7504
  23055069.1354   -7840277.42346  -5974712.63945                  23055076.9084
        15.7504         11.2504
 00  5  5 16  6 15.0020000  0  6G 2G 4G 7G 5G 9G24
  22724640.1274    8178284.61947   6372677.00546                  22724647.1044
        20.5004         21.0004
  21102592.8074   -9664437.54747  -7519473.28947                  21102598.7604
        26.0004         34.5004
  22072554.3384    8517747.66947   6634729.11247                  22072560.3504
        24.7504         32.2504
  24765279.6664   -1806863.15544  -1272941.64643                  24765287.4754
         7.0004          2.5004
  22166733.1114   -8150516.99547  -6316537.58247                  22166739.0064
        23.0004         27.0004
  23047486.7524   -7880122.64246  -6005760.80545                  23047494.2914
        15.5004         11.5004
 00  5  5 16  6 30.0020000  0  6G 2G 4G 7G 5G 9G24
  22731207.3694    8212795.30347   6399568.39746                  22731214.4864
        20.2504         21.0004
  21100274.9864   -9676619.00747  -7528965.32647                  21100280.9754
        26.0004         34.5004
  22078980.4244    8551516.71947   6661042.64747                  22078986.3424
        24.5004         32.2504
  24758715.8774   -1841356.08745  -1299819.23043                  24758723.5684
         7.5004          2.7504
  22165163.5644   -8158764.98847  -6322964.59747                  22165169.4364
        23.0004         27.2504
  23039915.4324   -7919909.24946  -6036763.30045                  23039922.5724
        15.5004         11.2504
 00  5  5 16  6 45.0020000  0  6G 2G 4G 7G 5G 9G24
  22737787.0024    8247372.23447   6426511.42146                  22737793.8854
        20.5004         20.0004
  21097982.4714   -9688665.72947  -7538352.37347                  21097988.4474
        26.0004         34.7504
  22085411.9004    8585314.99447   6687378.94847                  22085417.8654
        24.5004         32.7504
  24752150.4474   -1875859.36745  -1326704.90944                  24752156.8114
         7.5004          3.5004
  22163618.1824   -8166886.57547  -6329293.11547                  22163624.1004
        23.0004         27.2504
  23032355.1434   -7959639.62546  -6067721.98845                  23032362.7754
        15.2504         11.5004
 00  5  5 16  7  0.0020000  0  6G 2G 4G 7G 5G 9G24
  22744379.8384    8282016.93446   6453507.25946                  22744386.8504
        19.7504         20.0004
  21095715.7754   -9700576.08747  -7547633.15847                  21095721.7524
        26.2504         34.7504
  22091849.2444    8619143.90047   6713739.11947                  22091855.1864
        24.5004         32.7504
  24745583.0184   -1910371.27644  -1353597.33943                  24745589.9714
         7.2504          3.2504
  22162097.1194   -8174880.00847  -6335521.77347                  22162103.0494
        23.0004         27.2504
  23024805.5254   -7999311.75946  -6098635.28645                  23024813.0534
        15.0004         11.7504
 00  5  5 16  7 15.0020000  0  6G 2G 4G 7G 5G 9G24
  22750985.0574    8316728.06946   6480554.85846                  22750992.1504
        19.7504         20.2504
  21093475.2524   -9712351.11947  -7556808.50247                  21093481.1354
        26.5004         35.0004
  22098292.2444    8653001.82947   6740121.90847                  22098298.3384
        24.5004         32.0004
  24739013.5884   -1944893.07344  -1380497.43143                  24739021.8774
         7.2504          3.0004
  22160600.1974   -8182746.53947  -6341651.54847                  22160606.1274
        23.2504         27.5004
  23017267.4164   -8038926.77246  -6129504.08345                  23017275.0964
        14.7504         11.2504
 00  5  5 16  7 30.0020000  0  6G 2G 4G 7G 5G 9G24
  22757603.6504    8351508.98446   6507656.81346                  22757610.9204
        19.7504         20.0004
  21091260.8384   -9723987.39347  -7565875.71747                  21091266.7684
        26.5004         35.2504
  22104741.3224    8686892.00147   6766529.82247                  22104747.3694
        24.5004         32.2504
  24732443.0334   -1979421.34044  -1407402.56744                  24732451.5214
         7.0004          3.7504
  22159127.9324   -8190482.70647  -6347679.73347                  22159133.7214
        23.5004         27.5004
  23009740.4084   -8078481.19546  -6160325.65645                  23009748.3694
        14.7504         11.5004
 00  5  5 16  7 45.0020000  0  6G 2G 4G 7G 5G 9G24
  22764235.4244    8386358.29546   6534812.09146                  22764242.4124
        19.5004         19.5004
  21089072.6744   -9735486.19647  -7574835.81547                  21089078.5104
        26.7504         35.2504
  22111196.3544    8720812.80347   6792961.59847                  22111202.4004
        24.5004         32.7504
  24725871.6114   -2013957.45944  -1434313.81544                  24725878.5764
         7.0004          3.5004
  22157680.4474   -8198089.77247  -6353607.33147                  22157686.3424
        23.0004         27.5004
  23002224.9244   -8117975.99946  -6191100.78946                  23002232.4984
        15.0004         12.0004
 00  5  5 16  8  0.0020000  0  6G 2G 4G 7G 5G 9G24
  22770880.2294    8421276.99846   6562021.42846                  22770887.4514
        19.7504         20.0004
  21086910.8544   -9746846.54647  -7583688.02447                  21086916.8424
        26.7504         35.2504
  22117657.3224    8754765.09647   6819417.91947                  22117663.3814
        25.0004         32.7504
  24719297.6974   -2048500.33744  -1461230.36144                  24719304.5064
         7.0004          3.5004
  22156257.6274   -8205566.62347  -6359433.45447                  22156263.5924
        23.2504         27.0004
  22994720.8694   -8157409.91346  -6221828.46346                  22994728.7954
        15.5004         12.2504
 00  5  5 16  8 15.0020000  0  6G 2G 4G 7G 5G 9G24
  22777537.9714    8456263.76146   6589283.79846                  22777545.2994
        19.0004         19.7504
  21084775.2294   -9758069.41747  -7592433.10947                  21084781.1464
        26.5004         34.7504
  22124123.9244    8788747.35647   6845897.58947                  22124129.9004
        24.7504         32.7504
  24712722.5494   -2083051.25744  -1488153.14244                  24712730.7914
         6.7504          3.5004
  22154859.3774   -8212914.52247  -6365159.10347                  22154865.3304
        23.5004         27.2504
  22987228.1894   -8196783.92746  -6252509.46045                  22987235.9864
        15.2504         11.7504
 00  5  5 16  8 30.0020000  0  6G 2G 4G 7G 5G 9G24
  22784208.3074    8491316.65046   6616597.68546                  22784215.6704
        19.5004         19.7504
  21082665.4864   -9769156.75547  -7601072.58347                  21082671.4864
        26.2504         34.7504
  22130595.8224    8822757.38247   6872398.89347                  22130601.8464
        24.7504         32.7504
  24706146.4394   -2117612.07744  -1515083.67244                  24706152.7324
         6.7504          3.7504
  22153485.4794   -8220135.19747  -6370785.61447                  22153491.3264
        23.5004         26.7504
  22979746.3694   -8236099.75946  -6283145.13246                  22979754.1314
        15.7504         12.5004
 00  5  5 16  8 45.0020000  0  6G 2G 4G 7G 5G 9G24
  22790891.7834    8526437.26246   6643964.35046                  22790899.1354
        19.2504         20.0004
  21080581.5494   -9780106.80247  -7609605.07747                  21080587.5254
        26.5004         35.0004
  22137073.3854    8856796.71147   6898923.03247                  22137079.2794
        24.5004         32.0004
  24699568.1974   -2152181.00244  -1542020.51944                  24699577.1314
         7.0004          3.7504
  22152135.8074   -8227227.05847  -6376311.74947                  22152141.6434
        23.5004         26.7504
  22972276.3694   -8275355.57846  -6313734.03446                  22972284.3074
        15.7504         12.5004
 00  5  5 16  9  0.0020000  0  6G 2G 4G 7G 5G 9G24
  22797588.0104    8561625.05447   6671383.35946                  22797595.3384
        20.0004         20.2504
  21078524.0104   -9790919.82947  -7618030.79947                  21078530.0684
        26.2504         34.7504
  22143556.1274    8890864.65947   6925469.46747                  22143562.1394
        24.5004         32.2504
  24692988.2214   -2186758.51945  -1568964.01943                  24692996.3814
         7.5004          3.2504
  22150810.7994   -8234190.39947  -6381737.73847                  22150816.7054
        23.5004         27.2504
  22964817.1744   -8314551.44446  -6344276.22146                  22964825.2644
        15.7504         12.5004
 00  5  5 16  9 15.0020000  0  6G 2G 4G 7G 5G 9G24
  22804295.7054    8596875.13946   6698850.90946                  22804303.2094
        19.7504         20.7504
  21076491.4324   -9801600.75547  -7626353.59047                  21076497.4554
        26.2504         35.2504
  22150043.4554    8924955.99647   6952034.12647                  22150049.4554
        24.5004         32.0004
  24686406.1504   -2221349.45945  -1595917.99443                  24686414.0644
         7.5004          3.2504
  22149509.2914   -8241030.10747  -6387067.39147                  22149515.3614
        23.0004         27.0004
  22957369.0804   -8353692.09246  -6374775.38046                  22957377.2174
        16.0004         13.2504
 00  5  5 16  9 30.0020000  0  6G 2G 4G 7G 5G 9G24
  22811016.7834    8632193.85546   6726371.92346                  22811024.3344
        19.7504         20.5004
  21074485.4634   -9812142.99347  -7634568.31347                  21074491.2994
        26.5004         35.0004
  22156536.7054    8959077.06347   6978621.95447                  22156542.5764
        24.5004         32.2504
  24679822.3694   -2255947.39444  -1622877.43043                  24679829.8264
         6.7504          2.7504
  22148232.4554   -8247739.62447  -6392295.59247                  22148238.3614
        23.2504         26.7504
  22949932.7054   -8392770.71246  -6405226.19846                  22949940.7714
        15.7504         13.5004
 00  5  5 16  9 45.0020000  0  6G 2G 4G 7G 5G 9G24
  22817750.7294    8667580.16046   6753945.61546                  22817757.9164
        19.7504         20.5004
  21072505.5024   -9822547.63947  -7642675.81347                  21072511.4204
        26.7504         35.7504
  22163035.2524    8993226.48147   7005231.87547                  22163041.1704
        24.2504         32.5004
  24673236.6114   -2290553.29344  -1649843.02742                  24673243.7644
         6.2504          2.0004
  22146980.3224   -8254319.91247  -6397423.09447                  22146986.2994
        23.5004         27.2504
  22942507.9164   -8431788.19346  -6435629.38646                  22942515.9824
        15.5004         13.2504
 00  5  5 16 10  0.0020000  0  6G 2G 4G 7G 5G 9G24
  22824497.4244    8703034.37147   6781572.21846                  22824504.8344
        20.2504         20.7504
  21070551.8854   -9832814.18847  -7650675.71547                  21070557.8144
        27.0004         35.5004
  22169538.8614    9027404.45447   7031864.04847                  22169544.9794
        24.2504         32.2504
  24666649.6274   -2325166.85643  -1676814.68042                  24666656.3894
         6.0004          1.5004
  22145752.8614   -8260770.61147  -6402449.62147                  22145758.7444
        23.5004         27.5004
  22935094.8854   -8470743.96046  -6465984.48646                  22935103.2794
        15.5004         13.2504
 00  5  5 16 10 15.0020000  0  6G 2G 4G 7G 5G 9G24
  22831257.4794    8738558.79846   6809253.53946                  22831265.0414
        19.7504         20.0004
  21068624.8384   -9842940.06747  -7658566.00247                  21068630.6974
        27.2504         35.5004
  22176048.7054    9061613.21647   7058520.20947                  22176054.7404
        24.0004         32.0004
  24660061.5724   -2359785.50243  -1703790.20442                  24660067.4794
         5.7504          1.5004
  22144550.2604   -8267089.28447  -6407373.26747                  22144556.2134
        23.5004         27.0004
  22927694.2444   -8509635.33746  -6496289.41046                  22927702.4634
        15.7504         13.5004
 00  5  5 16 10 30.0020000  0  6G 2G 4G 7G 5G 9G24
  22838030.7994    8774152.27847   6836988.65546                  22838037.9394
        20.0004         20.0004
  21066724.5024   -9852926.39647  -7666347.54647                  21066730.1864
        27.5004         35.7504
  22182563.8934    9095851.31247   7085199.23047                  22182569.9284
        24.0004         31.7504
  24653473.1354   -2394410.27143  -1730770.53442                  24653482.8184
         5.7504          1.5004
  22143372.8774   -8273276.85347  -6412194.75447                  22143378.8654
        23.5004         27.5004
  22920305.5494   -8548463.18346  -6526544.82946                  22920313.6394
        16.2504         13.2504
 00  5  5 16 10 45.0020000  0  6G 2G 4G 7G 5G 9G24
  22844817.0184    8809813.62546   6864776.66046                  22844824.3114
        19.5004         19.5004
  21064850.6044   -9862774.20247  -7674021.15747                  21064856.2994
        27.2504         35.5004
  22189084.6354    9130117.46347   7111900.11847                  22189090.6464
        23.7504         31.7504
  24646882.5024   -2429042.34343  -1757756.49941                  24646888.3734
         6.0004          1.0004
  22142220.0644   -8279334.52247  -6416915.01947                  22142225.9824
        23.7504         28.0004
  22912928.7054   -8587228.45346  -6556751.48946                  22912936.4674
        16.2504         13.7504
 00  5  5 16 11  0.0020000  0  6G 2G 4G 7G 5G 9G24
  22851615.8934    8845543.00446   6892617.68346                  22851623.3144
        19.5004         20.2504
  21063002.9944   -9872483.30147  -7681586.67947                  21063008.8074
        27.2504         35.5004
  22195610.3384    9164411.72347   7138622.90647                  22195616.3964
        23.7504         31.5004
  24640290.7684   -2463681.36444  -1784747.93441                  24640294.8344
         6.2504          1.2504
  22141092.3774   -8285261.90647  -6421533.76747                  22141098.3654
        23.5004         28.2504
  22905564.0414   -8625930.58046  -6586908.93346                  22905571.6974
        16.7504         14.0004
 00  5  5 16 11 15.0020000  0  6G 2G 4G 7G 5G 9G24
  22858428.3614    8881343.33446   6920513.98146                  22858435.8654
        19.2504         20.0004
  21061182.3304   -9882050.52947  -7689041.65447                  21061188.2484
        27.0004         35.5004
  22202142.4084    9198736.72947   7165369.64947                  22202148.4324
        23.7504         31.5004
  24633698.5104   -2498324.34743  -1811742.44741                  24633702.6114
         6.0004          1.0004
  22139989.8144   -8291056.01247  -6426048.65547                  22139995.6744
        23.7504         28.5004
  22898211.8074   -8664566.41346  -6617014.74146                  22898219.6154
        16.5004         14.2504
 00  5  5 16 11 30.0020000  0  6G 2G 4G 7G 5G 9G24
  22865254.1664    8917211.33946   6948463.03246                  22865261.7294
        19.5004         20.0004
  21059388.4084   -9891478.99347  -7696388.50147                  21059394.2564
        27.0004         35.2504
  22208679.3614    9233089.11547   7192137.72547                  22208685.2684
        23.7504         31.7504
  24627104.7604   -2532974.45544  -1838742.52141                  24627110.7604
         6.2504          1.2504
  22138911.9944   -8296719.97147  -6430462.14147                  22138917.8074
        24.0004         28.2504
  22890871.5804   -8703138.90746  -6647071.17346                  22890879.5644
        16.7504         14.2504
 00  5  5 16 11 45.0020000  0  6G 2G 4G 7G 5G 9G24
  22872093.1044    8953149.47946   6976466.73646                  22872100.6664
        19.5004         19.7504
  21057621.0414   -9900766.20847  -7703625.28447                  21057626.8894
        27.2504         36.0004
  22215222.0574    9267471.23247   7218928.97347                  22215228.0454
        23.5004         31.7504
  24620510.2684   -2567629.12644  -1865746.20741                  24620517.2564
         6.7504          0.7504
  22137859.2754   -8302251.23847  -6434772.22747                  22137865.3344
        23.7504         28.5004
  22883543.6194   -8741645.18446  -6677076.01446                  22883551.6044
        16.5004         14.5004
 00  5  5 16 12  0.0020000  0  6G 2G 4G 7G 5G 9G24
  22878945.0184    8989155.89146   7004523.62746                  22878952.6154
        19.5004         19.7504
  21055880.0964   -9909913.69947  -7710753.19047                  21055885.9904
        27.2504         35.5004
  22221770.0334    9301881.06947   7245741.81947                  22221776.1744
        23.5004         32.0004
  24613914.2134   -2602290.04844  -1892754.63542                  24613922.2684
         6.7504          1.5004
  22136831.5884   -8307651.45447  -6438980.19047                  22136837.5294
        23.7504         29.0004
  22876228.3544   -8780086.85846  -6707030.52146                  22876236.3264
        16.2504         14.0004
 00  5  5 16 12 15.0020000  0  6G 2G 4G 7G 5G 9G24
  22885809.5104    9025230.37946   7032633.55546                  22885817.1664
        19.7504         20.2504
  21054165.9324   -9918921.81647  -7717772.49347                  21054171.7914
        27.2504         35.5004
  22228323.2524    9336318.20247   7272575.93447                  22228329.1584
        23.7504         32.2504
  24607317.6354   -2636957.42544  -1919768.12242                  24607326.3814
         6.7504          1.5004
  22135828.9474   -8312920.77847  -6443086.16447                  22135834.8544
        23.7504         28.5004
  22868925.4474   -8818463.96446  -6736934.70646                  22868933.4554
        16.0004         14.0004
 00  5  5 16 12 30.0020000  0  6G 2G 4G 7G 5G 9G24
  22892687.6974    9061374.90546   7060798.05746                  22892695.1434
        19.5004         20.0004
  21052478.8694   -9927788.36547  -7724681.47947                  21052484.7404
        27.0004         35.2504
  22234881.9554    9370784.48547   7299432.76247                  22234888.0144
        23.7504         31.5004
  24600719.9944   -2671629.12544  -1946785.02942                  24600731.9164
         7.2504          1.5004
  22134851.6744   -8318057.11847  -6447088.51047                  22134857.5684
        23.7504         28.7504
  22861635.4714   -8856774.01946  -6766786.64746                  22861643.5024
        16.2504         14.5004
 00  5  5 16 12 45.0020000  0  6G 2G 4G 7G 5G 9G24
  22899578.9864    9097588.42346   7089016.31546                  22899586.7254
        19.5004         20.2504
  21050818.3544   -9936514.23147  -7731480.85047                  21050824.2714
        26.7504         35.0004
  22241446.1194    9405278.65447   7326311.32247                  22241452.0254
        24.2504         32.0004
  24594121.1664   -2706306.13245  -1973806.07842                  24594131.6354
         8.2504          1.7504
  22133899.2214   -8323061.42547  -6450987.97647                  22133905.1974
        23.7504         29.0004
  22854357.6744   -8895017.93646  -6796587.06146                  22854365.5764
        16.2504         14.2504
 00  5  5 16 13  0.0020000  0  6G 2G 4G 7G 5G 9G24
  22906483.4794    9133871.92546   7117289.10446                  22906491.1354
        19.5004         20.0004
  21049184.6894   -9945098.47347  -7738169.86347                  21049190.6074
        27.0004         35.2504
  22248015.5414    9439801.45647   7353212.18947                  22248021.6004
        24.2504         32.0004
  24587521.9474   -2740987.35145  -2000830.40242                  24587530.5534
         8.7504          1.5004
  22132972.2994   -8327932.68047  -6454783.76447                  22132978.1824
        23.7504         28.7504
  22847093.0884   -8933194.39446  -6826334.89346                  22847100.7564
        16.5004         14.5004
 00  5  5 16 13 15.0020000  0  6G 2G 4G 7G 5G 9G24
  22913401.2364    9170223.98846   7145615.31446                  22913409.1744
        19.2504         20.0004
  21047577.8384   -9953542.20347  -7744749.38747                  21047583.7794
        27.0004         35.2504
  22254590.2214    9474351.40647   7380134.21747                  22254596.2324
        24.5004         32.0004
  24580921.4324   -2775674.05245  -2027859.00042                  24580927.9714
         9.0004          2.2504
  22132070.6044   -8332672.19647  -6458476.90347                  22132076.6154
        24.2504         29.2504
  22839841.1114   -8971304.54846  -6856031.06746                  22839848.7214
        16.7504         14.5004
 00  5  5 16 13 30.0020000  0  6G 2G 4G 7G 5G 9G24
  22920332.0644    9206645.48846   7173995.64346                  22920340.0024
        19.7504         20.2504
  21045998.0804   -9961844.48347  -7751218.69047                  21046004.0334
        27.0004         35.2504
  22261170.3224    9508929.29947   7407078.01547                  22261176.3114
        24.5004         32.0004
  24574319.9864   -2810365.18145  -2054891.05643                  24574326.3144
         9.5004          2.5004
  22131193.8694   -8337278.79147  -6462066.46047                  22131199.8224
        24.0004         29.2504
  22832601.7914   -9009347.07946  -6885674.55246                  22832609.6704
        16.7504         15.0004
 00  5  5 16 13 45.0020000  0  6G 2G 4G 7G 5G 9G24
  22927276.0104    9243136.29246   7202429.97146                  22927283.5144
        19.5004         20.2504
  21044445.1584   -9970005.30847  -7757577.76347                  21044451.0294
        26.7504         34.7504
  22267755.4084    9543534.78947   7434043.31847                  22267761.3384
        24.5004         32.2504
  24567717.4794   -2845060.90745  -2081926.68343                  24567725.1354
         9.7504          3.0004
  22130342.3934   -8341752.64247  -6465552.58647                  22130348.4164
        24.2504         28.7504
  22825375.1114   -9047321.94346  -6915265.31546                  22825382.9674
        16.7504         14.5004
 00  5  5 16 14  0.0020000  0  6G 2G 4G 7G 5G 9G24
  22934233.2604    9279696.99446   7230918.77546                  22934241.1044
        19.7504         20.2504
  21042919.0574   -9978024.02347  -7763826.10147                  21042924.8694
        26.7504         34.2504
  22274345.9714    9578168.32147   7461030.47347                  22274352.0184
        24.2504         32.2504
  24561114.4714   -2879760.48045  -2108965.27343                  24561122.5254
         9.2504          3.0004
  22129516.6434   -8346093.02447  -6468934.70347                  22129522.6194
        24.0004         28.7504
  22818161.8934   -9085228.16646  -6944802.57946                  22818169.3964
        16.7504         14.7504
 00  5  5 16 14 15.0020000  0  6G 2G 4G 7G 5G 9G24
  22941203.7214    9316326.15646   7259460.91446                  22941211.5414
        19.2504         19.7504
  21041420.0494   -9985901.93647  -7769964.73047                  21041425.9204
        26.7504         34.2504
  22280941.7054    9612828.33547   7488038.26547                  22280947.7524
        24.2504         32.0004
  24554510.5964   -2914465.23645  -2136007.97043                  24554518.3814
         9.2504          3.0004
  22128715.8224   -8350301.26547  -6472213.85847                  22128721.6354
        24.2504         28.7504
  22810961.2914   -9123066.97346  -6974287.31146                  22810969.3464
        16.5004         14.2504
 00  5  5 16 14 30.0020000  0  6G 2G 4G 7G 5G 9G24
  22948187.1664    9353024.44246   7288056.91346                  22948194.9754
        19.2504         19.5004
  21039947.7834   -9993638.24147  -7775993.00747                  21039953.7604
        26.7504         34.2504
  22287542.3544    9647515.29947   7515067.05647                  22287548.3424
        24.5004         32.0004
  24547905.0884   -2949174.40445  -2163054.06744                  24547912.8854
         9.0004          4.0004
  22127940.3074   -8354376.54347  -6475389.40747                  22127946.1434
        24.2504         28.7504
  22803773.7834   -9160837.20446  -7003718.62246                  22803781.7214
        16.5004         14.2504
 00  5  5 16 14 45.0020000  0  6G 2G 4G 7G 5G 9G24
  22955184.1744    9389793.39846   7316707.97846                  22955191.7954
        19.2504         19.2504
  21038502.9394  -10001231.33147  -7781909.68747                  21038508.9394
        26.7504         34.2504
  22294148.3934    9682230.61547   7542117.94747                  22294154.3934
        24.5004         32.2504
  24541299.5724   -2983886.30245  -2190102.29644                  24541306.9824
         9.0004          4.0004
  22127190.4944   -8358317.33147  -6478460.15247                  22127196.2134
        24.5004         29.0004
  22796599.8144   -9198537.25946  -7033095.24046                  22796607.5644
        17.0004         14.7504
 00  5  5 16 15  0.0020000  0  6G 2G 4G 7G 5G 9G24
  22962193.9004    9426630.62246   7345412.24446                  22962201.5214
        19.0004         19.0004
  21037084.6974  -10008683.40347  -7787716.48747                  21037090.5454
        26.7504         34.2504
  22300759.3074    9716971.82347   7569189.00447                  22300765.3544
        25.0004         32.2504
  24534693.3934   -3018603.12245  -2217154.39144                  24534701.9864
         8.5004          4.0004
  22126465.5724   -8362125.84147  -6481427.83247                  22126471.4794
        24.2504         29.0004
  22789438.5884   -9236169.17346  -7062418.76146                  22789446.2564
        17.0004         14.2504
 00  5  5 16 15 15.0020000  0  6G 2G 4G 7G 5G 9G24
  22969216.8384    9463535.52246   7374169.23646                  22969224.6004
        18.7504         18.7504
  21035693.4084  -10015995.07047  -7793413.87847                  21035699.3264
        26.7504         34.7504
  22307375.2214    9751738.05147   7596279.56047                  22307381.1624
        25.0004         32.2504
  24528085.7364   -3053325.41545  -2244210.72045                  24528092.6784
         8.2504          4.5004
  22125765.8774   -8365802.58447  -6484292.82747                  22125771.7954
        24.2504         28.7504
  22782290.4244   -9273733.16246  -7091689.36646                  22782297.7404
        17.2504         14.5004
 00  5  5 16 15 30.0020000  0  6G 2G 4G 7G 5G 9G24
  22976252.3464    9500508.15646   7402979.01046                  22976260.2834
        19.0004         19.0004
  21034328.9554  -10023166.14447  -7799001.71647                  21034334.8264
        27.0004         34.5004
  22313995.7684    9786529.35447   7623389.65747                  22314001.7794
        25.0004         31.7504
  24521477.1744   -3088052.91745  -2271271.12044                  24521483.9594
         8.2504          4.2504
  22125091.3614   -8369347.34747  -6487054.98647                  22125097.2794
        24.0004         28.5004
  22775155.1664   -9311228.88946  -7120906.76446                  22775162.5884
        17.2504         14.5004
 00  5  5 16 15 45.0020000  0  6G 2G 4G 7G 5G 9G24
  22983301.0414    9537547.90846   7431841.08546                  22983308.7564
        18.7504         19.0004
  21032990.8614  -10030197.13847  -7804480.40547                  21032996.6864
        27.2504         35.0004
  22320620.9634    9821344.84947   7650518.60347                  22320626.9394
        25.0004         32.0004
  24514868.0644   -3122786.27145  -2298336.06445                  24514874.7324
         8.0004          4.5004
  22124441.9004   -8372760.71947  -6489714.76147                  22124447.7714
        23.7504         28.7504
  22768032.9244   -9348656.70346  -7150071.24846                  22768039.7564
        17.7504         15.0004
 00  5  5 16 16  0.0020000  0  6G 2G 4G 7G 5G 9G24
  22990362.9084    9574658.64246   7460758.46246                  22990370.4594
        18.7504         18.7504
  21031680.3694  -10037083.93347  -7809846.73047                  21031686.3344
        27.2504         35.0004
  22327251.5804    9856188.24047   7677669.28047                  22327257.5454
        25.2504         32.2504
  24508258.3464   -3157521.44145  -2325402.43144                  24508265.8384
         8.2504          4.2504
  22123818.1044   -8376038.60347  -6492268.96347                  22123824.1154
        23.7504         29.0004
  22760924.2834   -9386012.44846  -7179179.57846                  22760931.0454
        17.7504         14.5004
 00  5  5 16 16 15.0020000  0  6G 2G 4G 7G 5G 9G24
  22997438.1824    9611839.49046   7489730.48546                  22997445.5924
        18.7504         19.0004
  21030397.2444  -10043827.30647  -7815101.29947                  21030403.1864
        27.5004         34.7504
  22333887.2054    9891058.59747   7704840.97947                  22333893.2994
        25.2504         31.5004
  24501647.7604   -3192259.13445  -2352470.77345                  24501655.9084
         8.2504          4.5004
  22123219.9084   -8379181.92047  -6494718.30847                  22123225.7914
        23.7504         29.0004
  22753829.4864   -9423296.55846  -7208232.09146                  22753836.4754
        17.7504         14.7504
 00  5  5 16 16 30.0020000  0  6G 2G 4G 7G 5G 9G24
  23004526.9944    9649089.89546   7518756.70046                  23004534.5684
        19.0004         19.0004
  21029141.2294  -10050427.91747  -7820244.61547                  21029147.1114
        27.5004         34.7504
  22340527.7364    9925955.18547   7732033.11947                  22340533.7714
        25.0004         31.5004
  24495036.4714   -3226999.81545  -2379541.43445                  24495043.4714
         7.7504          5.0004
  22122647.2994   -8382191.11047  -6497063.13547                  22122653.2294
        23.7504         29.0004
  22746748.1664   -9460509.44146  -7237229.09246                  22746755.4124
        18.0004         14.7504
 00  5  5 16 16 45.0020000  0  6G 2G 4G 7G 5G 9G24
  23011628.8384    9686410.81246   7547837.85946                  23011636.5534
        18.7504         19.7504
  21027912.3544  -10056884.60347  -7825275.79247                  21027918.0964
        27.5004         34.5004
  22347173.5494    9960878.73647   7759246.26747                  22347179.6434
        24.7504         31.2504
  24488425.0724   -3261742.36645  -2406613.54144                  24488432.9044
         7.7504          4.2504
  22122100.4864   -8385065.05147  -6499302.57247                  22122106.5214
        23.7504         29.2504
  22739680.5724   -9497649.78846  -7266169.58346                  22739687.9244
        18.2504         15.2504
 00  5  5 16 17  0.0020000  0  6G 2G 4G 7G 5G 9G24
  23018744.3384    9723800.44346   7576972.56146                  23018752.0294
        19.2504         19.7504
  21026710.8854  -10063199.11847  -7830196.18347                  21026716.8264
        27.0004         34.0004
  22353824.1434    9995827.37147   7786478.95747                  22353830.0844
        24.5004         30.7504
  24481813.6824   -3296488.50645  -2433688.43345                  24481821.3384
         8.2504          4.5004
  22121578.8774   -8387805.48747  -6501437.98747                  22121584.8544
        23.5004         29.5004
  22732626.4084   -9534719.02046  -7295054.65146                  22732633.8304
        18.2504         15.5004
 00  5  5 16 17 15.0020000  0  6G 2G 4G 7G 5G 9G24
  23025872.4084    9761259.66946   7606161.50346                  23025880.0884
        19.2504         20.0004
  21025536.3934  -10069370.41047  -7835004.96747                  21025542.4044
        26.7504         33.7504
  22360479.4634   10030801.87047   7813731.80447                  22360485.4634
        24.7504         30.5004
  24475201.3614   -3331237.21445  -2460765.33345                  24475208.4904
         8.7504          4.5004
  22121083.0644   -8390411.39947  -6503468.56847                  22121088.9244
        23.5004         28.5004
  22725585.9394   -9571716.20046  -7323883.57946                  22725593.1394
        18.2504         16.0004
 00  5  5 16 17 30.0020000  0  6G 2G 4G 7G 5G 9G24
  23033014.1274    9798788.89946   7635405.00146                  23033022.0534
        19.0004         20.2504
  21024389.4794  -10075398.04647  -7839701.81347                  21024395.4084
        26.7504         33.2504
  22367139.7604   10065802.31247   7841004.86847                  22367145.7484
        24.5004         30.2504
  24468588.2054   -3365988.06345  -2487843.92345                  24468595.0494
         9.2504          4.5004
  22120612.8544   -8392882.46747  -6505394.08147                  22120618.7834
        23.5004         28.7504
  22718559.5104   -9608640.53546  -7352655.74346                  22718566.7914
        18.7504         16.2504
 00  5  5 16 17 45.0020000  0  6G 2G 4G 7G 5G 9G24
  23040168.7754    9836387.09446   7664702.23546                  23040176.5844
        19.2504         19.7504
  21023269.5494  -10081282.87747  -7844287.38547                  21023275.4904
        27.0004         33.7504
  22373804.8774   10100827.74747   7868297.40747                  22373810.9244
        24.2504         30.0004
  24461974.6584   -3400741.81445  -2514924.74745                  24461981.3384
         9.2504          4.7504
  22120168.2524   -8395219.43447  -6507215.10247                  22120174.2754
        23.7504         28.5004
  22711546.8934   -9645492.57646  -7381371.57446                  22711554.3264
        18.7504         17.0004
 00  5  5 16 18  0.0020000  0  6G 2G 4G 7G 5G 9G24
  23047336.7834    9874055.51946   7694054.19246                  23047344.7324
        19.5004         20.0004
  21022177.1584  -10087023.55247  -7848760.63147                  21022182.7834
        27.0004         34.0004
  22380474.8934   10135879.26747   7895610.26947                  22380480.8694
        24.2504         29.5004
  24455361.4394   -3435497.07445  -2542006.75345                  24455369.1434
         9.7504          5.0004
  22119749.1274   -8397420.91747  -6508930.55147                  22119755.0454
        23.5004         28.7504
  22704547.9394   -9682270.85246  -7410029.93046                  22704555.4434
        18.7504         17.0004
 00  5  5 16 18 15.0020000  0  6G 2G 4G 7G 5G 9G24
  23054518.7364    9911796.33446   7723462.55346                  23054526.6044
        19.0004         19.0004
  21021112.7214  -10092617.90647  -7853119.85847                  21021118.5334
        27.5004         34.5004
  22387150.4794   10170958.84947   7922944.99647                  22387156.4084
        24.2504         29.2504
  24448747.6434   -3470251.61845  -2569088.19545                  24448755.3934
        10.0004          5.0004
  22119356.3934   -8399484.79147  -6510538.76847                  22119362.2644
        23.5004         29.5004
  22697563.5414   -9718972.92746  -7438628.89846                  22697571.1974
        18.5004         17.0004
 00  5  5 16 18 30.0020000  0  6G 2G 4G 7G 5G 9G24
  23061714.0964    9949608.00346   7752926.12246                  23061722.0454
        18.7504         18.0004
  21020075.7054  -10098067.38047  -7857366.19247                  21020081.5184
        27.5004         34.7504
  22393830.8544   10206064.79547   7950300.26747                  22393836.8424
        24.2504         29.7504
  24442133.5804   -3505006.86445  -2596170.17145                  24442141.6464
         9.7504          4.7504
  22118989.6434   -8401412.52847  -6512040.91247                  22118995.6544
        23.7504         29.5004
  22690593.8614   -9755600.04746  -7467169.46446                  22690601.1894
        18.2504         17.2504
 00  5  5 16 18 45.0020000  0  6G 2G 4G 7G 5G 9G24
  23068922.5254    9987488.47846   7782443.31046                  23068930.5214
        18.7504         18.2504
  21019065.8304  -10103373.85147  -7861501.09447                  21019071.4434
        27.5004         35.0004
  22400516.0024   10241194.88447   7977674.35547                  22400521.9674
        24.2504         29.2504
  24435519.2994   -3539764.69945  -2623254.18145                  24435526.6974
         9.7504          4.7504
  22118648.4324   -8403206.04647  -6513438.46547                  22118654.4084
        24.0004         29.2504
  22683637.8934   -9792153.98446  -7495653.00246                  22683645.6074
        18.0004         17.0004
 00  5  5 16 19  0.0020000  0  7G 2G 4G 7G 5G 9G24G16
  23076144.1504   10025438.35746   7812014.58646                  23076152.2054
        18.2504         18.2504
  21018083.3694  -10108536.65047  -7865524.04547                  21018088.9714
        27.7504         34.5004
  22407205.7684   10276349.77247   8005067.76247                  22407211.7794
        23.7504         29.2504
  24428904.3934   -3574524.35345  -2650339.63945                  24428913.0454
        10.0004          4.5004
  22118332.9164   -8404864.58647  -6514730.84447                  22118338.8464
        24.0004         29.2504
  22676695.9244   -9828633.77246  -7524078.76146                  22676703.6864
        18.0004         17.0004
  25235046.2444      -4220.23955
         8.7504
 00  5  5 16 19 15.0020000  0  7G 2G 4G 7G 5G 9G24G16
  23083378.8774   10063457.26046   7841639.63646                  23083386.8034
        18.2504         17.5004
  21017128.1434  -10113555.89647  -7869435.13747                  21017133.8034
        27.5004         35.2504
  22413900.1824   10311528.91047   8032480.06847                  22413906.1464
        24.2504         29.0004
  24422290.2364   -3609286.06845  -2677426.64545                  24422299.3114
        10.2504          4.7504
  22118042.7524   -8406388.43347  -6515918.26547                  22118048.7994
        24.2504         29.5004
  22669767.9944   -9865039.37346  -7552446.71346                  22669775.3464
        18.0004         17.5004
  25232646.8224     -16824.62945
         8.2504
 00  5  5 16 19 30.0020000  0  7G 2G 4G 7G 5G 9G24G16
  23090626.9944   10101546.61446   7871319.57846                  23090634.7094
        18.0004         17.0004
  21016200.4944  -10118430.29347  -7873233.35847                  21016206.2604
        26.7504         34.2504
  22420599.2834   10346733.53047   8059912.22747                  22420605.3304
        24.0004         28.7504
  24415674.6114   -3644048.35045  -2704514.13145                  24415683.2874
        10.2504          4.7504
  22117778.8614   -8407776.10647  -6516999.57747                  22117784.7794
        24.2504         29.5004
  22662854.8224   -9901369.30046  -7580755.69946                  22662862.1274
        18.0004         17.5004
  25230265.2524     -29341.15145
         9.2504
 00  5  5 16 19 45.0020000  0  7G 2G 4G 7G 5G 9G24G16
  23097888.8224   10139705.91346   7901054.02946                  23097896.5254
        18.0004         17.0004
  21015300.3934  -10123160.28247  -7876919.05547                  21015306.3464
        26.2504         33.5004
  22427303.1894   10381962.91147   8087363.68747                  22427309.0724
        24.2504         28.7504
  24409059.7754   -3678811.49445  -2731602.26845                  24409068.0884
        10.2504          4.7504
  22117540.4554   -8409028.08247  -6517975.15547                  22117546.3854
        24.5004         30.5004
  22655955.7444   -9937623.51046  -7609005.68546                  22655963.1894
        18.0004         17.7504
  25227900.1114     -41769.82245
         9.0004
 00  5  5 16 20  0.0020000  0  7G 2G 4G 7G 5G 9G24G16
  23105163.8304   10177935.64746   7930843.36446                  23105171.5684
        18.2504         17.5004
  21014427.9634  -10127745.15847  -7880491.67447                  21014434.0104
        26.2504         33.0004
  22434012.0574   10417217.48747   8114834.77547                  22434017.9864
        23.7504         28.2504
  24402444.4864   -3713574.91545  -2758690.66545                  24402453.0924
        10.2504          4.5004
  22117328.2604   -8410143.70547  -6518844.47847                  22117334.1664
        25.0004         30.5004
  22649071.2294   -9973801.39146  -7637196.19246                  22649079.0724
        18.0004         17.7504
  25225551.5414     -54110.04845     -3837.71855                  25225562.6664
         9.0004          5.0004
 00  5  5 16 20 15.0020000  0  7G 2G 4G 7G 5G 9G24G16
  23112451.8544   10216235.09046   7960687.01746                  23112459.5104
        18.2504         17.0004
  21013583.1274  -10132185.53147  -7883951.69247                  21013589.1044
        26.0004         33.0004
  22440725.2754   10452496.46247   8142324.87547                  22440731.3344
        24.2504         28.5004
  24395828.9944   -3748339.11945  -2785779.64045                  24395837.9864
        10.7504          4.5004
  22117141.8614   -8411123.58347  -6519608.03247                  22117147.7684
        24.7504         30.5004
  22642201.3304  -10009903.31146  -7665327.51446                  22642209.0214
        18.2504         17.5004
  25223219.7684     -66362.09845    -13384.68345                  25223231.0104
         9.5004          5.2504
 00  5  5 16 20 30.0020000  0  7G 2G 4G 7G 5G 9G24G16
  23119752.8144   10254602.40146   7990583.56146                  23119760.9514
        18.2504         17.2504
  21012765.2604  -10136483.14247  -7887300.47347                  21012771.1894
        26.2504         33.2504
  22447443.0184   10487797.91747   8169832.48847                  22447449.0414
        24.2504         28.7504
  24389212.8694   -3783105.76745  -2812870.56744                  24389222.2954
        11.0004          4.2504
  22116980.8544   -8411969.44447  -6520267.15247                  22116986.7364
        25.0004         30.7504
  22635345.6114  -10045930.69146  -7693400.74746                  22635353.1864
        18.2504         17.7504
  25220904.9004     -78527.47345    -22864.15745                  25220915.0764
         9.5004          4.7504
 00  5  5 16 20 45.0020000  0  7G 2G 4G 7G 5G 9G24G16
  23127066.9474   10293038.06646   8020533.35446                  23127075.1074
        18.0004         17.2504
  21011974.6194  -10140637.39047  -7890537.54147                  21011980.5024
        26.2504         33.5004
  22454164.8774   10523122.11247   8197357.82647                  22454170.7484
        23.7504         28.5004
  24382596.9324   -3817874.33645  -2839962.95345                  24382605.1044
        10.7504          4.5004
  22116845.5254   -8412680.68447  -6520821.37847                  22116851.4324
        25.0004         31.0004
  22628503.9084  -10081882.87146  -7721415.38346                  22628511.5064
        18.2504         18.5004
  25218606.2684     -90605.35645    -32275.46445                  25218616.4904
         9.0004          4.5004
 00  5  5 16 21  0.0020000  0  7G 2G 4G 7G 5G 9G24G16
  23134394.2134   10331543.35846   8050537.40746                  23134402.5844
        17.7504         17.0004
  21011211.7754  -10144646.99447  -7893661.89747                  21011217.6704
        26.7504         33.5004
  22460891.5254   10558470.22947   8224901.80747                  22460897.5024
        24.0004         28.2504
  24375980.8304   -3852643.40845  -2867055.71545                  24375989.2254
        10.7504          4.5004
  22116736.2364   -8413256.02947  -6521269.71047                  22116742.1664
        25.0004         31.5004
  22621676.8774  -10117758.30946  -7749370.22546                  22621684.6274
        18.2504         18.2504
  25216324.9324    -102594.18845    -41617.32045                  25216335.7874
        10.0004          5.0004
 00  5  5 16 21 15.0020000  0  7G 2G 4G 7G 5G 9G24G16
  23141734.5964   10370116.20546   8080594.10946                  23141742.8504
        17.7504         17.5004
  21010475.9714  -10148514.01647  -7896675.15547                  21010481.9004
        27.0004         34.0004
  22467621.9714   10593840.08347   8252462.72247                  22467627.9364
        24.0004         28.5004
  24369363.5574   -3887414.81145  -2894150.32445                  24369371.1074
        10.7504          4.7504
  22116652.1974   -8413697.45847  -6521613.68947                  22116658.1504
        24.7504         31.5004
  22614864.2054  -10153558.66446  -7777266.55346                  22614872.0374
        18.2504         18.2504
  25214060.2994    -114495.75745    -50891.20245                  25214070.0294
        10.0004          4.7504
 00  5  5 16 21 30.0020000  0  7G 2G 4G 7G 5G 9G24G16
  23149087.9634   10408757.32046   8110704.01046                  23149096.2754
        17.7504         17.5004
  21009767.3694  -10152237.59247  -7899576.63547                  21009773.2054
        27.2504         34.2504
  22474357.0024   10629232.35747   8280041.11347                  22474362.9794
        23.7504         28.2504
  24362746.7054   -3922187.72745  -2921246.11945                  24362755.1114
        10.5004          4.5004
  22116593.6504   -8414004.17147  -6521852.69447                  22116599.5924
        24.2504         31.0004
  22608066.4164  -10189282.92446  -7805103.59646                  22608073.9434
        18.7504         18.2504
  25211812.6044    -126308.89945    -60096.20145                  25211822.0644
        11.0004          5.0004
 00  5  5 16 21 45.0020000  0  7G 2G 4G 7G 5G 9G24G16
  23156453.9554   10447465.74646   8140866.34646                  23156462.2684
        17.7504         17.7504
  21009085.7914  -10155818.46647  -7902366.91847                  21009091.4394
        27.2504         34.2504
  22481095.9474   10664645.72947   8307635.93847                  22481102.0184
        23.7504         28.0004
  24356128.9634   -3956962.99445  -2948343.73244                  24356137.6044
        10.2504          4.2504
  22116560.7684   -8414177.05847  -6521987.42147                  22116566.7794
        24.2504         30.7504
  22601282.6824  -10224931.62346  -7832881.75746                  22601290.0104
        18.7504         18.5004
  25209581.0964    -138034.58245    -69232.98844                  25209591.0614
        11.0004          4.2504
 00  5  5 16 22  0.0020000  0  7G 2G 4G 7G 5G 9G24G16
  23163832.7294   10486242.22246   8171081.72046                  23163841.2054
        18.2504         17.5004
  21008431.7524  -10159256.07547  -7905045.56547                  21008437.4004
        27.0004         34.5004
  22487839.0414   10700081.03847   8335247.85547                  22487845.0184
        23.7504         28.2504
  24349510.9164   -3991739.63245  -2975442.42145                  24349519.0414
        10.0004          4.5004
  22116553.6974   -8414215.35947  -6522017.27347                  22116559.7214
        24.0004         30.7504
  22594513.6354  -10260503.99546  -7860600.44646                  22594520.8814
        19.0004         18.5004
  25207366.9084    -149671.55545    -78300.71644                  25207376.2524
        10.7504          3.5004
 00  5  5 16 22 15.0020000  0  7G 2G 4G 7G 5G 9G24G16
  23171224.6894   10525086.62446   8201350.01546                  23171233.1894
        18.2504         18.0004
  21007805.0184  -10162550.31947  -7907612.49847                  21007810.7364
        26.7504         33.7504
  22494586.3144   10735537.96847   8362876.62947                  22494592.3144
        23.7504         28.2504
  24342893.1274   -4026517.61745  -3002542.15844                  24342901.0884
        10.0004          4.2504
  22116571.7604   -8414119.06647  -6521942.24647                  22116577.7254
        23.7504         30.2504
  22587758.7684  -10295999.70646  -7888259.39746                  22587766.3304
        19.0004         18.2504
  25205169.5724    -161219.49445    -87299.04344                  25205179.0684
        11.5004          3.5004
 00  5  5 16 22 30.0020000  0  7G 2G 4G 7G 5G 9G24G16
  23178629.8464   10563999.82146   8231671.91646                  23178638.7564
        18.2504         18.2504
  21007205.3304  -10165700.18947  -7910066.93347                  21007211.2604
        26.7504         33.5004
  22501337.6894   10771017.30647   8390522.85647                  22501343.7014
        23.7504         28.2504
  24336275.1434   -4061296.02745  -3029642.20944                  24336283.5024
        10.0004          4.2504
  22116615.9474   -8413887.16647  -6521761.55447                  22116621.9124
        23.5004         29.7504
  22581019.0574  -10331417.53146  -7915857.66046                  22581026.5964
        19.2504         18.7504
  25202988.6744    -172677.35645    -96227.12544                  25202996.7994
        11.7504          3.5004
 00  5  5 16 22 45.0020000  0  7G 2G 4G 7G 5G 9G24G16
  23186047.7834   10602981.37046   8262047.07646                  23186056.3894
        18.0004         18.2504
  21006633.3224  -10168706.14247  -7912409.22247                  21006639.1464
        26.5004         33.2504
  22508093.4474   10806518.43547   8418186.06247                  22508099.5064
        23.5004         28.5004
  24329657.1044   -4096075.19845  -3056742.88344                  24329664.3734
        10.0004          4.0004
  22116686.0254   -8413519.92447  -6521475.39847                  22116691.8614
        23.7504         29.2504
  22574293.6194  -10366757.74246  -7943395.44446                  22574301.0534
        19.0004         18.7504
  25200825.2914    -184045.26545   -105085.17843                  25200833.2994
        11.0004          3.2504
 00  5  5 16 23  0.0020000  0  7G 2G 4G 7G 5G 9G24G16
  23193478.6114   10642030.88146   8292475.19946                  23193487.5684
        18.0004         18.0004
  21006088.7054  -10171568.52447  -7914639.63647                  21006094.5184
        26.2504         32.7504
  22514853.1974   10842040.82147   8445865.84247                  22514859.1974
        23.5004         28.7504
  24323038.4554   -4130855.31645  -3083844.27744                  24323046.2874
        10.0004          4.2504
  22116781.5334   -8413017.84747  -6521084.18047                  22116787.4754
        23.7504         29.2504
  22567583.4474  -10402020.35846  -7970872.76046                  22567590.8114
        19.0004         18.2504
  25198679.2994    -195323.30345   -113873.18544                  25198689.5804
        10.7504          3.7504
 00  5  5 16 23 15.0020000  0  7G 2G 4G 7G 5G 9G24G16
  23200922.9394   10681150.23746   8322957.75146                  23200931.6044
        18.2504         17.7504
  21005571.5494  -10174285.21047  -7916756.52447                  21005577.3264
        26.7504         33.5004
  22521617.2134   10877586.27647   8473563.59047                  22521623.2254
        23.7504         28.2504
  24316420.4324   -4165634.31845  -3110944.79345                  24316427.3964
        10.5004          4.5004
  22116902.9794   -8412378.92147  -6520586.32347                  22116908.9554
        23.7504         28.7504
  22560888.3694  -10437203.33346  -7998288.01846                  22560895.6624
        19.5004         18.5004
  25196550.5724    -206509.33145   -122589.46744                  25196560.5024
        10.5004          4.0004
 00  5  5 16 23 30.0020000  0  7G 2G 4G 7G 5G 9G24G16
  23208379.9004   10720336.79246   8353492.66746                  23208388.6704
        17.7504         17.7504
  21005082.0414  -10176858.98247  -7918762.05147                  21005087.8544
        27.0004         33.5004
  22528385.4794   10913152.04547   8501277.17247                  22528391.4794
        23.7504         28.7504
  24309802.1114   -4200414.63545  -3138046.34945                  24309808.4634
        10.2504          5.0004
  22117050.1824   -8411605.71347  -6519983.83347                  22117056.0884
        23.7504         29.0004
  22554207.9634  -10472308.75446  -8025642.85046                  22554215.2564
        19.2504         18.5004
  25194438.5724    -217605.65145   -131235.82744                  25194449.2174
        10.2504          4.0004
 00  5  5 16 23 45.0020000  0  7G 2G 4G 7G 5G 9G24G16
  23215849.8774   10759591.33446   8384080.54446                  23215858.8114
        18.0004         17.5004
  21004619.6194  -10179288.87947  -7920655.47047                  21004625.3384
        27.2504         34.2504
  22535157.1744   10948738.79247   8529007.09447                  22535163.2444
        23.5004         28.0004
  24303183.7294   -4235195.35745  -3165148.18845                  24303190.7524
        10.2504          5.0004
  22117222.9714   -8410697.39047  -6519276.05647                  22117228.8774
        23.7504         28.2504
  22547542.5644  -10507335.66046  -8052936.50346                  22547549.5764
        19.5004         18.5004
  25192344.1354    -228611.09845   -139811.40643                  25192354.5924
        10.2504          3.2504
 00  5  5 16 24  0.0020000  0  7G 2G 4G 7G 5G 9G24G16
  23223332.4554   10798912.52946   8414720.36846                  23223340.9674
        18.2504         17.5004
  21004184.3224  -10181576.17447  -7922437.76947                  21004189.9824
        27.2504         34.2504
  22541932.6894   10984345.09047   8556752.25747                  22541938.6784
        23.5004         28.0004
  24296564.2914   -4269977.75745  -3192251.37645                  24296571.0764
        10.0004          5.2504
  22117421.2684   -8409655.27747  -6518464.01947                  22117427.1504
        23.5004         28.2504
  22540892.0184  -10542285.10446  -8080169.78846                  22540898.9824
        19.7504         18.5004
  25190266.8854    -239526.62845   -148316.93344                  25190277.9394
         9.7504          3.5004
 00  5  5 16 24 15.0020000  0  7G 2G 4G 7G 5G 9G24G16
  23230827.9244   10838300.23446   8445412.02346                  23230836.2604
        18.2504         17.0004
  21003776.3224  -10183720.87247  -7924108.95347                  21003781.9714
        27.5004         34.0004
  22548712.0644   11019970.75747   8584512.50547                  22548718.0184
        23.5004         27.7504
  24289945.0804   -4304761.80445  -3219355.82445                  24289952.9594
        10.0004          5.0004
  22117645.2754   -8408479.37947  -6517547.74547                  22117651.2874
        23.5004         28.0004
  22534256.1894  -10577156.91246  -8107342.58446                  22534263.2954
        19.7504         18.5004
  25188206.5104    -250352.19845   -156752.35144                  25188218.6784
         9.5004          4.0004
 00  5  5 16 24 30.0020000  0  7G 2G 4G 7G 5G 9G24G16
  23238336.1114   10877756.54246   8476157.11546                  23238344.2834
        18.0004         16.7504
  21003395.6274  -10185720.80747  -7925667.33547                  21003401.1584
        27.7504         34.2504
  22555495.5574   11055617.63847   8612289.29047                  22555501.6044
        23.5004         28.5004
  24283326.2524   -4339545.15245
         9.7504
  22117894.5884   -8407167.48947  -6516525.50447                  22117900.5414
        23.7504         28.2504
  22527635.4004  -10611948.68946  -8134453.02946                  22527642.4594
        19.5004         17.5004
  25186164.4474    -261085.20745   -165115.64343                  25186174.5414
         9.2504          3.0004
 00  5  5 16 24 45.0020000  0  7G 2G 4G 7G 5G 9G24G16
  23245857.5724   10917281.74246   8506955.88246                  23245865.5104
        18.2504         16.7504
  21003042.5024  -10187575.71847  -7927112.71047                  21003048.1624
        27.2504         34.2504
  22562282.8774   11091285.93647   8640082.76047                  22562288.8544
        23.2504         28.2504
  24276707.2604   -4374327.34545
        10.0004
  22118170.1974   -8405719.22947  -6515396.98847                  22118176.2324
        23.7504         28.2504
  22521029.8854  -10646659.82447  -8161500.61846                  22521036.7444
        20.0004         18.5004
  25184139.7914    -271725.30845   -173406.54644                  25184149.8734
         9.7504          4.2504
 00  5  5 16 25  0.0020000  0  7G 2G 4G 7G 5G 9G24G16
  23253392.1584   10956876.13546   8537808.57946                  23253399.9554
        18.0004         16.2504
  21002717.2684  -10189285.16647  -7928444.74447                  21002723.0924
        26.7504         33.5004
  22569074.6664   11126975.95647   8667893.15547                  22569080.6784
        23.0004         28.0004
  24270088.7134   -4409107.96645
        10.0004
  22118471.9794   -8404134.27247  -6514161.96447                  22118477.8964
        23.5004         28.2504
  22514440.1504  -10681289.69447  -8188484.89446                  22514447.1624
        20.2504         18.7504
  25182132.5644    -282271.93345   -181624.57945                  25182141.8854
         9.2504          5.0004
 00  5  5 16 25 15.0020000  0  7G 2G 4G 7G 5G 9G24G16
  23260939.5884   10996537.44046   8568713.40446                  23260947.6544
        17.2504         16.2504
  21002419.0964  -10190851.47347  -7929665.23647                  21002425.1314
        26.7504         33.5004
  22575869.8464   11162685.17647   8695718.51647                  22575875.8574
        23.0004         28.5004
  24263470.4794   -4443889.11445
        10.2504
  22118799.1354   -8402414.84747  -6512822.15447                  22118804.9824
        23.5004         28.2504
  22507865.2914  -10715840.31347  -8215407.41246                  22507872.1864
        20.5004         18.7504
  25180143.1824    -292726.87045   -189771.19445                  25180153.4984
        10.5004          4.7504
 00  5  5 16 25 30.0020000  0  7G 2G 4G 7G 5G 9G24G16
  23268499.7054   11036265.52846   8599670.28146                  23268507.6784
        17.2504         16.2504
  21002148.1584  -10192274.60947  -7930774.16547                  21002154.0414
        26.7504         33.2504
  22582668.7214   11198413.44347   8723558.71847                  22582674.8384
        23.2504         28.2504
  24256851.6504   -4478670.70445
        10.0004
  22119151.7524   -8400560.95447  -6511377.56447                  22119157.6824
        23.2504         28.0004
  22501305.5104  -10750311.51947  -8242268.05346                  22501312.3304
        20.2504         18.5004
  25178171.0964    -303089.87745   -197846.16845                  25178181.7054
        10.2504          5.2504
 00  5  5 16 25 45.0020000  0  7G 2G 4G 7G 5G 9G24G16
  23276072.7834   11076062.54146   8630680.86146                  23276081.2364
        17.2504         16.5004
  21001905.2134  -10193552.37847  -7931769.82447                  21001911.1314
        26.7504         32.7504
  22589471.5884   11234162.79147   8751415.34047                  22589477.6824
        23.2504         28.0004
  24250232.8464   -4513450.48545     -5419.41255                  24250240.6434
        10.0004          5.7504
  22119530.8304   -8398570.28347  -6509826.39747                  22119536.9004
        23.0004         27.5004
  22494761.5884  -10784700.79047  -8269064.84946                  22494768.1624
        20.5004         18.7504
  25176216.9944    -313358.73945   -205847.79844                  25176226.6314
        10.2504          4.0004
 00  5  5 16 26  0.0020000  0  7G 2G 4G 7G 5G 9G24G16
  23283659.2134   11115928.08346   8661744.84246                  23283667.9124
        17.5004         17.0004
  21001689.5024  -10194685.13047  -7932652.48347                  21001695.2914
        27.0004         33.2504
  22596278.3694   11269932.73747   8779288.01147                  22596284.4044
        23.0004         28.5004
  24243615.1894   -4548228.68545    -32519.28745                  24243622.7404
         9.7504          6.0004
  22119935.3384   -8396443.26947  -6508168.98747                  22119941.2564
        22.7504         26.7504
  22488233.0574  -10819008.19247  -8295797.85546                  22488240.0334
        20.5004         19.2504
  25174281.0494    -323533.48045   -213776.13244                  25174289.9474
         9.7504          3.5004
 00  5  5 16 26 15.0020000  0  7G 2G 4G 7G 5G 9G24G16
  23291258.2994   11155862.14446   8692862.21446                  23291267.0924
        17.7504         17.2504
  21001501.6824  -10195672.69847  -7933422.00947                  21001507.4124
        27.5004         34.0004
  22603089.0724   11305723.22847   8807176.69647                  22603095.0494
        23.0004         28.2504
  24236996.9324   -4583005.04345    -59617.72945                  24237004.4944
        10.0004          6.2504
  22120366.1434   -8394179.82947  -6506405.27447                  22120372.1544
        22.7504         27.0004
  22481720.3144  -10853233.46047  -8322466.85346                  22481726.9944
        20.2504         19.2504
  25172362.4864    -333613.51445   -221630.60543                  25172371.5494
         9.0004          3.2504
 00  5  5 16 26 30.0020000  0  7G 2G 4G 7G 5G 9G24G16
  23298870.5644   11195865.08246   8724033.25546                  23298879.5574
        17.5004         17.5004
  21001341.6354  -10196514.71747  -7934078.12247                  21001347.3544
        27.2504         34.0004
  22609903.7604   11341534.38447   8835081.48347                  22609909.7714
        22.7504         27.7504
  24230379.2294   -4617779.08845    -86714.38445                  24230387.2954
        10.0004          6.2504
  22120822.8224   -8391779.60247  -6504534.97347                  22120828.7994
        23.0004         27.2504
  22475223.1824  -10887376.03247  -8349071.41746                  22475229.8264
        20.2504         19.5004
  25170462.4004    -343598.30145   -229410.85144                  25170471.2874
         9.0004          3.5004
 00  5  5 16 26 45.0020000  0  7G 2G 4G 7G 5G 9G24G16
  23306496.0724   11235937.16546   8755258.17146                  23306505.0644
        17.5004         17.2504
  21001209.0574  -10197210.90847  -7934620.60247                  21001214.6464
        27.5004         33.7504
  22616722.5024   11377366.54247   8863002.63147                  22616728.5024
        23.0004         27.5004
  24223763.0184   -4652550.37445   -113808.89645                  24223770.6974
        10.2504          6.0004
  22121305.8934   -8389242.25647  -6502557.82647                  22121311.9164
        23.0004         27.5004
  22468741.7214  -10921435.24547  -8375611.02746                  22468748.6274
        20.2504         19.2504
  25168580.3464    -353487.29345   -237116.48743                  25168590.6504
         8.5004          3.2504
 00  5  5 16 27  0.0020000  0  7G 2G 4G 7G 5G 9G24G16
  23314134.8384   11276077.84946   8786536.54446                  23314143.7834
        17.5004         17.0004
  21001104.2994  -10197761.76347  -7935049.83547                  21001109.8304
        27.7504         34.0004
  22623544.9244   11413218.90547   8890939.52747                  22623550.9124
        23.2504         27.7504
  24217147.0184   -4687319.29245   -140901.56345                  24217155.0964
        10.2504          6.5004
  22121814.6824   -8386568.19447  -6500474.14947                  22121820.7054
        23.0004         27.2504
  22462276.2914  -10955411.43347  -8402085.93246                  22462282.9474
        20.2504         19.7504
  25166716.6354    -363280.95344   -244747.86542                  25166725.5574
         7.2504          2.2504
 00  5  5 16 27 15.0020000  0  7G 2G 4G 7G 5G 9G24G16
  23321786.0104   11316285.13746   8817866.82446                  23321794.8854
        17.2504         17.5004
  21001026.7364  -10198169.22247  -7935367.33547                  21001032.1974
        27.7504         33.7504
  22630371.0024   11449089.35647   8918890.51747                  22630376.9904
        23.2504         28.0004
  24210530.4794   -4722087.69945   -167993.82045                  24210538.7324
        10.2504          6.2504
  22122349.1894   -8383759.38747  -6498285.47247                  22122355.0494
        23.5004         27.5004
  22455826.1584  -10989306.15247  -8428497.36246                  22455833.0884
        20.2504         19.7504
  25164870.6504    -372980.71544   -252306.04142                  25164879.6074
         6.7504          2.0004
 00  5  5 16 27 30.0020000  0  7G 2G 4G 7G 5G 9G24G16
  23329450.4004   11356562.26646   8849251.53346                  23329459.2874
        17.0004         17.0004
  21000977.1274  -10198429.95147  -7935570.49947                  21000982.7994
        27.2504         33.7504
  22637200.6824   11484981.17847   8946858.16047                  22637206.7054
        23.0004         27.7504
  24203914.8464   -4756852.03545   -195082.90245                  24203922.7134
        10.2504          6.2504
  22122909.7444   -8380812.59047  -6495989.27447                  22122915.6274
        23.5004         27.5004
  22449392.3144  -11023115.92847  -8454842.60046                  22449399.2324
        20.5004         19.7504
  25163043.1044    -382583.10243   -259788.32742                  25163053.3144
         6.0004          2.0004
 00  5  5 16 27 45.0020000  0  7G 2G 4G 7G 5G 9G24G16
  23337127.9164   11396906.90546   8880688.84246                  23337136.4394
        17.0004         16.0004
  21000954.8614  -10198546.17447  -7935661.06247                  21000960.5924
        27.0004         33.5004
  22644034.3384   11520891.91047   8974840.53847                  22644040.4084
        23.0004         27.7504
  24197299.5964   -4791614.52845   -222170.55545                  24197307.5104
        10.5004          7.0004
  22123496.4244   -8377729.98147  -6493587.24347                  22123502.4004
        23.0004         26.7504
  22442974.3854  -11056842.69947  -8481123.15946                  22442981.1824
        20.5004         20.7504
  25161234.1194    -392090.14444   -267196.30442                  25161244.1544
         6.2504          2.0004
 00  5  5 16 28  0.0020000  0  7G 2G 4G 7G 5G 9G24G16
  23344818.9864   11437324.14746   8912182.70446                  23344827.7564
        17.2504         16.2504
  21000961.2994  -10198512.69647  -7935634.97447                  21000967.1464
        26.7504         33.5004
  22650872.5644   11556826.64347   9002841.61647                  22650878.5764
        22.7504         27.0004
  24190686.2994   -4826369.81845   -249252.60545                  24190694.5294
        10.7504          7.0004
  22124109.8544   -8374506.38047  -6491075.35147                  22124115.8774
        23.2504         26.7504
  22436573.2684  -11090481.08547  -8507334.85146                  22436580.0884
        20.7504         20.7504
  25159444.2684    -401496.14544   -274525.59442                  25159452.5574
         6.5004          1.5004
 00  5  5 16 28 15.0020000  0  7G 2G 4G 7G 5G 9G24G16
  23352523.2524   11477809.42546   8943729.58246                  23352531.4364
        17.0004         15.7504
  21000995.4084  -10198334.02047  -7935495.74447                  21001001.1624
        27.0004         33.5004
  22657714.4164   11592780.58247   9030857.65947                  22657720.3224
        23.5004         27.2504
  24184073.1974   -4861122.39045   -276332.51245                  24184081.4984
        11.0004          6.7504
  22124749.3774   -8371146.21547  -6488457.04347                  22124755.3894
        23.0004         26.7504
  22430187.9944  -11124035.38747  -8533481.02346                  22430194.8034
        20.5004         21.2504
  25157672.2994    -410805.69044   -281779.67542                  25157684.9594
         6.5004          1.7504
 00  5  5 16 28 30.0020000  0  7G 2G 4G 7G 5G 9G24G16
  23360240.5494   11518363.14346   8975329.80546                  23360249.0374
        17.2504         15.2504
  21001056.8464  -10198009.79247  -7935243.09947                  21001062.8344
        27.0004         33.2504
  22664559.9394   11628754.10847   9058888.96547                  22664565.9514
        23.5004         27.0004
  24177460.5884   -4895871.66645   -303409.86945                  24177468.3384
        11.7504          6.7504
  22125414.7684   -8367649.08047  -6485732.00547                  22125420.6504
        23.5004         27.0004
  22423819.0884  -11157504.78447  -8559561.03146                  22423826.2054
        20.5004         21.5004
  25155919.5334    -420017.98843   -288957.93941                  25155932.5924
         6.0004          1.2504
 00  5  5 16 28 45.0020000  0  7G 2G 4G 7G 5G 9G24G16
  23367970.4944   11558986.22146   9006984.07346                  23367978.9944
        16.5004         14.5004
  21001146.4944  -10197539.18747  -7934876.39347                  21001152.2954
        27.0004         33.7504
  22671409.6354   11664748.05247   9086936.18247                  22671415.6824
        23.0004         27.0004
  24170848.6274   -4930616.63645   -330483.86645                  24170855.6624
        11.7504          7.0004
  22126106.5024   -8364014.13647  -6482899.59147                  22126112.4904
        23.5004         27.2504
  22417466.2364  -11190888.29947  -8585574.12046                  22417473.3894
        20.5004         22.0004
  25154185.7834    -429131.67644   -296059.45242                  25154194.0964
         7.2504          1.5004
 00  5  5 16 29  0.0020000  0  7G 2G 4G 7G 5G 9G24G16
  23375714.0884   11599678.02646   9038691.89346                  23375723.2214
        16.0004         14.2504
  21001264.0024  -10196922.51747  -7934395.86847                  21001269.9674
        27.0004         33.7504
  22678262.6824   11700761.67247   9114998.73247                  22678268.6824
        23.5004         26.5004
  24164237.9794   -4965357.64546   -357554.78945                  24164245.1194
        12.2504          7.0004
  22126824.5334   -8360241.81047  -6479960.11647                  22126830.5454
        23.5004         27.7504
  22411129.7834  -11224186.13447  -8611520.44546                  22411136.8774
        20.5004         22.0004
  25152468.7134    -438147.41944   -303084.66142                  25152474.1394
         7.2504          1.5004
 00  5  5 16 29 15.0020000  0  7G 2G 4G 7G 5G 9G24G16
  23383470.4004   11640436.49446   9070451.66246                  23383479.1234
        16.7504         14.7504
  21001408.6824  -10196161.92547  -7933803.20047                  21001414.5414
        27.0004         33.7504
  22685118.9864   11736792.75147   9143074.88847                  22685124.9634
        23.5004         26.5004
  24157627.2054   -5000096.50246   -384624.00545                  24157634.4044
        12.2504          6.5004
  22127568.0414   -8356334.12347  -6476915.17147                  22127574.1114
        23.7504         27.7504
  22404809.3144  -11257400.05247  -8637401.37846                  22404816.3614
        20.7504         22.0004
  25150772.5024    -447066.52444   -310034.49942                  25150781.6824
         7.2504          2.0004
 00  5  5 16 29 30.0020000  0  7G 2G 4G 7G 5G 9G24G16
  23391239.7604   11681264.24646   9102265.41946                  23391248.4124
        16.2504         14.5004
  21001581.2604  -10195254.69547  -7933096.27047                  21001587.1074
        27.0004         34.0004
  22691979.4944   11772843.91447   9171166.69147                  22691985.5644
        23.0004         26.0004
  24151017.8934   -5034830.44646   -411689.40545                  24151024.7524
        12.5004          6.5004
  22128337.8464   -8352288.48547  -6473762.73047                  22128343.7754
        23.7504         27.7504
  22398505.5964  -11290526.99547  -8663214.53746                  22398512.3344
        21.2504         22.2504
  25149093.5184    -455886.52644   -316907.20842                  25149099.6234
         7.0004          1.7504
 00  5  5 16 29 45.0020000  0  7G 2G 4G 7G 5G 9G24G16
  23399022.0494   11722159.72646   9134131.93646                  23399030.6194
        16.5004         15.0004
  21001781.5644  -10194202.43247  -7932276.32847                  21001787.5534
        27.0004         34.2504
  22698843.1274   11808913.51447   9199272.85746                  22698849.1624
        22.7504         25.5004
  24144408.8774   -5069560.85746   -438752.05745                  24144416.0534
        12.5004          6.5004
  22129133.7134   -8348106.42247  -6470503.98847                  22129139.6664
        23.5004         27.5004
  22392218.0574  -11323568.43147  -8688961.07746                  22392224.8074
        21.2504         22.5004
  25147434.3854    -464608.32245   -323703.31142                  25147440.2094
         7.7504          1.7504
 00  5  5 16 30  0.0020000  0  7G 2G 4G 7G 5G 9G24G16
  23406816.9084   11763123.38646   9166051.59346                  23406825.9244
        16.2504         14.5004
  21002009.5184  -10193004.44547  -7931342.83247                  21002015.3304
        27.2504         34.0004
  22705710.5884   11845001.88747   9227393.65346                  22705716.4824
        22.5004         25.5004
  24137800.5494   -5104287.13846   -465811.49245                  24137806.6434
        12.5004          6.2504
  22129955.4794   -8343787.34047  -6467138.46947                  22129961.4084
        23.5004         27.7504
  22385946.8144  -11356523.43447  -8714640.25846                  22385953.7444
        21.0004         22.7504
  25145792.7364    -473231.34145   -330422.47442                  25145799.0414
         7.7504          2.2504
 00  5  5 16 30 15.0020000  0  7G 2G 4G 7G 5G 9G24G16
  23414625.4394   11804156.21546   9198025.13946                  23414634.5144
        16.7504         14.7504
  21002265.3614  -10191659.83547  -7930295.09147                  21002271.2914
        27.0004         33.7504
  22712581.6974   11881109.91547   9255529.76446                  22712587.6864
        22.2504         25.2504
  24131193.5644   -5139008.12646   -492866.79745                  24131200.5644
        13.0004          6.7504
  22130803.7754   -8339330.27547  -6463665.44047                  22130809.7174
        23.2504         27.5004
  22379692.3614  -11389390.95647  -8740251.27346                  22379699.1354
        21.0004         22.7504
  25144171.7994    -481754.14545   -337063.56943                  25144177.7054
         8.5004          2.5004
 00  5  5 16 30 30.0020000  0  7G 2G 4G 7G 5G 9G24G16
  23422447.3544   11845259.06246   9230053.24746                  23422456.2994
        17.2504         16.0004
  21002549.5104  -10190167.83147  -7929132.49347                  21002555.3574
        27.0004         34.2504
  22719456.7294   11917238.32247   9283681.75146                  22719462.7174
        22.2504         25.0004
  24124587.7444   -5173722.76746   -519917.14745                  24124594.6864
        13.0004          6.2504
  22131678.3224   -8334734.30647  -6460084.17347                  22131684.2994
        23.5004         27.5004
  22373454.5884  -11422169.69247  -8765793.10546                  22373461.3384
        21.0004         22.5004
  25142568.3464    -490175.83145   -343625.84243                  25142576.9164
         7.5004          2.5004
